Date StartTime U_cm/s V_cm/s W_cm/s Ustd_cm/s Vstd_cm/s Wstd_cm/s Uvar_(cm/s)^2 Vvar_(cm/s)^2 Wvar_(cm/s)^2 KE_(m/s)^2 TurbulentKE_(m/s)^2 HorizWindSpeed_cm/s FrictionSpeec_cm/s DragCoef SpeedOfSound_m/s SonicTemperature_C Pressure_mb 
11/26/2014  00:00:00     -101.386      -17.139      -15.069       25.681       19.722       14.576      659.532      388.958      212.470        0.603        0.063      102.825       14.184        0.019      334.705        4.854      872.586
11/26/2014  00:01:00     -109.771      -20.678      -23.166       22.566       22.490       18.135      509.234      505.782      328.876        0.718        0.067      111.702       14.649        0.017      334.610        4.695      872.574
11/26/2014  00:02:00     -119.532      -15.292      -26.617       18.160       14.705       11.554      329.780      216.233      133.485        0.795        0.034      120.506        6.146        0.003      334.582        4.648      872.564
11/26/2014  00:03:00     -137.236      -10.933      -25.510       16.074       19.590       12.304      258.361      383.754      151.392        1.020        0.040      137.671        9.622        0.005      334.632        4.733      872.574
11/26/2014  00:04:00     -107.713      -23.574      -18.432       21.472       26.217       13.834      461.050      687.335      191.385        0.692        0.067      110.263       13.633        0.015      334.565        4.621      872.563
11/26/2014  00:05:00     -100.017      -19.985      -13.164       21.859       26.868       17.907      477.811      721.863      320.643        0.605        0.076      101.994       15.757        0.024      334.525        4.553      872.547
11/26/2014  00:06:00     -105.844       -0.128      -19.507       24.521       18.825       15.874      601.286      354.396      251.988        0.640        0.060      105.844       11.063        0.011      334.598        4.675      872.518
11/26/2014  00:07:00      -92.979        1.760      -13.980       23.478       18.680       17.398      551.195      348.947      302.675        0.502        0.060       92.996       11.454        0.015      334.648        4.759      872.491
11/26/2014  00:08:00      -89.737       -6.016      -15.542       25.707       19.061       12.317      660.825      363.308      151.711        0.475        0.059       89.939       13.144        0.021      334.666        4.788      872.467
11/26/2014  00:09:00      -87.628      -12.073      -15.961       26.367       24.437       12.917      695.228      597.168      166.857        0.477        0.073       88.456        9.710        0.012      334.827        5.056      872.438
11/26/2014  00:10:00      -82.058      -13.781      -20.806       28.943       16.072       13.302      837.702      258.318      176.937        0.431        0.064       83.207       15.912        0.037      334.784        4.986      872.415
11/26/2014  00:11:00      -90.473      -10.434      -16.897       23.129       19.261       13.906      534.966      371.005      193.365        0.484        0.055       91.073       12.458        0.019      334.778        4.975      872.404
11/26/2014  00:12:00      -92.147        4.876      -19.004       18.228       11.593       13.536      332.267      134.390      183.235        0.476        0.032       92.276        8.930        0.009      334.680        4.813      872.389
11/26/2014  00:13:00      -69.204      -28.751      -21.394       15.551       20.871       10.614      241.837      435.579      112.649        0.343        0.040       74.939       10.512        0.020      334.611        4.698      872.383
11/26/2014  00:14:00      -76.889      -35.016      -20.505       16.898       18.739       13.342      285.558      351.148      178.015        0.419        0.041       84.487        7.309        0.007      334.628        4.726      872.385
11/26/2014  00:15:00      -92.113      -36.451      -17.055       16.488       26.354       15.427      271.855      694.530      238.006        0.565        0.060       99.063       13.345        0.018      334.495        4.506      872.396
11/26/2014  00:16:00     -114.939      -24.938      -16.702       26.164       26.654       19.094      684.543      710.432      364.579        0.794        0.088      117.614       15.681        0.018      334.362        4.284      872.415
11/26/2014  00:17:00     -128.206      -13.056      -15.538       27.974       28.894       22.666      782.536      834.847      513.760        0.949        0.107      128.869       14.806        0.013      334.287        4.160      872.412
11/26/2014  00:18:00      -95.903       -6.204      -13.795       28.939       32.270       18.615      837.478     1041.372      346.533        0.583        0.111       96.104       16.549        0.030      334.313        4.203      872.387
11/26/2014  00:19:00      -87.604      -21.710      -14.877       20.262       14.942       16.809      410.545      223.258      282.550        0.464        0.046       90.254       10.866        0.014      334.396        4.342      872.364
11/26/2014  00:20:00      -84.779       -4.496      -21.572       14.415       19.964       11.332      207.794      398.553      128.410        0.420        0.037       84.898        5.983        0.005      334.602        4.684      872.342
11/26/2014  00:21:00      -86.466      -32.394      -17.977       18.057       19.042       11.973      326.058      362.599      143.365        0.484        0.042       92.335       10.095        0.012      334.549        4.596      872.335
11/26/2014  00:22:00      -86.354      -31.086      -17.503       22.859       28.061       14.599      522.515      787.401      213.131        0.513        0.076       91.778       11.706        0.016      334.615        4.704      872.332
11/26/2014  00:23:00     -112.060      -20.814      -22.004       16.643       23.725       12.842      276.980      562.876      164.916        0.724        0.050      113.976       13.649        0.014      334.612        4.700      872.330
11/26/2014  00:24:00      -96.632      -20.756      -18.103       16.414       21.368       13.260      269.410      456.591      175.840        0.550        0.045       98.836        8.970        0.008      334.596        4.672      872.330
11/26/2014  00:25:00      -92.506       -7.684      -19.921       18.985       14.718       12.759      360.420      216.613      162.791        0.488        0.037       92.825        9.672        0.011      334.623        4.717      872.332
11/26/2014  00:26:00      -92.071       -4.016      -17.601       18.634        9.576       10.281      347.237       91.701      105.690        0.467        0.027       92.159        7.457        0.007      334.725        4.886      872.323
11/26/2014  00:27:00      -94.416      -18.233      -15.505       11.363       13.382       10.324      129.112      179.069      106.594        0.495        0.021       96.160        6.786        0.005      334.761        4.947      872.308
11/26/2014  00:28:00      -75.676      -38.743      -11.448       11.895       10.550        9.800      141.480      111.307       96.030        0.385        0.017       85.017        6.871        0.007      334.617        4.705      872.279
11/26/2014  00:29:00      -68.446      -38.479      -12.948       12.510       15.227        9.971      156.490      231.865       99.422        0.341        0.024       78.520        7.247        0.009      334.582        4.649      872.250
11/26/2014  00:30:00      -64.636      -39.874      -11.962       25.208       16.304       12.009      635.459      265.823      144.205        0.348        0.052       75.946        9.678        0.016      334.561        4.614      872.239
11/26/2014  00:31:00        3.275      -40.358       -6.950       13.551       10.420        8.733      183.642      108.568       76.258        0.103        0.018       40.490        4.731        0.014      334.604        4.686      872.224
11/26/2014  00:32:00      -12.080      -29.966       -1.552        9.856        8.986        8.825       97.143       80.751       77.878        0.065        0.013       32.310        3.909        0.015      334.783        4.982      872.210
11/26/2014  00:33:00       -2.512      -14.089        1.018       15.382       20.294       13.280      236.594      411.857      176.366        0.052        0.041       14.311       11.013        0.592      334.571        4.631      872.202
11/26/2014  00:34:00      -15.077      -23.873        3.128       26.828       14.205       13.061      719.732      201.775      170.578        0.095        0.055       28.235       10.770        0.145      334.422        4.385      872.203
11/26/2014  00:35:00      -69.622      -30.094       -5.618       23.207       15.671       13.989      538.550      245.581      195.694        0.338        0.049       75.848       12.897        0.029      334.269        4.131      872.210
11/26/2014  00:36:00     -100.946      -42.944      -12.473       20.266       21.977       12.420      410.717      483.008      154.253        0.662        0.052      109.700        9.622        0.008      334.264        4.123      872.203
11/26/2014  00:37:00     -118.395      -24.488      -17.704       18.209       16.775       10.187      331.582      281.412      103.771        0.782        0.036      120.901        9.366        0.006      334.290        4.166      872.196
11/26/2014  00:38:00      -90.182      -11.884      -17.121       18.330       13.997       11.450      335.987      195.907      131.113        0.461        0.033       90.962       10.533        0.013      334.266        4.125      872.184
11/26/2014  00:39:00      -87.315      -30.564      -11.724       14.375       15.512       11.325      206.650      240.616      128.266        0.464        0.029       92.510        4.234        0.002      334.248        4.095      872.166
11/26/2014  00:40:00     -115.654      -25.604      -13.070       17.775       16.341       12.427      315.949      267.013      154.424        0.747        0.037      118.454        9.618        0.007      334.240        4.083      872.164
11/26/2014  00:41:00     -135.722      -32.160      -21.658       17.407       15.119       14.652      303.002      228.582      214.677        1.033        0.037      139.480        8.136        0.003      334.242        4.086      872.176
11/26/2014  00:42:00     -111.917      -28.897      -19.443       18.547       14.928       10.006      343.977      222.857      100.130        0.720        0.033      115.587        4.448        0.001      334.304        4.190      872.184
11/26/2014  00:43:00      -98.995      -37.319      -10.814       20.978       12.821       14.616      440.087      164.380      213.616        0.606        0.041      105.796       14.801        0.020      334.324        4.223      872.195
11/26/2014  00:44:00     -131.326      -22.683      -15.843       19.961       11.024        9.015      398.425      121.518       81.266        0.931        0.030      133.270        5.925        0.002      334.327        4.227      872.194
11/26/2014  00:45:00     -133.736      -27.469      -13.226       12.774       18.198       10.001      163.170      331.173      100.024        0.970        0.030      136.527        7.751        0.003      334.340        4.248      872.187
11/26/2014  00:46:00      -95.804      -40.432      -11.556       14.256       21.604       12.923      203.246      466.730      167.013        0.589        0.042      103.986        8.354        0.006      334.321        4.218      872.178
11/26/2014  00:47:00     -108.516      -17.894      -17.532       22.329       16.707       11.980      498.563      279.131      143.520        0.666        0.046      109.981       13.250        0.015      334.353        4.270      872.182
11/26/2014  00:48:00     -115.180      -15.674      -20.791       17.578       11.277       11.544      308.975      127.171      133.272        0.726        0.028      116.241        5.835        0.003      334.345        4.257      872.185
11/26/2014  00:49:00      -73.107      -13.088      -19.110       20.982       16.777        9.863      440.232      281.481       97.276        0.335        0.041       74.269        7.258        0.010      334.295        4.174      872.182
11/26/2014  00:50:00      -75.685      -25.897      -14.535       16.931        8.845        6.306      286.666       78.232       39.762        0.351        0.020       79.993        3.050        0.001      334.314        4.205      872.176
11/26/2014  00:51:00     -100.268      -22.049      -17.417       10.671       10.099        6.807      113.875      101.984       46.335        0.555        0.013      102.663        2.072        0.000      334.198        4.013      872.178
11/26/2014  00:52:00     -101.604      -11.640      -16.804       22.861       14.924       11.363      522.615      222.725      129.120        0.581        0.044      102.268        7.025        0.005      334.131        3.901      872.177
11/26/2014  00:53:00      -83.925      -16.544      -20.932       19.759       17.025       12.192      390.412      289.863      148.650        0.429        0.041       85.540       10.409        0.015      334.146        3.926      872.190
11/26/2014  00:54:00      -96.712      -20.809      -20.712       14.362       12.926        9.556      206.258      167.075       91.324        0.534        0.023       98.925        4.450        0.002      334.170        3.966      872.213
11/26/2014  00:55:00     -128.761      -19.668      -17.016       14.013       15.913        7.538      196.363      253.230       56.824        0.888        0.025      130.255        8.190        0.004      334.065        3.792      872.233
11/26/2014  00:56:00      -78.451      -40.356      -10.431       31.584       25.164       18.892      997.550      633.235      356.913        0.494        0.099       88.222       19.887        0.051      334.045        3.759      872.229
11/26/2014  00:57:00      -66.595      -32.797      -16.926       22.927       15.597       17.951      525.653      243.254      322.252        0.344        0.055       74.233       15.524        0.044      334.061        3.785      872.218
11/26/2014  00:58:00      -66.693      -15.866      -20.494       11.692       13.885        9.575      136.702      192.798       91.678        0.277        0.021       68.554        6.701        0.010      334.164        3.956      872.200
11/26/2014  00:59:00      -90.029      -13.655      -18.001       28.683       13.437        9.938      822.721      180.553       98.759        0.486        0.055       91.058        3.818        0.002      334.103        3.854      872.197
11/26/2014  01:00:00     -103.904      -25.135      -20.367       14.380       15.969       10.796      206.779      255.024      116.549        0.621        0.029      106.901        8.567        0.006      334.028        3.732      872.210
11/26/2014  01:01:00     -118.048      -54.444      -17.745       20.112       15.997       12.234      404.509      255.898      149.661        0.901        0.041      129.998        5.380        0.002      334.057        3.779      872.217
11/26/2014  01:02:00     -129.709      -44.868      -21.701       14.349       14.580       11.481      205.891      212.573      131.817        0.993        0.028      137.251        7.683        0.003      334.050        3.767      872.220
11/26/2014  01:03:00     -120.130      -29.343      -19.467       12.786       16.893        9.601      163.477      285.373       92.184        0.811        0.027      123.662        6.977        0.003      334.109        3.864      872.207
11/26/2014  01:04:00     -121.643       -8.960      -15.143       17.196       11.328        9.967      295.716      128.322       99.344        0.781        0.026      121.973        6.607        0.003      334.106        3.859      872.208
11/26/2014  01:05:00     -142.433      -15.405      -21.762       14.383       11.683        9.687      206.867      136.501       93.839        1.072        0.022      143.264        8.284        0.003      334.175        3.975      872.225
11/26/2014  01:06:00     -117.385      -23.739      -13.492       10.850       14.804       10.242      117.728      219.166      104.896        0.748        0.022      119.762        7.425        0.004      334.117        3.878      872.237
11/26/2014  01:07:00      -94.741        4.475      -23.502        9.593       10.903        8.240       92.034      118.868       67.895        0.491        0.014       94.847        2.655        0.001      334.268        4.129      872.239
11/26/2014  01:08:00      -63.906       -5.321      -15.023        9.271        9.126        8.080       85.956       83.278       65.281        0.229        0.012       64.127        4.053        0.004      334.250        4.099      872.218
11/26/2014  01:09:00      -53.553      -12.078       -3.132       30.927       17.968        7.543      956.490      322.832       56.897        0.218        0.067       54.898        5.983        0.012      334.423        4.385      872.203
11/26/2014  01:10:00      -63.325      -20.336      -13.363       12.840        9.700       11.222      164.858       94.089      125.940        0.249        0.019       66.511        5.704        0.007      334.525        4.556      872.202
11/26/2014  01:11:00      -79.667      -33.556      -11.561       12.489        7.745        7.847      155.988       59.987       61.569        0.394        0.014       86.446        7.472        0.007      334.178        3.979      872.217
11/26/2014  01:12:00      -85.038      -45.214      -11.237        9.741       11.244        6.482       94.893      126.435       42.019        0.483        0.013       96.310        5.539        0.003      334.192        4.002      872.224
11/26/2014  01:13:00     -113.802      -40.294      -10.459       17.307       13.441        7.727      299.519      180.659       59.712        0.761        0.027      120.725        9.798        0.007      334.196        4.010      872.227
11/26/2014  01:14:00     -120.748      -12.288      -12.863       20.288       19.404       16.820      411.588      376.503      282.903        0.798        0.054      121.371       13.135        0.012      334.159        3.946      872.222
11/26/2014  01:15:00     -139.030       -7.129      -13.984       30.235       19.807       21.057      914.163      392.304      443.404        1.066        0.087      139.213       20.249        0.021      334.038        3.747      872.221
11/26/2014  01:16:00     -157.113       15.488      -18.592       31.545       22.374       21.075      995.094      500.597      444.159        1.360        0.097      157.875       17.426        0.012      334.151        3.934      872.218
11/26/2014  01:17:00     -126.704       10.852      -13.403       18.335       13.615       15.446      336.162      185.356      238.582        0.856        0.038      127.168        8.025        0.004      334.244        4.090      872.213
11/26/2014  01:18:00     -125.521        4.084      -17.996       22.024       13.134       13.373      485.067      172.490      178.831        0.847        0.042      125.588        9.591        0.006      334.283        4.154      872.211
11/26/2014  01:19:00     -119.142       -1.965      -14.649       23.158       19.445       11.776      536.272      378.091      138.671        0.773        0.053      119.158       11.688        0.010      334.123        3.888      872.211
11/26/2014  01:20:00      -97.162        2.870       -7.157       31.981       23.581       18.663     1022.792      556.070      348.292        0.571        0.096       97.205       18.420        0.036      334.421        4.383      872.209
11/26/2014  01:21:00      -78.136       -4.123      -10.125       23.239       17.365       11.451      540.060      301.531      131.130        0.360        0.049       78.245       12.512        0.026      334.604        4.686      872.211
11/26/2014  01:22:00      -58.553      -17.637      -11.986        9.711        8.607        6.788       94.313       74.085       46.078        0.205        0.011       61.152        5.092        0.007      334.581        4.648      872.212
11/26/2014  01:23:00      -56.491      -29.581      -18.350       14.656       15.434        8.783      214.792      238.194       77.145        0.247        0.027       63.767        3.837        0.004      334.341        4.251      872.232
11/26/2014  01:24:00     -108.393      -23.804      -12.605       19.485       19.981       11.783      379.657      399.226      138.834        0.670        0.046      110.976        7.417        0.004      334.272        4.135      872.239
11/26/2014  01:25:00     -115.101       -7.749      -21.602       12.242       18.235        7.994      149.871      332.529       63.898        0.716        0.027      115.361        5.546        0.002      334.298        4.180      872.237
11/26/2014  01:26:00      -91.037      -12.047       -9.214       16.471       19.245       11.180      271.307      370.386      124.996        0.464        0.038       91.831       10.096        0.012      334.173        3.971      872.222
11/26/2014  01:27:00      -72.382      -15.661       -7.824       24.316       21.180        9.943      591.265      448.593       98.864        0.334        0.057       74.057       10.754        0.021      334.105        3.857      872.214
11/26/2014  01:28:00      -50.387       -7.467       -9.106       19.963       18.056        9.703      398.505      326.019       94.152        0.175        0.041       50.937        6.432        0.016      334.356        4.275      872.209
11/26/2014  01:29:00      -67.463      -22.467      -16.442       12.205       12.569        8.440      148.974      157.990       71.238        0.285        0.019       71.106        7.647        0.012      334.122        3.887      872.204
11/26/2014  01:30:00      -45.274      -10.215      -11.536       13.367        9.019        7.653      178.670       81.335       58.571        0.130        0.016       46.412        6.680        0.021      334.183        3.987      872.198
11/26/2014  01:31:00        0.610        2.352       -2.458       18.148       10.499        8.544      329.351      110.232       73.000        0.026        0.026        2.430       10.528       18.770      334.781        4.979      872.198
11/26/2014  01:32:00       -3.546        9.964       -0.277       11.373       15.622        6.040      129.353      244.042       36.486        0.026        0.020       10.576        5.582        0.279      334.876        5.136      872.185
11/26/2014  01:33:00      -46.946      -42.743      -11.988       16.632       16.037       15.515      276.626      257.176      240.721        0.247        0.039       63.489       14.151        0.050      334.138        3.913      872.162
11/26/2014  01:34:00      -77.315      -29.317      -16.275       12.783        9.376        9.933      163.405       87.917       98.674        0.373        0.017       82.687        6.947        0.007      334.064        3.790      872.141
11/26/2014  01:35:00     -102.714       -1.772      -14.827       15.271       13.147       11.511      233.198      172.853      132.495        0.566        0.027      102.730        8.638        0.007      333.978        3.649      872.142
11/26/2014  01:36:00      -82.156        3.107      -17.327       14.133        8.145        7.170      199.736       66.342       51.416        0.369        0.016       82.215        4.893        0.004      334.211        4.035      872.143
11/26/2014  01:37:00      -59.873      -14.899      -11.297       12.720       12.500        6.969      161.810      156.242       48.561        0.215        0.018       61.699        3.948        0.004      334.392        4.334      872.138
11/26/2014  01:38:00      -40.062      -13.386        0.185        9.792        8.219        8.440       95.880       67.552       71.238        0.101        0.012       42.239        4.572        0.012      334.395        4.338      872.131
11/26/2014  01:39:00      -57.700      -19.520       -9.024       13.419       11.193        9.080      180.078      125.284       82.444        0.209        0.019       60.913        6.094        0.010      334.045        3.761      872.133
11/26/2014  01:40:00      -59.926      -26.539      -13.217       17.054       11.774        8.291      290.830      138.616       68.741        0.248        0.025       65.540        5.978        0.008      333.937        3.580      872.131
11/26/2014  01:41:00      -36.940       -8.411       -8.685       11.881       12.420        9.622      141.155      154.246       92.587        0.095        0.019       37.885        8.178        0.047      334.469        4.463      872.115
11/26/2014  01:42:00       -7.687       31.959       -5.988        9.737       12.623        8.489       94.806      159.340       72.061        0.072        0.016       32.871        8.583        0.068      335.014        5.367      872.106
11/26/2014  01:43:00       -4.639       35.371        0.473        7.728        7.210        7.380       59.716       51.990       54.457        0.072        0.008       35.674        3.055        0.007      335.107        5.523      872.107
11/26/2014  01:44:00       -6.542       25.460       -2.824        8.894       14.851        5.164       79.111      220.553       26.670        0.051        0.016       26.287        6.685        0.065      335.155        5.600      872.114
11/26/2014  01:45:00      -33.717       -6.404       -3.783       21.367       10.332        7.207      456.533      106.743       51.943        0.090        0.031       34.320        7.311        0.045      334.687        4.825      872.126
11/26/2014  01:46:00      -39.054      -16.015       -9.373       13.655       18.564        6.882      186.463      344.619       47.360        0.122        0.029       42.210        6.494        0.024      334.510        4.529      872.149
11/26/2014  01:47:00      -10.764       -8.008        1.049       11.129       17.610       11.839      123.847      310.108      140.151        0.038        0.029       13.416        9.396        0.490      334.959        5.275      872.153
11/26/2014  01:48:00       -6.527        9.228       -6.182       16.223       14.220       10.540      263.186      202.216      111.087        0.037        0.029       11.303        9.196        0.662      335.107        5.521      872.161
11/26/2014  01:49:00       -6.403       12.828       -6.471       14.532       15.128       13.504      211.179      228.842      182.358        0.043        0.031       14.337       12.509        0.761      335.147        5.587      872.172
11/26/2014  01:50:00      -32.271      -17.472       -5.732       28.664       24.060       13.312      821.615      578.893      177.218        0.148        0.079       36.698       11.662        0.101      334.628        4.726      872.181
11/26/2014  01:51:00      -71.227      -31.295      -12.001        9.479        9.059        6.813       89.854       82.065       46.418        0.321        0.011       77.799        2.610        0.001      333.982        3.655      872.189
11/26/2014  01:52:00      -56.963       -6.921      -19.520       18.005        7.484        9.967      324.189       56.015       99.343        0.208        0.024       57.382       10.501        0.033      334.476        4.474      872.188
11/26/2014  01:53:00      -15.430      -15.930       -0.615       16.146       10.705        8.438      260.693      114.606       71.192        0.047        0.022       22.178        6.719        0.092      334.631        4.732      872.184
11/26/2014  01:54:00      -10.361      -12.000       -2.147       20.075       17.564        7.873      403.012      308.509       61.982        0.051        0.039       15.855       11.278        0.506      334.740        4.912      872.176
11/26/2014  01:55:00      -77.511      -28.887      -14.769       21.207       20.241        9.349      449.746      409.712       87.396        0.400        0.047       82.719        3.800        0.002      333.945        3.593      872.193
11/26/2014  01:56:00     -123.525      -18.752      -17.304       17.685       12.405       11.219      312.742      153.883      125.856        0.825        0.030      124.940        5.969        0.002      333.819        3.384      872.194
11/26/2014  01:57:00      -90.490      -33.977      -13.478       10.028       16.404       11.538      100.556      269.094      133.129        0.501        0.025       96.659       10.604        0.012      333.879        3.483      872.204
11/26/2014  01:58:00     -102.958       -0.969      -15.664       19.444       21.334       11.067      378.077      455.121      122.483        0.590        0.048      102.962        9.028        0.008      333.937        3.578      872.217
11/26/2014  01:59:00     -105.963      -28.013      -16.867       19.705       17.320       12.336      388.279      299.979      152.188        0.657        0.042      109.603       12.729        0.013      333.931        3.569      872.218
11/26/2014  02:00:00     -108.880      -13.847      -18.728       14.622       11.010       11.157      213.795      121.216      124.485        0.643        0.023      109.757        5.677        0.003      333.867        3.465      872.212
11/26/2014  02:01:00     -113.493      -25.025      -13.682       18.480       13.943        9.997      341.522      194.414       99.944        0.716        0.032      116.219        8.831        0.006      333.854        3.443      872.201
11/26/2014  02:02:00     -121.325      -20.099      -18.997       14.098       12.644       10.940      198.752      159.861      119.690        0.798        0.024      122.979        7.087        0.003      334.021        3.718      872.183
11/26/2014  02:03:00     -111.133      -12.332      -15.127       18.516       14.090       16.468      342.853      198.539      271.209        0.677        0.041      111.815       12.613        0.013      334.109        3.865      872.164
11/26/2014  02:04:00     -133.175      -24.094      -16.013       26.895       27.207       16.219      723.315      740.202      263.059        1.015        0.086      135.337       15.379        0.013      334.044        3.758      872.165
11/26/2014  02:05:00     -129.847      -30.071       -8.286       23.376       20.947       16.320      546.439      438.777      266.357        0.954        0.063      133.284       15.535        0.014      333.770        3.303      872.177
11/26/2014  02:06:00     -130.736      -28.929      -11.474       20.752       11.876       13.107      430.627      141.046      171.789        0.940        0.037      133.899       12.228        0.008      333.943        3.589      872.188
11/26/2014  02:07:00     -152.329      -23.489      -16.093       19.921       12.360        9.935      396.846      152.778       98.706        1.233        0.032      154.129        6.923        0.002      333.892        3.505      872.203
11/26/2014  02:08:00     -135.381      -24.499      -26.484       13.885       15.802       12.700      192.789      249.701      161.297        1.012        0.030      137.580        3.884        0.001      333.749        3.268      872.220
11/26/2014  02:09:00      -95.301      -48.661      -22.657       21.723       17.030       11.921      471.867      290.006      142.104        0.643        0.045      107.005       11.751        0.012      333.683        3.160      872.224
11/26/2014  02:10:00      -78.428      -54.700       -3.734       41.774       29.081       21.119     1745.065      845.708      446.022        0.610        0.152       95.619       26.631        0.078      333.561        2.957      872.222
11/26/2014  02:11:00      -66.001      -43.697        5.906       39.815       27.824       17.256     1585.232      774.191      297.760        0.448        0.133       79.155       19.196        0.059      333.503        2.859      872.212
11/26/2014  02:12:00      -69.853      -14.964        1.188       37.486       27.010       16.853     1405.220      729.555      284.029        0.376        0.121       71.438       18.329        0.066      333.661        3.123      872.195
11/26/2014  02:13:00     -100.383       -2.827       -9.863       51.496       27.515       19.075     2651.829      757.066      363.841        0.698        0.189      100.423       22.733        0.051      333.909        3.534      872.183
11/26/2014  02:14:00     -135.295       15.777      -14.506       39.869       41.824       23.494     1589.519     1749.287      551.969        1.133        0.195      136.212       17.485        0.016      333.908        3.532      872.182
11/26/2014  02:15:00     -128.128       33.548      -13.774       45.857       27.626       19.770     2102.841      763.199      390.855        1.049        0.163      132.448       15.400        0.014      333.887        3.496      872.169
11/26/2014  02:16:00      -94.137       33.056       -5.898       49.146       30.277       23.991     2415.292      916.694      575.577        0.695        0.195       99.772       16.038        0.026      333.963        3.623      872.144
11/26/2014  02:17:00      -47.289      -27.820       -5.062       21.569       22.484       13.079      465.231      505.508      171.056        0.209        0.057       54.865        8.121        0.022      333.828        3.400      872.130
11/26/2014  02:18:00      -72.833      -30.846      -20.590       23.309       16.583       13.780      543.288      274.998      189.901        0.384        0.050       79.096        7.111        0.008      333.697        3.182      872.138
11/26/2014  02:19:00      -95.658      -57.468      -17.910       28.103       24.995       15.872      789.783      624.734      251.917        0.722        0.083      111.593        9.509        0.007      333.548        2.934      872.157
11/26/2014  02:20:00      -90.783      -47.216      -11.399       44.521       32.560       27.211     1982.120     1060.149      740.435        0.719        0.189      102.327       26.700        0.068      333.469        2.803      872.159
11/26/2014  02:21:00     -107.224      -39.232        4.724       39.940       43.997       26.987     1595.206     1935.712      728.281        0.866        0.213      114.176       20.301        0.032      333.603        3.026      872.147
11/26/2014  02:22:00      -75.623       -2.478       -7.411       39.628       38.955       22.545     1570.395     1517.476      508.268        0.469        0.180       75.664       20.605        0.074      333.956        3.612      872.135
11/26/2014  02:23:00      -39.521       -9.268        8.422       41.670       39.447       26.008     1736.402     1556.033      676.394        0.284        0.198       40.593       25.764        0.403      333.912        3.539      872.141
11/26/2014  02:24:00      -66.963      -24.626       -3.838       39.538       30.644       18.637     1563.270      939.074      347.355        0.398        0.142       71.348       19.112        0.072      333.862        3.455      872.157
11/26/2014  02:25:00      -61.590      -41.719       -2.730       39.584       24.053       18.225     1566.925      578.534      332.162        0.401        0.124       74.390       18.461        0.062      333.735        3.245      872.152
11/26/2014  02:26:00      -87.586      -36.113       -5.623       19.046       27.251       15.231      362.751      742.631      231.988        0.517        0.067       94.739        9.594        0.010      333.700        3.186      872.145
11/26/2014  02:27:00      -92.797      -23.311      -14.017       25.267       23.023       16.264      638.423      530.041      264.507        0.539        0.072       95.681       14.263        0.022      333.676        3.147      872.141
11/26/2014  02:28:00      -86.617      -42.964      -16.578       16.815       18.042       10.560      282.748      325.498      111.513        0.517        0.036       96.687        2.208        0.001      333.584        2.994      872.132
11/26/2014  02:29:00      -37.986      -39.639      -15.659       32.371       21.749       19.417     1047.867      472.999      377.026        0.258        0.095       54.902       13.460        0.060      333.700        3.188      872.127
11/26/2014  02:30:00      -41.959      -44.146       -3.906       32.970       30.161       18.476     1087.052      909.663      341.367        0.303        0.117       60.905       21.444        0.124      333.660        3.122      872.118
11/26/2014  02:31:00      -63.478      -33.530      -16.161       17.114       28.250       16.842      292.894      798.046      283.656        0.339        0.069       71.789       14.105        0.039      333.687        3.166      872.111
11/26/2014  02:32:00      -79.170      -12.771       -9.660       29.161       33.154       15.372      850.365     1099.161      236.311        0.435        0.109       80.194       12.714        0.025      333.690        3.169      872.107
11/26/2014  02:33:00      -78.685      -47.856      -12.050       32.761       23.548       15.518     1073.265      554.488      240.816        0.525        0.093       92.095       16.931        0.034      333.691        3.170      872.111
11/26/2014  02:34:00      -60.992      -42.932        0.151       47.476       35.842       18.829     2253.937     1284.673      354.548        0.473        0.195       74.587       16.122        0.047      333.814        3.376      872.122
11/26/2014  02:35:00      -17.546      -38.671        2.890       27.346       21.760       18.239      747.816      473.479      332.643        0.168        0.078       42.466       11.023        0.067      333.886        3.495      872.140
11/26/2014  02:36:00     -132.126      -38.436      -19.455       20.168       11.182       10.593      406.746      125.046      112.215        0.998        0.032      137.603        9.728        0.005      333.888        3.498      872.162
11/26/2014  02:37:00     -128.854      -45.076      -11.280       14.943       14.103        8.227      223.297      198.893       67.689        0.963        0.024      136.511        8.719        0.004      333.677        3.149      872.184
11/26/2014  02:38:00     -108.080      -30.193       -5.250       18.353        8.409        8.461      336.829       70.705       71.583        0.655        0.024      112.218        9.081        0.007      333.706        3.198      872.174
11/26/2014  02:39:00      -74.969      -37.329       -1.441       14.246       12.416       10.730      202.949      154.165      115.133        0.374        0.024       83.748        9.345        0.012      333.901        3.522      872.160
11/26/2014  02:40:00      -90.965      -29.781      -11.774       16.568       11.784        8.687      274.491      138.867       75.467        0.489        0.024       95.715        7.720        0.007      334.011        3.703      872.150
11/26/2014  02:41:00      -99.065      -15.439      -10.751       24.968       15.502       12.270      623.400      240.318      150.557        0.559        0.051      100.261       12.303        0.015      333.778        3.316      872.146
11/26/2014  02:42:00      -71.251      -27.108       -0.851       13.973       12.712       10.054      195.247      161.591      101.091        0.314        0.023       76.234        6.303        0.007      333.724        3.226      872.142
11/26/2014  02:43:00      -78.268      -19.379      -10.138       12.411        9.897        6.644      154.023       97.955       44.139        0.345        0.015       80.632        6.302        0.006      333.850        3.435      872.138
11/26/2014  02:44:00     -100.149      -18.630      -13.458       17.506       11.397       11.229      306.456      129.883      126.086        0.556        0.028      101.867        6.969        0.005      333.730        3.236      872.141
11/26/2014  02:45:00     -122.321      -32.006      -11.145       25.853       18.321       13.538      668.366      335.676      183.276        0.865        0.059      126.439       12.011        0.009      333.718        3.217      872.142
11/26/2014  02:46:00     -130.775      -27.493      -13.773       28.945       20.417       15.890      837.805      416.838      252.498        0.978        0.075      133.633       14.781        0.012      333.726        3.229      872.159
11/26/2014  02:47:00     -125.759       -0.682      -16.834       30.472       17.906       15.137      928.559      320.631      229.117        0.879        0.074      125.761       12.759        0.010      333.714        3.208      872.181
11/26/2014  02:48:00     -113.965       -2.164      -14.249       21.261       11.464       13.179      452.049      131.412      173.684        0.698        0.038      113.986       12.558        0.012      333.833        3.407      872.186
11/26/2014  02:49:00      -95.034        5.592      -22.153       19.251       12.569       16.409      370.587      157.971      269.252        0.518        0.040       95.198       12.078        0.016      333.849        3.433      872.190
11/26/2014  02:50:00      -85.955      -17.167       -6.528       22.820       21.604       16.373      520.766      466.715      268.076        0.449        0.063       87.652       15.138        0.030      333.645        3.096      872.190
11/26/2014  02:51:00      -92.141      -30.646       -2.827       27.484       20.824       16.114      755.365      433.654      259.651        0.544        0.072       97.104       17.004        0.031      333.590        3.004      872.192
11/26/2014  02:52:00     -105.507      -26.837      -13.344       17.175       16.036       15.639      294.995      257.153      244.571        0.641        0.040      108.866       12.947        0.014      333.802        3.357      872.199
11/26/2014  02:53:00     -112.444      -21.867       -6.210       23.504       15.273       13.905      552.424      233.259      193.355        0.707        0.049      114.550       13.279        0.013      333.723        3.224      872.200
11/26/2014  02:54:00      -99.445      -29.799      -11.893       23.857       20.419       17.241      569.146      416.931      297.258        0.610        0.064      103.814       11.689        0.013      333.615        3.046      872.194
11/26/2014  02:55:00      -52.228      -23.569       -6.410       38.764       22.441       16.840     1502.636      503.581      283.585        0.281        0.114       57.300       19.694        0.118      333.923        3.557      872.179
11/26/2014  02:56:00      -54.288      -14.487       -8.396       27.212       20.465       12.406      740.470      418.803      153.912        0.227        0.066       56.188       10.695        0.036      333.828        3.400      872.174
11/26/2014  02:57:00      -89.452        1.088       -7.610       35.563       31.105       16.640     1264.693      967.544      276.905        0.528        0.125       89.459       17.018        0.036      333.801        3.355      872.188
11/26/2014  02:58:00      -46.553      -20.316       11.988       41.315       40.908       28.054     1706.933     1673.500      787.036        0.344        0.208       50.793       20.421        0.162      333.643        3.093      872.201
11/26/2014  02:59:00      -72.276      -24.548       -1.466       38.176       32.749       22.269     1457.427     1072.521      495.921        0.443        0.151       76.331       17.486        0.052      333.583        2.992      872.197
11/26/2014  03:00:00      -78.386      -27.505       -7.712       33.619       30.937       18.801     1130.223      957.079      353.477        0.470        0.122       83.072       15.302        0.034      333.385        2.666      872.184
11/26/2014  03:01:00      -81.670      -27.508      -15.551       21.344       26.088       18.613      455.557      680.585      346.428        0.458        0.074       86.178        8.062        0.009      333.387        2.667      872.182
11/26/2014  03:02:00      -58.330      -35.248      -10.112       43.615       25.362       20.685     1902.258      643.234      427.865        0.386        0.149       68.153       21.913        0.103      333.368        2.638      872.180
11/26/2014  03:03:00      -38.924      -17.206       -4.441       23.669       15.260       21.161      560.215      232.863      447.773        0.154        0.062       42.557       16.923        0.158      333.412        2.707      872.167
11/26/2014  03:04:00      -59.643      -17.341      -11.131       16.603       11.767       11.060      275.674      138.452      122.314        0.226        0.027       62.112        4.481        0.005      333.636        3.081      872.147
11/26/2014  03:05:00      -42.282      -25.646      -17.350       16.714       19.318       13.340      279.374      373.179      177.958        0.179        0.042       49.452        9.818        0.039      333.913        3.539      872.147
11/26/2014  03:06:00      -77.176      -27.225      -18.006       15.813       13.621       10.826      250.063      185.537      117.193        0.379        0.028       81.837        6.740        0.007      333.547        2.933      872.155
11/26/2014  03:07:00      -49.012      -28.213      -10.104       22.659       14.166       10.576      513.424      200.666      111.854        0.206        0.041       56.552        3.703        0.004      333.619        3.054      872.168
11/26/2014  03:08:00      -41.585      -41.320      -12.726       23.511       13.822       13.700      552.778      191.061      187.693        0.226        0.047       58.623        9.919        0.029      333.611        3.039      872.183
11/26/2014  03:09:00      -44.788      -23.705      -17.039       20.523       14.936       13.565      421.184      223.073      183.999        0.184        0.041       50.674        7.279        0.021      333.481        2.823      872.182
11/26/2014  03:10:00      -51.631      -21.042      -16.822       14.527       11.955       10.661      211.032      142.929      113.662        0.193        0.023       55.754        6.610        0.014      333.502        2.857      872.160
11/26/2014  03:11:00      -21.739      -22.208        2.358       12.373        9.468        9.957      153.085       89.645       99.134        0.066        0.017       31.077        7.220        0.054      333.983        3.656      872.137
11/26/2014  03:12:00      -60.311      -35.276      -10.205       24.145       10.729        9.623      582.979      115.117       92.593        0.289        0.040       69.869        5.928        0.007      333.553        2.943      872.145
11/26/2014  03:13:00     -103.741      -27.639      -19.711       10.302       10.653        7.758      106.130      113.481       60.190        0.610        0.014      107.360        3.616        0.001      333.342        2.594      872.148
11/26/2014  03:14:00      -89.248      -18.961      -19.444       16.466       14.383        9.646      271.118      206.865       93.042        0.464        0.029       91.240        7.597        0.007      333.394        2.679      872.141
11/26/2014  03:15:00      -97.284       -0.408      -20.455       25.024       17.644       13.195      626.202      311.297      174.110        0.550        0.056       97.285       12.249        0.016      333.494        2.845      872.125
11/26/2014  03:16:00      -91.011      -11.848      -13.954       14.220       14.897       11.519      202.210      221.924      132.693        0.459        0.028       91.779        8.540        0.009      333.402        2.692      872.115
11/26/2014  03:17:00      -78.734      -13.662      -20.252        8.988       12.095        9.700       80.784      146.282       94.089        0.356        0.016       79.911        6.985        0.008      333.355        2.614      872.114
11/26/2014  03:18:00      -66.770      -20.991      -10.417       13.037       11.567        7.451      169.971      133.804       55.511        0.268        0.018       69.992        5.648        0.007      333.523        2.893      872.096
11/26/2014  03:19:00      -67.431      -31.861      -13.945       13.682       12.827       10.489      187.209      164.520      110.011        0.311        0.023       74.579        8.719        0.014      333.562        2.959      872.088
11/26/2014  03:20:00     -120.021      -30.944      -16.681       19.273       22.884       14.674      371.465      523.666      215.317        0.838        0.056      123.946        8.440        0.005      333.267        2.470      872.087
11/26/2014  03:21:00      -81.734      -25.108       -7.624       21.803       28.299       16.817      475.353      800.856      282.822        0.446        0.078       85.504       10.769        0.016      333.216        2.385      872.085
11/26/2014  03:22:00      -44.109      -15.182       -9.405       34.332       21.874       12.754     1178.673      478.451      162.665        0.204        0.091       46.649       11.856        0.065      333.242        2.428      872.077
11/26/2014  03:23:00      -86.140      -24.080      -18.163       19.420       20.379       16.070      377.149      415.284      258.240        0.469        0.053       89.443        9.409        0.011      333.150        2.277      872.089
11/26/2014  03:24:00      -99.199      -39.839      -15.215       21.169       24.427       14.064      448.139      596.697      197.801        0.645        0.062      106.900        8.751        0.007      333.131        2.245      872.094
11/26/2014  03:25:00      -63.963      -31.231       -4.108       26.530       21.131       15.101      703.863      446.540      228.051        0.323        0.069       71.181       14.584        0.042      333.157        2.287      872.087
11/26/2014  03:26:00      -70.144      -12.524      -11.592       20.184       18.561       14.171      407.411      344.521      200.815        0.308        0.048       71.253       12.531        0.031      333.258        2.454      872.076
11/26/2014  03:27:00      -63.805      -38.129       -8.822       21.490       19.954       15.683      461.840      398.151      245.960        0.335        0.055       74.329       11.483        0.024      333.270        2.474      872.066
11/26/2014  03:28:00     -110.201      -22.159      -16.410       14.558       11.473        8.961      211.927      131.636       80.305        0.666        0.021      112.407        4.795        0.002      333.287        2.502      872.066
11/26/2014  03:29:00      -84.149      -32.166      -14.933       11.493       11.036        6.312      132.090      121.801       39.835        0.432        0.015       90.087        4.764        0.003      333.426        2.730      872.067
11/26/2014  03:30:00      -79.760      -36.261       -9.792        7.595        6.454        5.911       57.686       41.660       34.941        0.395        0.007       87.616        4.004        0.002      333.414        2.712      872.076
11/26/2014  03:31:00      -90.476      -34.472      -12.109       13.584        9.304        7.201      184.513       86.561       51.855        0.492        0.016       96.820        5.389        0.003      333.430        2.739      872.086
11/26/2014  03:32:00     -108.506      -18.602      -15.002        9.140       14.506        6.966       83.543      210.437       48.528        0.634        0.017      110.089        1.838        0.000      333.565        2.962      872.088
11/26/2014  03:33:00     -114.473      -16.701      -12.838       11.579       11.184       10.488      134.069      125.074      110.004        0.696        0.018      115.685        6.594        0.003      333.558        2.950      872.069
11/26/2014  03:34:00     -111.943      -10.016      -14.724       13.715        9.655        9.300      188.109       93.211       86.484        0.661        0.018      112.390        2.247        0.000      333.588        3.001      872.038
11/26/2014  03:35:00      -81.577      -10.939      -11.346       15.227       10.147        8.442      231.851      102.960       71.269        0.365        0.020       82.307        7.099        0.007      333.625        3.062      872.017
11/26/2014  03:36:00      -44.610      -12.762       -7.947        7.377        9.974        5.053       54.422       99.485       25.533        0.120        0.009       46.399        4.314        0.009      333.741        3.255      872.013
11/26/2014  03:37:00      -24.323      -23.205        0.327       16.320       14.562       12.682      266.327      212.038      160.822        0.088        0.032       33.617       11.081        0.109      333.694        3.177      872.029
11/26/2014  03:38:00      -87.944      -26.201      -13.568       22.500       15.141       10.138      506.244      229.236      102.789        0.472        0.042       91.765        3.691        0.002      333.380        2.657      872.029
11/26/2014  03:39:00     -104.434       -2.748      -17.245       14.201       17.008        9.667      201.660      289.263       93.456        0.590        0.029      104.470        6.562        0.004      333.377        2.650      872.020
11/26/2014  03:40:00      -63.215        8.857      -10.740       29.069       16.974       14.048      844.995      288.106      197.354        0.276        0.067       63.832       14.749        0.053      333.590        3.005      871.999
11/26/2014  03:41:00      -14.001       -1.521        1.646       13.897       21.392        9.693      193.116      457.611       93.946        0.047        0.037       14.084        7.236        0.264      333.642        3.091      871.990
11/26/2014  03:42:00        3.399      -10.585        0.502        5.448       11.051        4.047       29.683      122.114       16.381        0.015        0.008       11.117        2.874        0.067      333.871        3.471      871.986
11/26/2014  03:43:00        8.946       -6.073        2.670        5.744        7.314        3.587       32.995       53.495       12.865        0.011        0.005       10.813        2.938        0.074      333.987        3.663      871.986
11/26/2014  03:44:00       -2.206      -17.689       -0.403        5.767        7.279        5.082       33.255       52.987       25.822        0.021        0.006       17.826        3.223        0.033      333.810        3.369      871.979
11/26/2014  03:45:00       -4.745        6.452        3.797        7.990        6.575        5.538       63.845       43.235       30.665        0.011        0.007        8.009        4.938        0.380      333.812        3.372      871.977
11/26/2014  03:46:00      -10.258        8.459        0.869        7.695        6.150        4.033       59.206       37.823       16.267        0.015        0.006       13.296        3.057        0.053      333.913        3.539      871.970
11/26/2014  03:47:00      -26.263      -32.226       -8.120       10.722       12.233        8.713      114.965      149.656       75.911        0.107        0.017       41.572        5.370        0.017      333.527        2.899      871.968
11/26/2014  03:48:00      -55.423       -6.838       -9.094       12.486       12.156        5.895      155.903      147.759       34.748        0.177        0.017       55.844        4.302        0.006      333.575        2.981      871.958
11/26/2014  03:49:00      -20.520        2.751       -3.189        9.570        5.707        4.699       91.580       32.568       22.078        0.029        0.007       20.704        4.553        0.048      333.868        3.465      871.942
11/26/2014  03:50:00      -21.220       -1.307        1.319       10.376        6.670        5.951      107.663       44.490       35.411        0.032        0.009       21.260        5.528        0.068      333.696        3.181      871.923
11/26/2014  03:51:00      -26.483      -13.082       -7.943        9.384       11.028        6.816       88.064      121.625       46.460        0.060        0.013       29.538        5.775        0.038      333.476        2.815      871.922
11/26/2014  03:52:00      -28.943      -40.148      -11.074       15.729       16.710       14.072      247.387      279.239      198.009        0.165        0.036       49.493        4.007        0.007      333.218        2.389      871.929
11/26/2014  03:53:00      -71.259      -38.070       -8.595       16.716       16.336       12.081      279.417      266.849      145.948        0.365        0.035       80.791        6.067        0.006      333.163        2.298      871.943
11/26/2014  03:54:00      -91.039      -29.339      -11.083       25.402       25.718       15.546      645.273      661.408      241.678        0.541        0.077       95.650       12.849        0.018      333.039        2.093      871.948
11/26/2014  03:55:00      -97.354      -32.939      -14.573       32.424       24.744       13.022     1051.285      612.255      169.567        0.630        0.092      102.775       10.988        0.011      332.996        2.021      871.963
11/26/2014  03:56:00     -104.316      -44.820      -11.038       19.374       13.954       11.145      375.340      194.702      124.217        0.685        0.035      113.537        9.536        0.007      333.026        2.072      871.967
11/26/2014  03:57:00      -64.228      -11.327       -5.206       14.642       12.043       10.929      214.378      145.032      119.446        0.238        0.024       65.219        9.444        0.021      333.079        2.159      871.954
11/26/2014  03:58:00      -75.671        3.278       -8.330       10.406       13.361        9.739      108.289      178.528       94.856        0.309        0.019       75.742        5.744        0.006      333.355        2.614      871.936
11/26/2014  03:59:00      -84.291       -6.566      -17.207        9.050       10.874        8.597       81.900      118.234       73.909        0.386        0.014       84.547        6.626        0.006      333.309        2.538      871.935
11/26/2014  04:00:00      -80.877       -5.829      -11.177       17.256        7.122        9.736      297.766       50.721       94.798        0.357        0.022       81.086        8.569        0.011      333.313        2.547      871.939
11/26/2014  04:01:00      -36.157       -2.563       -4.475       18.383       14.265       10.399      337.920      203.484      108.135        0.099        0.032       36.248       10.558        0.085      333.443        2.759      871.949
11/26/2014  04:02:00       -5.344        9.086       -3.035       10.135       16.046        5.479      102.717      257.464       30.017        0.026        0.020       10.541        6.688        0.402      333.513        2.879      871.954
11/26/2014  04:03:00       -8.309        5.964       -1.554       10.501        9.462        9.514      110.263       89.527       90.514        0.020        0.015       10.228        5.627        0.303      333.681        3.155      871.976
11/26/2014  04:04:00        2.241        5.075        0.402        4.765       10.385        7.933       22.703      107.847       62.934        0.011        0.010        5.548        5.433        0.959      333.692        3.174      871.986
11/26/2014  04:05:00      -16.974      -12.207       -5.329       22.488       11.941        8.137      505.703      142.580       66.214        0.059        0.036       20.908        7.905        0.143      333.367        2.636      872.000
11/26/2014  04:06:00      -46.406      -23.672      -13.198       15.256       13.140        8.521      232.742      172.652       72.614        0.168        0.024       52.095        3.936        0.006      333.155        2.284      871.989
11/26/2014  04:07:00       26.350       27.139        0.277       19.029       16.678        8.889      362.101      278.171       79.022        0.107        0.036       37.827        3.158        0.007      333.734        3.245      871.967
11/26/2014  04:08:00       30.032       51.893       -2.702       15.594       22.583       11.411      243.158      509.975      130.208        0.224        0.044       59.957       12.226        0.042      333.650        3.104      871.954
11/26/2014  04:09:00       11.587       35.504       -5.776       21.343       20.694       12.284      455.514      428.256      150.906        0.123        0.052       37.346        8.960        0.058      333.586        2.997      871.963
11/26/2014  04:10:00       -0.454       48.531       -3.702       16.266       26.796       13.905      264.590      718.046      193.358        0.177        0.059       48.533       17.446        0.129      333.593        3.010      871.974
11/26/2014  04:11:00      -52.544      -35.787       -2.063       21.934       13.998       17.866      481.080      195.951      319.210        0.252        0.050       63.573       14.653        0.053      333.041        2.096      871.987
11/26/2014  04:12:00      -57.658      -40.445       -9.337       15.899        7.733        7.565      252.762       59.803       57.232        0.271        0.018       70.428        6.267        0.008      333.011        2.048      871.994
11/26/2014  04:13:00      -62.266      -18.016      -12.050        8.409        7.282        6.605       70.709       53.022       43.628        0.226        0.008       64.820        4.080        0.004      333.188        2.340      871.991
11/26/2014  04:14:00      -63.663      -20.708      -14.550        6.460        7.514        4.847       41.731       56.458       23.489        0.241        0.006       66.946        2.259        0.001      333.272        2.476      871.984
11/26/2014  04:15:00      -57.951      -15.206       -9.476        5.524        6.350        5.114       30.511       40.326       26.150        0.189        0.005       59.913        2.695        0.002      333.347        2.603      871.977
11/26/2014  04:16:00      -58.040      -20.640       -8.542        7.950        5.964        6.526       63.207       35.566       42.592        0.200        0.007       61.601        4.493        0.005      333.278        2.486      871.966
11/26/2014  04:17:00      -63.854      -24.639      -13.360        9.527       10.509        6.302       90.763      110.445       39.712        0.255        0.012       68.443        3.579        0.003      333.227        2.402      871.966
11/26/2014  04:18:00      -67.261      -31.197       -9.251       17.130       12.479        9.202      293.447      155.717       84.672        0.306        0.027       74.144        8.523        0.013      333.252        2.443      871.965
11/26/2014  04:19:00      -68.522      -16.634       -9.931       17.746       16.216        9.972      314.928      262.955       99.447        0.287        0.034       70.512        8.871        0.016      333.159        2.291      871.964
11/26/2014  04:20:00      -69.662       -4.966      -10.029       19.640        8.661        6.833      385.747       75.020       46.690        0.274        0.025       69.839        7.089        0.010      333.289        2.503      871.956
11/26/2014  04:21:00      -87.738       -4.923      -11.825        9.615        9.641        7.895       92.441       92.940       62.326        0.405        0.012       87.876        5.774        0.004      333.475        2.814      871.952
11/26/2014  04:22:00      -88.380      -30.300      -11.560       12.416       18.919       10.136      154.145      357.934      102.731        0.474        0.031       93.430       10.537        0.013      333.431        2.740      871.963
11/26/2014  04:23:00      -79.516      -42.400      -10.075       22.219       15.099       11.464      493.664      227.987      131.414        0.454        0.043       90.114        5.304        0.003      333.252        2.445      871.993
11/26/2014  04:24:00      -80.011      -32.270       -9.898       14.800       15.000       12.329      219.032      225.007      152.002        0.407        0.030       86.273        9.772        0.013      333.186        2.334      872.007
11/26/2014  04:25:00      -45.755       -4.946       -5.267       13.921        9.675        9.975      193.804       93.601       99.491        0.127        0.019       46.022        5.906        0.016      333.217        2.386      872.004
11/26/2014  04:26:00      -55.203      -15.180      -10.974       11.991        7.437        8.305      143.791       55.313       68.973        0.183        0.013       57.252        6.484        0.013      333.476        2.815      872.011
11/26/2014  04:27:00      -72.719      -23.915       -8.958        7.047        9.675        6.591       49.655       93.600       43.442        0.306        0.009       76.550        4.579        0.004      333.350        2.607      872.032
11/26/2014  04:28:00      -58.478      -31.957       -9.423       16.210       10.429        7.879      262.753      108.766       62.079        0.248        0.022       66.640        4.310        0.004      333.216        2.384      872.040
11/26/2014  04:29:00      -66.055      -18.416       -9.327       10.946        5.299        5.910      119.815       28.083       34.934        0.249        0.009       68.575        5.517        0.006      333.262        2.461      872.037
11/26/2014  04:30:00      -49.186      -21.766       -6.064        8.378        6.169        4.542       70.198       38.053       20.632        0.153        0.006       53.787        3.068        0.003      333.288        2.504      872.019
11/26/2014  04:31:00      -64.738      -38.892       -7.368        7.332        8.772        5.251       53.761       76.952       27.570        0.296        0.008       75.522        2.404        0.001      333.164        2.298      872.017
11/26/2014  04:32:00      -73.100      -13.332       -9.469       12.495       11.715        7.578      156.134      137.237       57.421        0.298        0.018       74.306        3.536        0.002      333.007        2.040      872.019
11/26/2014  04:33:00      -76.381       -7.723      -11.173       12.847        9.377        7.180      165.055       87.921       51.553        0.316        0.015       76.770        4.492        0.003      333.221        2.393      872.004
11/26/2014  04:34:00      -84.850      -21.941       -6.089       26.576       15.600       10.231      706.304      243.367      104.671        0.439        0.053       87.641        7.076        0.007      333.191        2.343      871.999
11/26/2014  04:35:00     -105.655      -30.145      -10.602       19.231       18.434       12.336      369.835      339.818      152.183        0.652        0.043      109.871        4.763        0.002      332.965        1.971      872.012
11/26/2014  04:36:00      -81.025      -12.065      -13.363       25.713       14.856       12.424      661.184      220.706      154.345        0.396        0.052       81.919       12.725        0.024      332.907        1.876      872.021
11/26/2014  04:37:00      -73.066       -5.222      -18.039       18.466       14.780        9.548      340.982      218.455       91.166        0.317        0.033       73.253        8.045        0.012      333.026        2.073      872.033
11/26/2014  04:38:00      -58.978       -2.061       -3.691       14.826        9.360        8.176      219.810       87.601       66.850        0.194        0.019       59.014        5.292        0.008      333.451        2.774      872.040
11/26/2014  04:39:00      -30.478      -15.708       -8.644       12.750       13.576        9.223      162.555      184.317       85.068        0.084        0.022       34.287        3.976        0.013      333.162        2.297      872.045
11/26/2014  04:40:00      -48.995      -18.626      -11.786        9.701       11.465        8.335       94.106      131.444       69.470        0.159        0.015       52.416        4.430        0.007      333.053        2.117      872.034
11/26/2014  04:41:00      -47.986      -25.817       -6.123        8.429       10.667        7.524       71.042      113.775       56.605        0.162        0.012       54.491        5.027        0.009      333.014        2.053      872.036
11/26/2014  04:42:00      -25.672        3.961       -2.646       14.325       23.190        7.680      205.212      537.792       58.986        0.074        0.040       25.976        7.565        0.085      333.305        2.533      872.031
11/26/2014  04:43:00       26.622       31.736       -3.541       16.036       14.433        9.126      257.150      208.307       83.292        0.114        0.027       41.423        7.945        0.037      333.665        3.128      872.033
11/26/2014  04:44:00      -13.603       19.738       -6.620       18.519       21.176       13.283      342.950      448.415      176.437        0.079        0.048       23.972        8.769        0.134      333.586        2.997      872.054
11/26/2014  04:45:00      -36.145       -9.950       -5.273       11.199       16.504        9.085      125.425      272.380       82.533        0.096        0.024       37.490        7.780        0.043      333.313        2.545      872.074
11/26/2014  04:46:00      -54.971       -9.683       -6.829       13.473        7.903        8.622      181.521       62.453       74.342        0.174        0.016       55.817        6.302        0.013      333.102        2.198      872.060
11/26/2014  04:47:00      -28.658       -6.167      -11.334       11.971       14.771        8.201      143.316      218.174       67.264        0.071        0.021       29.314        5.684        0.038      333.042        2.099      872.038
11/26/2014  04:48:00      -27.447        6.346       -5.345       14.945       16.315       10.973      223.365      266.183      120.409        0.072        0.030       28.171        6.570        0.054      333.304        2.531      872.025
11/26/2014  04:49:00      -23.725      -17.928       -7.739       12.574       12.088        9.743      158.110      146.118       94.919        0.067        0.020       29.737        7.285        0.060      333.438        2.752      872.032
11/26/2014  04:50:00      -45.738      -36.803       -9.630       19.083       13.125       10.659      364.156      172.267      113.611        0.209        0.033       58.707        6.799        0.013      333.071        2.146      872.049
11/26/2014  04:51:00      -71.540      -49.185      -14.003       16.125       15.457        7.893      260.014      238.920       62.300        0.415        0.028       86.817        8.749        0.010      332.833        1.754      872.057
11/26/2014  04:52:00      -55.667      -22.443       -7.991       26.690       11.647        9.265      712.341      135.655       85.835        0.230        0.047       60.021        3.713        0.004      333.075        2.153      872.047
11/26/2014  04:53:00      -34.553      -14.012       -3.065       19.831       17.193        8.473      393.264      295.592       71.787        0.108        0.038       37.286        7.403        0.039      333.305        2.534      872.034
11/26/2014  04:54:00      -51.271      -34.762      -10.180       18.924       11.146        8.879      358.135      124.227       78.829        0.225        0.028       61.944        8.561        0.019      333.000        2.030      872.030
11/26/2014  04:55:00      -63.709      -21.053      -13.259        7.939        9.117        5.955       63.030       83.125       35.468        0.243        0.009       67.097        2.838        0.002      332.939        1.927      872.030
11/26/2014  04:56:00      -50.755      -13.688      -11.484       10.165        8.106        6.251      103.320       65.712       39.076        0.155        0.010       52.568        5.607        0.011      333.003        2.034      872.034
11/26/2014  04:57:00      -39.725      -23.657      -12.991        9.833        9.461        5.822       96.689       89.510       33.890        0.126        0.011       46.236        2.990        0.004      332.989        2.011      872.041
11/26/2014  04:58:00      -58.722      -29.980      -11.578       13.649        5.698        6.635      186.285       32.470       44.027        0.237        0.013       65.932        4.850        0.005      332.937        1.924      872.049
11/26/2014  04:59:00      -70.061      -25.401      -12.901        9.899        6.565        5.563       97.995       43.101       30.949        0.295        0.009       74.524        3.080        0.002      332.962        1.966      872.049
11/26/2014  05:00:00      -69.652      -18.159      -11.742        9.186        6.667        7.030       84.389       44.453       49.417        0.275        0.009       71.981        5.514        0.006      333.027        2.073      872.023
11/26/2014  05:01:00      -55.246      -15.243       -4.837        4.517        6.623        3.462       20.399       43.859       11.983        0.169        0.004       57.311        1.387        0.001      333.083        2.165      872.002
11/26/2014  05:02:00      -54.126      -19.998       -5.905        4.703        8.008        5.326       22.122       64.122       28.368        0.174        0.006       57.702        4.533        0.006      333.125        2.237      872.002
11/26/2014  05:03:00      -36.809      -15.063       -7.067        8.381        6.190        5.225       70.247       38.314       27.304        0.088        0.007       39.772        1.687        0.002      333.243        2.429      872.027
11/26/2014  05:04:00      -23.916      -23.024       -9.509        9.531        7.433        8.307       90.835       55.249       69.014        0.070        0.011       33.198        5.960        0.032      333.120        2.226      872.044
11/26/2014  05:05:00      -21.068      -29.496       -6.804        9.415       13.552        6.406       88.642      183.663       41.037        0.084        0.016       36.247        5.980        0.027      333.148        2.273      872.048
11/26/2014  05:06:00      -33.645      -27.474       -9.758       16.391       11.970        7.309      268.649      143.269       53.415        0.122        0.023       43.438        4.064        0.009      332.985        2.004      872.049
11/26/2014  05:07:00      -65.369      -12.605       -6.795       17.035       16.756       22.954      290.204      280.755      526.864        0.279        0.055       66.574       14.520        0.048      332.782        1.668      872.053
11/26/2014  05:08:00      -65.835       -7.692      -14.294       11.258        9.204        6.386      126.740       84.717       40.785        0.242        0.013       66.283        5.084        0.006      332.787        1.678      872.051
11/26/2014  05:09:00      -47.503      -15.189       -9.317        8.819        9.616        5.406       77.771       92.461       29.229        0.139        0.010       49.872        5.056        0.010      333.117        2.221      872.041
11/26/2014  05:10:00      -33.243      -16.671       -8.447       15.869        8.712        3.983      251.815       75.904       15.864        0.090        0.017       37.189        3.722        0.010      333.038        2.091      872.038
11/26/2014  05:11:00       -7.953      -12.558       -2.234        7.576       10.069        6.103       57.392      101.390       37.246        0.021        0.010       14.864        4.466        0.090      333.377        2.652      872.049
11/26/2014  05:12:00      -30.080      -22.898       -8.309       15.369        5.898        4.860      236.214       34.788       23.623        0.090        0.015       37.803        3.684        0.009      333.072        2.149      872.071
11/26/2014  05:13:00      -59.115      -18.612       -9.182        9.423       10.088        8.932       88.797      101.766       79.776        0.210        0.014       61.976        6.028        0.009      332.851        1.785      872.082
11/26/2014  05:14:00      -54.231      -17.722      -10.167        4.796        7.032        4.550       23.004       49.454       20.698        0.173        0.005       57.053        1.952        0.001      332.861        1.801      872.077
11/26/2014  05:15:00      -66.542      -11.203      -17.310       16.467        9.852        7.056      271.162       97.070       49.781        0.264        0.021       67.478        5.848        0.008      332.854        1.788      872.063
11/26/2014  05:16:00      -67.505       -0.777      -14.390       15.517        8.032        9.197      240.792       64.515       84.583        0.258        0.019       67.510        7.264        0.012      332.964        1.970      872.047
11/26/2014  05:17:00      -72.415       -5.963      -15.599       16.481        9.285        6.740      271.638       86.208       45.433        0.296        0.020       72.660        2.367        0.001      333.002        2.031      872.037
11/26/2014  05:18:00      -81.296      -30.305       -9.320       15.731       14.100        8.857      247.454      198.803       78.442        0.407        0.026       86.760        7.580        0.008      332.835        1.758      872.048
11/26/2014  05:19:00     -114.625      -35.296      -14.752       13.228       18.083       10.528      174.971      326.993      110.849        0.761        0.031      119.936        9.207        0.006      332.752        1.619      872.058
11/26/2014  05:20:00     -116.379      -34.800      -17.010       11.343       13.404        8.652      128.671      179.657       74.852        0.771        0.019      121.470        6.711        0.003      332.694        1.523      872.042
11/26/2014  05:21:00     -103.764      -20.451      -16.338       21.348       18.781       17.952      455.744      352.735      322.291        0.629        0.057      105.760       13.537        0.016      332.643        1.440      872.028
11/26/2014  05:22:00     -145.216       -6.593      -18.442       20.112       11.395       11.747      404.477      129.840      138.000        1.107        0.034      145.365        9.201        0.004      332.712        1.555      872.020
11/26/2014  05:23:00     -128.616        5.907      -14.214       31.581       23.577       22.024      997.365      555.881      485.073        0.941        0.102      128.751       19.604        0.023      332.711        1.551      872.011
11/26/2014  05:24:00      -78.131       10.528       -7.202       39.103       31.614       21.697     1529.053      999.437      470.748        0.463        0.150       78.838       18.050        0.052      332.702        1.536      872.001
11/26/2014  05:25:00      -75.944       18.915      -10.184       44.096       33.656       20.855     1944.488     1132.740      434.926        0.487        0.176       78.264       20.513        0.069      332.855        1.791      871.993
11/26/2014  05:26:00      -65.248        0.822       -5.501       47.088       36.225       31.765     2217.277     1312.235     1008.988        0.441        0.227       65.253       32.699        0.251      332.838        1.763      871.985
11/26/2014  05:27:00      -89.722      -39.960        3.000       44.092       39.502       22.351     1944.134     1560.382      499.549        0.683        0.200       98.219       17.136        0.030      332.634        1.424      871.994
11/26/2014  05:28:00      -89.117      -18.516       -4.674       47.683       51.618       23.123     2273.655     2664.439      534.689        0.689        0.274       91.020       19.796        0.047      332.634        1.425      872.017
11/26/2014  05:29:00      -70.591       -1.533       -0.790       43.582       40.703       26.510     1899.376     1656.737      702.795        0.462        0.213       70.607       24.996        0.125      332.788        1.680      872.017
11/26/2014  05:30:00      -89.503       -6.640        0.193       50.988       39.755       22.001     2599.809     1580.439      484.029        0.636        0.233       89.749       18.433        0.042      332.863        1.803      872.010
11/26/2014  05:31:00     -136.883        6.550      -12.870       39.652       42.147       28.048     1572.279     1776.335      786.706        1.154        0.207      137.040       17.653        0.017      332.854        1.788      872.006
11/26/2014  05:32:00     -158.745       20.087      -12.777       41.252       31.065       23.638     1701.708      965.008      558.743        1.450        0.161      160.011       17.889        0.012      332.788        1.679      871.999
11/26/2014  05:33:00      -81.333      -19.768        1.348       34.234       32.063       23.581     1171.967     1028.057      556.042        0.488        0.138       83.701       16.592        0.039      332.740        1.598      871.991
11/26/2014  05:34:00     -122.484      -23.359       -3.064       38.981       32.278       22.598     1519.498     1041.871      510.688        0.931        0.154      124.691       21.539        0.030      332.790        1.681      871.991
11/26/2014  05:35:00      -75.254      -37.000        7.889       54.955       47.361       22.977     3020.071     2243.077      527.948        0.644        0.290       83.858       27.901        0.111      332.698        1.530      871.985
11/26/2014  05:36:00      -81.554      -40.947       -3.824       27.229       26.999       19.542      741.412      728.923      381.898        0.510        0.093       91.256       10.088        0.012      332.679        1.498      871.981
11/26/2014  05:37:00      -94.267      -19.281      -10.263       36.326       30.979       18.274     1319.599      959.677      333.957        0.599        0.131       96.219       14.451        0.023      332.648        1.446      871.983
11/26/2014  05:38:00      -93.115      -10.903      -11.503       24.699       27.686       18.702      610.050      766.522      349.760        0.532        0.086       93.751       13.875        0.022      332.628        1.415      871.999
11/26/2014  05:39:00      -93.720      -15.018      -12.352       22.707       22.311       15.330      515.623      497.783      235.014        0.520        0.062       94.915       11.796        0.015      332.571        1.320      871.990
11/26/2014  05:40:00      -77.745      -27.286      -11.162       20.389       19.252       12.466      415.705      370.647      155.412        0.393        0.047       82.394        4.958        0.004      332.634        1.423      871.981
11/26/2014  05:41:00      -82.866      -14.647      -15.008       31.266       22.212       23.671      977.560      493.372      560.327        0.467        0.102       84.150       21.386        0.065      332.755        1.626      871.976
11/26/2014  05:42:00     -103.029       -9.107      -18.874       37.789       25.065       20.909     1427.998      628.255      437.167        0.677        0.125      103.431       15.556        0.023      332.704        1.540      871.979
11/26/2014  05:43:00     -129.080      -20.762      -19.526       40.580       28.619       17.054     1646.707      819.074      290.842        1.011        0.138      130.739       16.923        0.017      332.670        1.484      871.981
11/26/2014  05:44:00     -136.156      -36.306      -13.064       50.470       40.758       21.283     2547.196     1661.184      452.962        1.234        0.233      140.914       21.411        0.023      332.642        1.437      871.973
11/26/2014  05:45:00     -119.722      -50.446       -8.884       31.731       28.248       18.305     1006.867      797.930      335.061        0.955        0.107      129.916       15.103        0.014      332.626        1.412      871.965
11/26/2014  05:46:00     -111.010      -40.509       -8.356       37.355       28.790       18.184     1395.390      828.873      330.667        0.829        0.128      118.170       16.161        0.019      332.769        1.648      871.955
11/26/2014  05:47:00      -88.583      -42.156       -8.816       38.453       28.395       17.418     1478.599      806.250      303.391        0.614        0.129       98.102       13.285        0.018      332.719        1.565      871.951
11/26/2014  05:48:00     -109.302      -26.427      -11.385       18.432       20.841       15.336      339.756      434.332      235.203        0.689        0.050      112.451        7.330        0.004      332.680        1.501      871.956
11/26/2014  05:49:00     -116.023      -16.353       -9.648       26.693       16.247       14.002      712.535      263.950      196.066        0.750        0.059      117.170       15.106        0.017      332.742        1.604      871.953
11/26/2014  05:50:00     -124.853      -17.853      -15.415       17.821       21.018       15.049      317.605      441.762      226.473        0.857        0.049      126.123       12.147        0.009      332.804        1.707      871.945
11/26/2014  05:51:00     -101.829      -49.142       -7.905       24.089       22.656       16.285      580.273      513.315      265.197        0.710        0.068      113.066       11.291        0.010      332.885        1.839      871.940
11/26/2014  05:52:00      -76.767      -30.423       -9.732       28.084       24.870       17.899      788.684      618.537      320.376        0.432        0.086       82.576       10.095        0.015      332.844        1.773      871.931
11/26/2014  05:53:00      -79.381      -35.369       -7.314       22.633       20.293       19.316      512.251      411.794      373.127        0.445        0.065       86.904        8.873        0.010      332.831        1.751      871.945
11/26/2014  05:54:00      -90.424       -9.001      -11.624       42.501       28.354       18.512     1806.314      803.970      342.711        0.567        0.148       90.871       13.494        0.022      332.819        1.729      871.978
11/26/2014  05:55:00      -75.381      -26.956       -7.834       50.171       27.792       22.750     2517.178      772.388      517.582        0.514        0.190       80.055       25.661        0.103      332.820        1.732      872.002
11/26/2014  05:56:00      -73.484      -12.034       -8.619       30.248       29.538       18.235      914.918      872.495      332.530        0.387        0.106       74.463       15.662        0.044      332.689        1.515      872.032
11/26/2014  05:57:00      -23.853      -26.909       -0.942       29.746       21.796       16.096      884.822      475.047      259.065        0.146        0.081       35.959       14.587        0.165      332.797        1.696      872.038
11/26/2014  05:58:00      -87.296      -15.258      -13.459       27.593       20.824       12.206      761.381      433.618      148.991        0.469        0.067       88.619        8.620        0.009      332.748        1.613      872.048
11/26/2014  05:59:00      -16.118      -17.926       -8.370       23.805       15.780        8.592      566.695      249.000       73.831        0.077        0.044       24.107        6.517        0.073      332.740        1.599      872.055
11/26/2014  06:00:00       21.465       15.961       12.470       13.221        8.669       11.843      174.797       75.153      140.263        0.063        0.020       26.749        4.628        0.030      332.883        1.836      872.055
11/26/2014  06:01:00        4.045       24.295       22.721        9.278       11.629       11.189       86.075      135.228      125.188        0.073        0.017       24.630        3.836        0.024      332.903        1.869      872.080
11/26/2014  06:02:00      -25.236        2.004       -1.940       22.692        7.641        9.363      514.926       58.384       87.663        0.065        0.033       25.316        9.416        0.138      332.828        1.745      872.105
11/26/2014  06:03:00      -32.398        5.793       -7.451        8.632       13.367        5.889       74.516      178.667       34.678        0.071        0.014       32.912        7.114        0.047      332.821        1.735      872.099
11/26/2014  06:04:00       -2.628       17.011       -0.965        5.576        7.749        5.012       31.086       60.052       25.119        0.021        0.006       17.213        4.750        0.076      333.036        2.087      872.081
11/26/2014  06:05:00       -0.397       16.805        0.283        7.695       10.405        6.830       59.213      108.254       46.654        0.025        0.011       16.810        6.173        0.135      332.997        2.024      872.106
11/26/2014  06:06:00       12.082        5.613        3.481        7.475        8.605        7.521       55.872       74.037       56.563        0.019        0.009       13.322        5.202        0.152      333.004        2.036      872.139
11/26/2014  06:07:00        0.577       14.682       -0.993        5.412       10.870        3.981       29.290      118.150       15.852        0.019        0.008       14.694        2.228        0.023      333.012        2.049      872.162
11/26/2014  06:08:00      -10.899        0.036        6.059       21.256        8.201       10.177      451.833       67.263      103.568        0.039        0.031       10.899        8.115        0.554      332.886        1.841      872.153
11/26/2014  06:09:00      -12.743        9.076       -3.445       12.211       13.865        5.572      149.114      192.244       31.051        0.031        0.019       15.644        7.333        0.220      332.830        1.749      872.133
11/26/2014  06:10:00        3.275       58.538       -7.223        9.140        9.810        5.420       83.534       96.245       29.372        0.185        0.010       58.629        5.434        0.009      333.090        2.179      872.124
11/26/2014  06:11:00       -8.156       56.230       -8.473        8.170        8.678        4.009       66.749       75.306       16.069        0.173        0.008       56.818        2.539        0.002      333.163        2.297      872.145
11/26/2014  06:12:00      -11.133       13.231       -0.635       12.578       19.043        7.294      158.194      362.624       53.198        0.044        0.029       17.292        7.512        0.189      332.994        2.019      872.176
11/26/2014  06:13:00      -24.137      -13.711       -3.573       15.498       10.117        8.902      240.194      102.349       79.249        0.060        0.021       27.759        6.621        0.057      332.892        1.851      872.201
11/26/2014  06:14:00      -38.383      -15.581       -9.250        7.911        7.826        5.025       62.590       61.253       25.247        0.098        0.007       41.425        3.238        0.006      332.674        1.490      872.217
11/26/2014  06:15:00      -64.651       -3.959      -10.287       13.498        6.960        5.635      182.196       48.440       31.753        0.228        0.013       64.772        2.283        0.001      332.573        1.323      872.224
11/26/2014  06:16:00      -65.940      -12.083      -11.808        9.148       10.966        8.833       83.681      120.250       78.023        0.246        0.014       67.038        4.053        0.004      332.581        1.337      872.225
11/26/2014  06:17:00      -57.810       -8.550      -13.031        9.430       12.510        6.225       88.927      156.490       38.750        0.193        0.014       58.439        5.681        0.009      332.963        1.966      872.221
11/26/2014  06:18:00      -51.626      -34.031      -16.331       14.485       14.837        6.900      209.828      220.137       47.610        0.228        0.024       61.833        2.673        0.002      332.683        1.505      872.219
11/26/2014  06:19:00      -96.312      -25.199      -18.537       25.024       18.611        8.990      626.220      346.356       80.820        0.565        0.053       99.554        7.228        0.005      332.527        1.247      872.242
11/26/2014  06:20:00     -119.768       -3.492      -18.108        9.463       11.184        8.862       89.540      125.091       78.540        0.749        0.015      119.819        5.071        0.002      332.592        1.353      872.242
11/26/2014  06:21:00     -116.684       -2.053      -18.919       11.604       15.534       10.133      134.659      241.304      102.675        0.723        0.024      116.703        7.449        0.004      332.561        1.302      872.241
11/26/2014  06:22:00      -99.996      -15.044      -13.710       19.037       11.665       10.165      362.392      136.084      103.331        0.551        0.030      101.121       10.158        0.010      332.569        1.316      872.251
11/26/2014  06:23:00      -68.988       -2.869      -13.652       16.035       16.442        8.488      257.137      270.354       72.051        0.278        0.030       69.047        6.233        0.008      332.628        1.415      872.263
11/26/2014  06:24:00      -78.963       -5.557      -15.580       13.180       15.319        8.189      173.715      234.684       67.060        0.349        0.024       79.158        6.327        0.006      332.715        1.560      872.261
11/26/2014  06:25:00      -66.715      -21.771       -9.441       20.060       15.232       10.136      402.391      232.007      102.728        0.288        0.037       70.177        8.957        0.016      332.651        1.453      872.268
11/26/2014  06:26:00      -74.627      -31.667       -9.741       12.185       17.838       10.519      148.471      318.182      110.647        0.362        0.029       81.068        3.362        0.002      332.698        1.530      872.273
11/26/2014  06:27:00      -87.510      -37.802      -19.350       14.176       17.576       12.299      200.964      308.908      151.257        0.506        0.033       95.326       10.348        0.012      332.695        1.525      872.273
11/26/2014  06:28:00     -114.687       -3.521      -16.461       28.193       15.440       11.539      794.826      238.387      133.148        0.730        0.058      114.741       12.492        0.012      332.598        1.365      872.260
11/26/2014  06:29:00     -107.905       -3.821      -11.994       17.186       10.331        9.014      295.362      106.724       81.259        0.614        0.024      107.972        8.100        0.006      332.615        1.392      872.243
11/26/2014  06:30:00      -87.434      -18.260      -11.246       14.371       15.395       13.161      206.523      237.013      173.218        0.436        0.031       89.320        5.904        0.004      332.582        1.338      872.272
11/26/2014  06:31:00      -62.602      -23.985       -1.496       24.504       14.815       16.310      600.432      219.498      266.020        0.279        0.054       67.039       17.468        0.068      332.593        1.356      872.278
11/26/2014  06:32:00      -57.413      -28.092       -3.421       18.848       17.536       18.479      355.258      307.516      341.467        0.255        0.050       63.917       14.449        0.051      332.616        1.395      872.263
11/26/2014  06:33:00      -73.039      -22.854      -10.645        8.498       14.579        7.462       72.215      212.541       55.680        0.316        0.017       76.531        3.071        0.002      332.758        1.630      872.244
11/26/2014  06:34:00      -59.330      -33.110      -11.293       19.095       20.251       11.737      364.605      410.084      137.748        0.283        0.046       67.943        9.387        0.019      332.777        1.661      872.222
11/26/2014  06:35:00      -49.886      -13.644       -7.224        8.653        9.179        4.905       74.877       84.254       24.058        0.146        0.009       51.718        2.991        0.003      332.838        1.764      872.189
11/26/2014  06:36:00      -69.312        7.146       -9.228       10.851       10.519        7.452      117.741      110.650       55.537        0.261        0.014       69.679        4.627        0.004      332.904        1.872      872.171
11/26/2014  06:37:00      -49.953       -3.400       -3.228       21.937       14.267       11.386      481.241      203.536      129.648        0.167        0.041       50.068        5.293        0.011      332.930        1.913      872.149
11/26/2014  06:38:00      -13.899        5.611       -3.948       16.727       20.561        8.606      279.801      422.738       74.067        0.051        0.039       14.989        6.209        0.172      332.989        2.010      872.128
11/26/2014  06:39:00        5.229       29.603       -4.174        9.617       16.791        8.837       92.487      281.946       78.099        0.069        0.023       30.061       10.793        0.129      333.412        2.710      872.124
11/26/2014  06:40:00      -25.135        3.147        1.762       25.787       16.542        8.475      664.986      273.637       71.827        0.083        0.051       25.332        6.744        0.071      333.276        2.484      872.135
11/26/2014  06:41:00      -52.283      -27.495       -9.510       11.536       15.339        6.524      133.068      235.295       42.557        0.200        0.021       59.072        4.756        0.006      332.906        1.875      872.153
11/26/2014  06:42:00      -36.543      -20.592       -6.815       13.282        9.025        7.633      176.420       81.444       58.256        0.106        0.016       41.946        8.033        0.037      332.853        1.785      872.165
11/26/2014  06:43:00      -29.164      -23.201       -4.670        6.803        8.229        6.867       46.276       67.721       47.153        0.079        0.008       37.267        5.800        0.024      332.687        1.510      872.172
11/26/2014  06:44:00      -28.007      -20.739       -4.938       12.319        6.829        7.747      151.748       46.631       60.022        0.075        0.013       34.849        2.869        0.007      332.994        2.019      872.189
11/26/2014  06:45:00      -54.675      -12.644       -8.134       12.196       11.806        5.928      148.733      139.385       35.135        0.177        0.016       56.118        5.562        0.010      332.718        1.565      872.206
11/26/2014  06:46:00      -32.973        0.066       -7.496       20.648        5.684       10.334      426.344       32.312      106.782        0.085        0.028       32.973       12.753        0.150      332.760        1.632      872.210
11/26/2014  06:47:00       -8.643       -4.630        5.317       16.864       11.545       10.605      284.398      133.289      112.462        0.033        0.027        9.805        9.434        0.926      332.937        1.925      872.215
11/26/2014  06:48:00       40.349       14.554        0.998       11.452       10.757        6.352      131.154      115.717       40.350        0.106        0.014       42.894        6.087        0.020      333.222        2.396      872.233
11/26/2014  06:49:00       25.633        9.794        1.179       18.063        7.051        4.044      326.265       49.711       16.350        0.057        0.020       27.440        3.827        0.019      333.242        2.430      872.241
11/26/2014  06:50:00      -28.829      -12.353       -4.283       13.320       11.727        7.683      177.409      137.530       59.025        0.069        0.019       31.364        7.055        0.051      332.925        1.903      872.277
11/26/2014  06:51:00      -13.613      -16.416       -2.498       13.789       13.083        9.441      190.136      171.173       89.135        0.046        0.023       21.326        6.697        0.099      332.630        1.417      872.284
11/26/2014  06:52:00       36.211        8.329        1.649       20.790        8.964        7.536      432.225       80.348       56.787        0.098        0.028       37.156        5.199        0.020      332.976        1.989      872.260
11/26/2014  06:53:00       36.489       12.994        2.706       10.614        9.489        5.149      112.650       90.050       26.509        0.087        0.011       38.733        4.066        0.011      333.056        2.120      872.243
11/26/2014  06:54:00       21.436       17.417       -1.028       11.666        8.918        4.764      136.089       79.530       22.693        0.050        0.012       27.620        4.122        0.022      333.223        2.397      872.255
11/26/2014  06:55:00       17.755        1.427       -0.232        6.625        3.677        4.756       43.889       13.519       22.622        0.020        0.004       17.813        3.091        0.030      333.178        2.323      872.278
11/26/2014  06:56:00      -17.059      -14.590        3.378       14.379       11.615       10.333      206.745      134.908      106.770        0.048        0.022       22.447        7.788        0.120      332.811        1.717      872.293
11/26/2014  06:57:00      -40.427       -9.243       -2.399        7.416        6.874        5.531       55.003       47.248       30.587        0.093        0.007       41.470        4.968        0.014      332.766        1.642      872.279
11/26/2014  06:58:00      -44.553      -10.316      -11.784        8.576        8.238        6.204       73.541       67.862       38.490        0.121        0.009       45.731        1.899        0.002      332.681        1.501      872.264
11/26/2014  06:59:00      -56.567       -7.547      -10.553       10.145        8.403        7.436      102.913       70.617       55.296        0.180        0.011       57.068        5.768        0.010      332.752        1.620      872.253
11/26/2014  07:00:00      -90.406      -17.881      -12.046       13.929       13.309       10.173      194.030      177.123      103.484        0.456        0.024       92.158        5.360        0.003      332.612        1.388      872.247
11/26/2014  07:01:00      -65.728      -32.941       -6.905       21.319       11.424       10.457      454.502      130.518      109.357        0.307        0.035       73.520        9.219        0.016      332.523        1.240      872.252
11/26/2014  07:02:00      -65.819      -14.885       -8.211       11.302       14.493        6.968      127.744      210.034       48.550        0.250        0.019       67.481        7.578        0.013      332.642        1.438      872.257
11/26/2014  07:03:00      -97.788       10.942      -13.026       19.519       10.884        8.030      380.994      118.459       64.473        0.521        0.028       98.398        5.496        0.003      332.470        1.154      872.264
11/26/2014  07:04:00      -54.675       -5.099       -6.066       26.199       15.680       12.396      686.387      245.855      153.669        0.207        0.054       54.912       13.828        0.063      332.379        1.002      872.283
11/26/2014  07:05:00      -56.380        1.661       -5.833       18.715       16.581       13.028      350.237      274.940      169.737        0.201        0.040       56.404       11.161        0.039      332.463        1.142      872.305
11/26/2014  07:06:00      -59.683      -28.102       -6.562       27.496       24.491       10.385      756.047      599.793      107.848        0.293        0.073       65.968        8.635        0.017      332.466        1.147      872.309
11/26/2014  07:07:00      -62.393      -10.935       -6.383       19.356       17.829       14.679      374.670      317.884      215.463        0.248        0.045       63.344        9.112        0.021      332.429        1.085      872.309
11/26/2014  07:08:00     -103.975      -26.327      -13.159       25.872       20.563       12.042      669.347      422.844      145.018        0.646        0.062      107.257       10.522        0.010      332.463        1.142      872.315
11/26/2014  07:09:00      -96.903      -15.067      -16.517       24.192       22.588       15.825      585.233      510.240      250.431        0.562        0.067       98.067        4.929        0.003      332.435        1.094      872.324
11/26/2014  07:10:00      -73.087       -6.908       -6.468       26.227       24.446       17.897      687.841      597.617      320.300        0.352        0.080       73.413       12.330        0.028      332.398        1.034      872.329
11/26/2014  07:11:00      -63.024       -3.482      -11.303       30.873       23.295       12.628      953.161      542.657      159.466        0.288        0.083       63.120       11.731        0.035      332.485        1.178      872.337
11/26/2014  07:12:00      -55.070      -15.084       -3.022       26.318       15.616        9.171      692.662      243.863       84.104        0.214        0.051       57.098        9.400        0.027      332.532        1.256      872.338
11/26/2014  07:13:00      -54.599      -12.313      -13.846       12.152       10.764        6.704      147.674      115.856       44.946        0.182        0.015       55.970        7.152        0.016      332.682        1.504      872.341
11/26/2014  07:14:00      -69.487       -8.598      -13.859       14.140       11.294        6.642      199.935      127.551       44.117        0.273        0.019       70.017        3.525        0.003      332.673        1.490      872.345
11/26/2014  07:15:00      -82.970      -19.670      -13.262       23.867       20.728       12.397      569.648      429.633      153.681        0.430        0.058       85.270       10.471        0.015      332.652        1.454      872.348
11/26/2014  07:16:00      -75.341      -39.324      -12.513       14.296       16.586       13.999      204.377      275.095      195.980        0.403        0.034       84.986        4.253        0.003      332.659        1.464      872.358
11/26/2014  07:17:00      -55.295      -18.528      -11.599       14.137       19.222       11.100      199.853      369.470      123.202        0.211        0.035       58.317        6.771        0.013      332.710        1.551      872.346
11/26/2014  07:18:00      -71.137        3.472      -11.753       11.798        9.624       10.032      139.192       92.616      100.632        0.277        0.017       71.222        4.074        0.003      332.762        1.636      872.320
11/26/2014  07:19:00      -82.074      -13.009       -8.567       24.024       14.485       11.366      577.154      209.805      129.194        0.395        0.046       83.099       10.095        0.015      332.727        1.579      872.293
11/26/2014  07:20:00      -68.110      -17.613       -8.037       21.386       15.048       13.006      457.354      226.446      169.164        0.293        0.043       70.350        9.302        0.017      332.767        1.644      872.274
11/26/2014  07:21:00      -72.737       -7.789       -9.151       17.113       14.396       10.719      292.851      207.255      114.892        0.302        0.031       73.153       11.778        0.026      332.784        1.671      872.259
11/26/2014  07:22:00      -75.920      -24.707       -7.931       14.931       13.299        8.127      222.928      176.853       66.042        0.345        0.023       79.839        5.090        0.004      332.818        1.730      872.278
11/26/2014  07:23:00      -81.704       -9.415       -9.818       15.008       13.734       11.646      225.235      188.611      135.632        0.370        0.027       82.244        8.585        0.011      332.877        1.827      872.311
11/26/2014  07:24:00      -58.802      -12.341       -5.587       18.350       11.985        9.831      336.734      143.642       96.647        0.211        0.029       60.083        8.342        0.019      332.927        1.909      872.317
11/26/2014  07:25:00      -38.843      -15.262       -2.101       10.982       15.749       12.627      120.599      248.021      159.438        0.114        0.026       41.734       10.364        0.062      332.935        1.923      872.300
11/26/2014  07:26:00      -51.848       -5.774       -4.922       19.435       10.268       10.136      377.703      105.441      102.738        0.167        0.029       52.169        5.966        0.013      332.858        1.794      872.283
11/26/2014  07:27:00      -65.624      -23.165       -4.961       26.770       21.847       12.082      716.639      477.272      145.974        0.310        0.067       69.592       12.465        0.032      332.914        1.887      872.296
11/26/2014  07:28:00      -52.974      -37.826        1.236       28.836       16.481       15.777      831.532      271.616      248.906        0.280        0.068       65.092       15.547        0.057      332.861        1.800      872.319
11/26/2014  07:29:00      -41.507      -27.618       -4.408       17.818       12.857        9.147      317.479      165.294       83.677        0.154        0.028       49.856        7.495        0.023      332.911        1.884      872.293
11/26/2014  07:30:00      -78.375      -14.805      -15.456       23.541       12.625       10.773      554.178      159.402      116.049        0.371        0.041       79.761        8.770        0.012      332.980        1.996      872.272
11/26/2014  07:31:00      -87.382       -9.228       -9.767       12.662       12.445       12.309      160.329      154.879      151.517        0.414        0.023       87.868        5.999        0.005      332.948        1.944      872.253
11/26/2014  07:32:00      -87.782      -15.725      -11.914       17.294       12.623        8.446      299.081      159.332       71.343        0.431        0.026       89.179        4.059        0.002      332.942        1.933      872.262
11/26/2014  07:33:00      -43.563      -26.370       -3.911       15.396        7.690        4.366      237.050       59.130       19.063        0.146        0.016       50.923        1.304        0.001      333.103        2.200      872.251
11/26/2014  07:34:00      -29.572      -25.427        0.475        9.907        5.976        5.089       98.140       35.708       25.896        0.084        0.008       39.001        3.055        0.006      333.207        2.370      872.251
11/26/2014  07:35:00      -74.471        1.682       -4.891       18.674       14.982       10.052      348.727      224.457      101.042        0.312        0.034       74.490        7.836        0.011      333.124        2.235      872.265
11/26/2014  07:36:00     -116.881        4.868       -8.767       23.292       15.732       13.043      542.538      247.480      170.115        0.736        0.048      116.982       13.091        0.013      333.022        2.064      872.274
11/26/2014  07:37:00      -95.435        5.165       -7.248       37.780       24.505       21.244     1427.322      600.487      451.295        0.583        0.124       95.575       19.377        0.041      333.179        2.324      872.263
11/26/2014  07:38:00      -71.125        3.833       -9.975       24.955       18.434       12.290      622.762      339.830      151.041        0.314        0.056       71.229        5.670        0.006      333.292        2.511      872.253
11/26/2014  07:39:00     -114.879      -11.864       -6.440       31.403       23.203       18.519      986.157      538.391      342.945        0.762        0.093      115.490       15.439        0.018      333.302        2.528      872.274
11/26/2014  07:40:00     -134.170       -9.656      -13.012       36.787       27.072       18.835     1353.307      732.904      354.772        1.035        0.122      134.517       11.785        0.008      333.227        2.403      872.288
11/26/2014  07:41:00      -75.756      -16.643       -6.651       32.332       14.934       12.017     1045.345      223.027      144.397        0.374        0.071       77.562       12.982        0.028      333.283        2.497      872.275
11/26/2014  07:42:00      -40.182       -8.426       -6.215       17.818       15.634        9.857      317.465      244.426       97.157        0.119        0.033       41.056        6.685        0.027      333.366        2.634      872.280
11/26/2014  07:43:00      -92.732      -13.148      -12.421       21.839       16.487       11.536      476.952      271.826      133.071        0.490        0.044       93.659        9.778        0.011      333.440        2.755      872.300
11/26/2014  07:44:00     -105.309      -17.925       -7.517       28.960       19.184       16.233      838.658      368.038      263.513        0.647        0.074      106.824       13.573        0.016      333.372        2.643      872.320
11/26/2014  07:45:00      -76.823       -6.962       -4.060       23.089       14.427       15.070      533.098      208.138      227.107        0.347        0.048       77.138       14.383        0.035      333.359        2.620      872.324
11/26/2014  07:46:00      -60.159       -5.102       -8.663       15.688       10.373        7.698      246.124      107.608       59.256        0.207        0.021       60.375        8.790        0.021      333.573        2.977      872.309
11/26/2014  07:47:00      -17.256      -10.994       -0.372       11.193        7.191        4.401      125.291       51.714       19.372        0.031        0.010       20.460        2.820        0.019      333.701        3.190      872.300
11/26/2014  07:48:00       -9.989        8.950       -3.173       14.827       12.950        8.305      219.832      167.695       68.980        0.032        0.023       13.412        5.117        0.146      333.983        3.657      872.324
11/26/2014  07:49:00      -24.612       -8.914       -1.423        6.957       11.655        6.877       48.396      135.846       47.289        0.046        0.012       26.177        7.029        0.072      333.925        3.561      872.354
11/26/2014  07:50:00      -38.551      -14.698       -4.965       10.612        8.634        4.962      112.616       74.546       24.624        0.097        0.011       41.257        3.368        0.007      333.712        3.207      872.365
11/26/2014  07:51:00      -10.659       -9.946        0.042        7.741        4.207        2.441       59.928       17.702        5.959        0.015        0.004       14.579        2.273        0.024      333.844        3.425      872.360
11/26/2014  07:52:00       -6.992        1.430        1.811        7.394        8.435        5.828       54.664       71.144       33.961        0.011        0.008        7.137        4.706        0.435      334.279        4.148      872.367
11/26/2014  07:53:00      -11.161       -8.293        3.672       11.633       10.945        8.393      135.335      119.802       70.444        0.027        0.016       13.905        7.928        0.325      334.344        4.256      872.395
11/26/2014  07:54:00       20.765       18.483       10.471       20.215       15.877       12.779      408.658      252.087      163.292        0.085        0.041       27.800       11.009        0.157      334.202        4.018      872.419
11/26/2014  07:55:00        1.154        8.938       15.644       10.126       11.356       11.932      102.532      128.957      142.367        0.035        0.019        9.012        7.451        0.684      334.362        4.284      872.429
11/26/2014  07:56:00        4.882       12.620        5.731        8.434        8.321       13.199       71.128       69.232      174.211        0.027        0.016       13.532        7.181        0.282      334.207        4.027      872.427
11/26/2014  07:57:00        9.157       28.642       -5.393       10.883       13.342        9.710      118.450      177.996       94.286        0.066        0.020       30.070        4.726        0.025      334.205        4.024      872.416
11/26/2014  07:58:00       25.173       15.911        4.540       10.882       16.298       14.736      118.421      265.628      217.142        0.075        0.030       29.780       10.554        0.126      334.325        4.223      872.410
11/26/2014  07:59:00       36.988       25.893       -6.513        8.097       14.862       11.668       65.566      220.888      136.135        0.125        0.021       45.150        5.194        0.013      334.145        3.925      872.426
11/26/2014  08:00:00       30.869       14.902       -0.566       16.905       14.701       14.413      285.765      216.121      207.734        0.094        0.035       34.278       10.271        0.090      334.208        4.030      872.449
11/26/2014  08:01:00       -5.946       10.262        4.340       12.445       10.963       14.018      154.889      120.177      196.507        0.032        0.024       11.860        9.777        0.680      334.530        4.564      872.465
11/26/2014  08:02:00       26.869       10.763       14.447       22.851       17.536       13.552      522.156      307.526      183.670        0.103        0.051       28.945       13.403        0.214      334.455        4.440      872.468
11/26/2014  08:03:00       24.722       33.806       18.386       16.504       15.610       18.876      272.393      243.668      356.297        0.148        0.044       41.881       11.864        0.080      334.335        4.241      872.463
11/26/2014  08:04:00       -5.452       28.016       42.175       10.937       18.383       16.576      119.615      337.952      274.772        0.166        0.037       28.542       11.753        0.170      334.639        4.745      872.459
11/26/2014  08:05:00       10.795       37.794       28.023       20.154       16.150       19.363      406.193      260.815      374.934        0.169        0.052       39.306        8.379        0.045      334.512        4.533      872.463
11/26/2014  08:06:00        8.008       24.513       37.012       13.369       17.526        8.055      178.737      307.148       64.878        0.129        0.028       25.788        9.062        0.123      334.707        4.857      872.480
11/26/2014  08:07:00       -0.099        9.905       33.813        6.804       12.610        5.469       46.299      159.015       29.914        0.074        0.012        9.905        5.364        0.293      334.815        5.037      872.486
11/26/2014  08:08:00       35.644       47.188       39.690       27.457       15.768       16.414      753.864      248.641      269.432        0.317        0.064       59.137       14.721        0.062      334.624        4.718      872.473
11/26/2014  08:09:00       29.014       46.910       24.484       28.164       17.388       20.412      793.235      302.357      416.632        0.258        0.076       55.157       20.094        0.133      334.510        4.529      872.452
11/26/2014  08:10:00       -4.531       23.805       37.159        5.204       14.428        9.089       27.079      208.158       82.607        0.114        0.016       24.232        8.061        0.111      334.815        5.037      872.452
11/26/2014  08:11:00      -14.033       19.281       16.762       12.350       12.229       13.348      152.513      149.547      178.162        0.066        0.024       23.847       10.208        0.183      334.824        5.051      872.467
11/26/2014  08:12:00        7.356       19.303       -0.717       12.287        8.382       11.416      150.982       70.259      130.330        0.039        0.018       20.657        3.196        0.024      334.643        4.751      872.469
11/26/2014  08:13:00       -9.369        5.962        2.977        7.583        8.330       16.668       57.503       69.391      277.833        0.027        0.020       11.105        9.248        0.694      334.948        5.257      872.474
11/26/2014  08:14:00       -6.494        4.752       20.350        5.707        8.853        5.225       32.568       78.379       27.304        0.031        0.007        8.046        3.693        0.211      335.439        6.075      872.490
11/26/2014  08:15:00      -32.216       -6.438        4.761       12.077        6.595        8.579      145.845       43.499       73.600        0.068        0.013       32.853        9.081        0.076      334.837        5.073      872.507
11/26/2014  08:16:00      -29.591      -14.829       -5.142        6.472        5.435        7.792       41.891       29.537       60.720        0.063        0.007       33.099        4.949        0.022      334.786        4.987      872.502
11/26/2014  08:17:00       -0.244       -7.392        1.846       13.260        9.137        8.462      175.828       83.488       71.599        0.019        0.017        7.396        6.330        0.732      335.001        5.344      872.478
11/26/2014  08:18:00       19.355       24.173       14.171       19.836       20.444       25.872      393.458      417.960      669.352        0.132        0.074       30.967       19.261        0.387      335.070        5.460      872.451
11/26/2014  08:19:00       49.767       48.011       26.752       27.203       26.251       31.577      740.020      689.114      997.125        0.396        0.121       69.151       23.666        0.117      334.935        5.236      872.435
11/26/2014  08:20:00       19.493       52.861       47.584       32.460       18.741       26.414     1053.625      351.218      697.711        0.377        0.105       56.341       25.102        0.198      334.960        5.278      872.448
11/26/2014  08:21:00       18.273       43.942       50.149       26.380       20.335       19.321      695.893      413.527      373.285        0.313        0.074       47.590       16.627        0.122      335.063        5.448      872.478
11/26/2014  08:22:00       44.184       31.077        9.375       18.953       14.576       13.960      359.218      212.462      194.878        0.189        0.038       54.019        8.276        0.023      334.880        5.144      872.493
11/26/2014  08:23:00       18.048       34.443       12.480       17.059       16.480       17.930      290.992      271.584      321.499        0.128        0.044       38.885       10.677        0.075      335.227        5.721      872.491
11/26/2014  08:24:00        9.250       34.037       36.510       23.281       17.387       16.281      542.011      302.316      265.070        0.184        0.055       35.271       12.184        0.119      335.460        6.109      872.486
11/26/2014  08:25:00       14.862       49.536       57.550       30.780       26.617       20.031      947.435      708.482      401.225        0.402        0.103       51.718       20.584        0.158      335.240        5.742      872.479
11/26/2014  08:26:00       64.541       79.790       69.858       46.596       30.328       26.790     2171.197      919.797      717.709        0.961        0.190      102.626       22.088        0.046      335.095        5.502      872.478
11/26/2014  08:27:00       67.225       90.487       61.373       45.485       24.727       34.825     2068.926      611.405     1212.748        1.018        0.195      112.726       27.088        0.058      334.992        5.330      872.488
11/26/2014  08:28:00       48.765       65.743       47.702       38.435       29.402       26.458     1477.224      864.471      700.017        0.601        0.152       81.855        7.791        0.009      335.092        5.495      872.510
11/26/2014  08:29:00       65.874       37.124       35.184       42.578       31.256       35.231     1812.887      976.914     1241.201        0.549        0.202       75.614       22.610        0.089      335.164        5.616      872.514
11/26/2014  08:30:00       57.012       58.282       56.239       33.298       25.305       30.090     1108.767      640.320      905.387        0.623        0.133       81.530       17.186        0.044      335.035        5.403      872.516
11/26/2014  08:31:00       73.657       56.325       59.930       38.944       47.054       34.672     1516.608     2214.042     1202.179        0.856        0.247       92.725       28.291        0.093      335.057        5.438      872.524
11/26/2014  08:32:00       45.017       56.682       40.500       41.985       46.499       39.942     1762.779     2162.155     1595.359        0.620        0.276       72.384       37.449        0.268      335.106        5.520      872.534
11/26/2014  08:33:00       37.291       59.664       54.638       43.501       45.480       38.532     1892.362     2068.420     1484.688        0.669        0.272       70.360       37.967        0.291      335.079        5.474      872.536
11/26/2014  08:34:00       81.640       70.813       45.573       26.989       21.029       26.159      728.380      442.212      684.277        0.781        0.093      108.072       17.201        0.025      335.026        5.387      872.528
11/26/2014  08:35:00      100.650       51.872       35.621       38.239       32.935       35.215     1462.216     1084.694     1240.106        0.894        0.189      113.230       17.908        0.025      335.082        5.480      872.513
11/26/2014  08:36:00      111.199       51.620       42.157       50.839       39.359       37.321     2584.563     1549.149     1392.850        1.117        0.276      122.596       28.586        0.054      335.096        5.503      872.507
11/26/2014  08:37:00        4.002       49.874       72.650       30.716       32.464       31.491      943.456     1053.938      991.709        0.538        0.149       50.034       28.139        0.316      335.390        5.991      872.540
11/26/2014  08:38:00       27.464       42.265       48.985       42.849       32.710       39.089     1835.996     1069.964     1527.967        0.469        0.222       50.405       36.283        0.518      335.376        5.969      872.568
11/26/2014  08:39:00       52.662       76.479       73.354       46.815       44.829       27.328     2191.612     2009.676      746.834        0.947        0.247       92.857       23.133        0.062      335.318        5.872      872.547
11/26/2014  08:40:00      119.094      101.441       55.043       33.831       24.059       33.239     1144.510      578.820     1104.828        1.517        0.141      156.440       24.660        0.025      334.983        5.317      872.544
11/26/2014  08:41:00       55.351       62.370       56.859       27.517       27.090       22.057      757.200      733.858      486.503        0.608        0.099       83.389       14.547        0.030      335.088        5.490      872.583
11/26/2014  08:42:00       37.177       37.222       40.899       42.238       34.530       38.860     1784.061     1192.308     1510.129        0.446        0.224       52.608       36.731        0.487      335.297        5.837      872.599
11/26/2014  08:43:00       79.828       90.628       59.060       47.580       32.605       39.348     2263.839     1063.075     1548.301        1.147        0.244      120.772       32.829        0.074      335.107        5.522      872.574
11/26/2014  08:44:00       11.354       45.956       39.880       23.561       24.230       20.094      555.102      587.075      403.758        0.269        0.077       47.338       15.933        0.113      335.347        5.921      872.582
11/26/2014  08:45:00       -1.419      -13.197       36.314       30.699       51.627       25.705      942.433     2665.375      660.750        0.288        0.213       13.273       19.323        2.120      335.585        6.317      872.604
11/26/2014  08:46:00       87.194       95.671       65.389       43.572       24.808       37.498     1898.545      615.429     1406.076        1.247        0.196      129.444       29.169        0.051      335.289        5.824      872.594
11/26/2014  08:47:00       53.468       78.014       57.087       40.207       22.469       34.638     1616.584      504.855     1199.792        0.776        0.166       94.578       26.706        0.080      335.312        5.862      872.594
11/26/2014  08:48:00       53.464      108.546       88.660       58.898       29.656       34.920     3468.958      879.487     1219.399        1.403        0.278      120.999       34.950        0.083      335.321        5.878      872.603
11/26/2014  08:49:00      103.846       88.420       49.545       37.122       30.758       34.331     1378.032      946.070     1178.606        1.228        0.175      136.389       20.788        0.023      335.053        5.432      872.597
11/26/2014  08:50:00       82.236       93.533       48.525       48.388       42.115       35.852     2341.399     1773.651     1285.397        1.163        0.270      124.543       23.388        0.035      335.271        5.794      872.561
11/26/2014  08:51:00       57.911       93.207       72.447       39.787       30.551       28.373     1583.036      933.380      805.036        1.030        0.166      109.732       18.970        0.030      335.355        5.932      872.528
11/26/2014  08:52:00       28.499       43.216       57.795       31.245       41.268       25.162      976.242     1703.064      633.139        0.467        0.166       51.767       21.954        0.180      335.592        6.327      872.516
11/26/2014  08:53:00       49.823       67.103       63.922       44.568       50.927       35.730     1986.315     2593.582     1276.632        0.846        0.293       83.577       33.759        0.163      335.582        6.311      872.521
11/26/2014  08:54:00       49.001       50.451       28.098       33.890       23.423       30.910     1148.541      548.634      955.415        0.419        0.133       70.331       23.810        0.115      335.428        6.056      872.524
11/26/2014  08:55:00       56.528       57.943       29.132       33.954       20.092       33.415     1152.843      403.686     1116.588        0.504        0.134       80.949       23.348        0.083      335.492        6.163      872.499
11/26/2014  08:56:00       48.880       73.004       68.092       54.328       34.314       35.112     2951.570     1177.477     1232.827        0.886        0.268       87.857       31.351        0.127      335.441        6.076      872.485
11/26/2014  08:57:00        4.387       64.773       85.377       30.152       35.986       23.977      909.159     1295.011      574.889        0.714        0.139       64.921       22.937        0.125      335.665        6.450      872.497
11/26/2014  08:58:00       -8.673       51.297       73.291       26.505       47.376       35.532      702.539     2244.520     1262.500        0.614        0.210       52.025       33.133        0.406      335.764        6.615      872.504
11/26/2014  08:59:00       19.704       71.879       73.167       32.890       45.471       31.491     1081.765     2067.607      991.680        0.752        0.207       74.531       27.901        0.140      335.558        6.271      872.485
11/26/2014  09:00:00       10.839       52.708       66.892       33.122       38.246       26.072     1097.094     1462.728      679.752        0.530        0.162       53.811       22.470        0.174      335.737        6.570      872.469
11/26/2014  09:01:00       15.877       74.623       73.472       32.171       39.925       24.318     1034.959     1594.032      591.372        0.722        0.161       76.293       22.428        0.086      335.679        6.474      872.476
11/26/2014  09:02:00       29.636       34.330       33.954       23.936       19.544       21.852      572.950      381.951      477.500        0.232        0.072       45.352       14.465        0.102      335.704        6.515      872.475
11/26/2014  09:03:00       28.806       69.150       51.980       34.254       30.743       38.480     1173.323      945.112     1480.734        0.596        0.180       74.910       24.335        0.106      335.664        6.450      872.450
11/26/2014  09:04:00       76.133       84.371       62.214       38.270       26.706       30.299     1464.563      713.190      918.031        0.994        0.155      113.643       26.991        0.056      335.494        6.165      872.434
11/26/2014  09:05:00       59.411       63.925       50.143       33.582       34.170       27.874     1127.777     1167.609      776.952        0.660        0.154       87.270       24.751        0.080      335.613        6.364      872.419
11/26/2014  09:06:00       82.265       88.736       32.100       28.209       26.928       32.070      795.755      725.135     1028.487        0.911        0.127      121.003       13.898        0.013      335.615        6.367      872.426
11/26/2014  09:07:00       50.666       98.460       90.002       52.175       29.530       26.095     2722.277      872.008      680.959        1.232        0.214      110.731       22.165        0.040      335.824        6.714      872.418
11/26/2014  09:08:00       22.877       64.823       63.849       30.981       37.027       22.076      959.796     1370.973      487.349        0.581        0.141       68.741       21.768        0.100      335.848        6.753      872.406
11/26/2014  09:09:00       28.032       68.609       68.673       53.128       39.394       41.741     2822.602     1551.895     1742.286        0.816        0.306       74.114       39.266        0.281      335.891        6.826      872.423
11/26/2014  09:10:00       75.378       86.044       49.746       30.202       29.177       34.484      912.189      851.301     1189.179        0.926        0.148      114.392       23.045        0.041      335.631        6.393      872.475
11/26/2014  09:11:00       71.709       55.500       56.432       31.215       27.901       31.018      974.397      778.457      962.126        0.706        0.136       90.678        7.924        0.008      335.898        6.838      872.478
11/26/2014  09:12:00       99.947       82.285       34.238       31.248       27.008       26.598      976.468      729.444      707.434        1.017        0.121      129.461       11.043        0.007      335.588        6.321      872.452
11/26/2014  09:13:00       17.045       35.524       39.863       38.497       33.030       27.497     1481.995     1090.996      756.095        0.323        0.166       39.402       22.828        0.336      336.027        7.054      872.444
11/26/2014  09:14:00       19.117       40.729       64.362       33.074       26.464       14.512     1093.861      700.331      210.611        0.409        0.100       44.992       11.493        0.065      336.242        7.413      872.451
11/26/2014  09:15:00       56.732       60.014       48.755       28.854       17.444       32.137      832.549      304.307     1032.811        0.568        0.108       82.585        6.695        0.007      335.982        6.977      872.472
11/26/2014  09:16:00       81.802      111.382       85.753       51.492       38.769       42.074     2651.392     1503.061     1770.187        1.619        0.296      138.194       36.069        0.068      335.934        6.897      872.453
11/26/2014  09:17:00       92.883      107.331       71.152       54.202       38.701       42.640     2937.900     1497.794     1818.137        1.573        0.313      141.941       42.304        0.089      335.936        6.901      872.442
11/26/2014  09:18:00       60.639       41.163       26.344       38.201       45.074       21.923     1459.321     2031.674      480.607        0.502        0.199       73.290       18.227        0.062      335.914        6.866      872.445
11/26/2014  09:19:00       17.966       26.870       19.676       23.282       32.013       20.682      542.038     1024.811      427.746        0.171        0.100       32.323       14.705        0.207      336.263        7.446      872.453
11/26/2014  09:20:00       50.751       37.091       11.424       27.702       19.978       22.731      767.373      399.107      516.676        0.288        0.084       62.860       15.788        0.063      336.198        7.338      872.479
11/26/2014  09:21:00      108.275       78.313       28.495       27.880       23.964       29.042      777.309      574.275      843.444        1.043        0.110      133.627       18.787        0.020      335.987        6.986      872.480
11/26/2014  09:22:00      107.349       76.572       16.592       34.985       36.870       32.936     1223.972     1359.392     1084.760        1.066        0.183      131.860       16.505        0.016      336.110        7.191      872.474
11/26/2014  09:23:00       39.632       71.638       73.456       53.675       46.743       40.590     2881.009     2184.918     1647.579        0.940        0.336       81.869       32.339        0.156      336.440        7.744      872.469
11/26/2014  09:24:00      105.753      118.696       75.126       45.978       37.953       38.159     2113.994     1440.437     1456.098        1.796        0.251      158.973       30.353        0.036      336.074        7.131      872.468
11/26/2014  09:25:00       13.643       82.778       96.953       51.755       48.549       37.421     2678.554     2356.975     1400.362        1.144        0.322       83.895       41.138        0.240      336.336        7.569      872.466
11/26/2014  09:26:00       34.551       51.296       40.432       55.151       48.619       45.930     3041.656     2363.794     2109.557        0.649        0.376       61.847       39.414        0.406      336.328        7.555      872.456
11/26/2014  09:27:00       75.861       70.439       -4.506       39.211       42.703       27.887     1537.531     1823.554      777.708        0.744        0.207      103.521       11.067        0.011      336.150        7.260      872.461
11/26/2014  09:28:00       49.362       63.469        5.791       45.315       30.165       26.066     2053.456      909.954      679.412        0.507        0.182       80.405       14.027        0.030      336.291        7.495      872.448
11/26/2014  09:29:00      113.007       76.977       12.916       36.152       30.424       28.524     1306.950      925.646      813.593        1.095        0.152      136.734       12.180        0.008      335.909        6.857      872.457
11/26/2014  09:30:00        4.209       19.823       43.473       24.301       26.876       35.991      590.557      722.334     1295.360        0.245        0.130       20.264       14.188        0.490      336.540        7.910      872.467
11/26/2014  09:31:00       84.835       98.761       70.927       72.537       44.266       45.821     5261.612     1959.486     2099.572        1.565        0.466      130.195       43.985        0.114      336.306        7.520      872.417
11/26/2014  09:32:00      102.393       81.385       38.204       25.524       17.009       28.334      651.482      289.323      802.798        1.016        0.087      130.798       14.379        0.012      335.974        6.964      872.384
11/26/2014  09:33:00       81.031       50.020       22.216       54.397       24.366       31.337     2959.069      593.716      982.025        0.705        0.227       95.226       23.062        0.059      336.212        7.362      872.381
11/26/2014  09:34:00       41.402        8.127       13.228       33.773       23.550       27.473     1140.609      554.607      754.774        0.220        0.122       42.193       23.580        0.312      336.333        7.566      872.422
11/26/2014  09:35:00       27.003       20.885       29.353       21.292       25.474       29.451      453.349      648.924      867.387        0.200        0.098       34.137       15.919        0.217      336.562        7.947      872.432
11/26/2014  09:36:00       47.718       33.271        3.711       34.505       27.932       33.924     1190.573      780.204     1150.820        0.326        0.156       58.173       22.372        0.148      336.362        7.612      872.394
11/26/2014  09:37:00       91.887       68.570       11.076       40.439       37.940       35.257     1635.297     1439.418     1243.047        0.879        0.216      114.652       25.022        0.048      336.341        7.579      872.367
11/26/2014  09:38:00       46.273       46.322       -5.904       33.443       27.557       28.232     1118.463      759.375      797.057        0.350        0.134       65.474       14.898        0.052      336.526        7.886      872.341
11/26/2014  09:39:00       40.379       39.938       -3.047       23.831       19.901       18.872      567.939      396.042      356.162        0.228        0.066       56.794       12.976        0.052      336.398        7.673      872.342
11/26/2014  09:40:00       -6.090       66.210       -7.212       31.513       28.271       19.663      993.077      799.257      386.614        0.333        0.109       66.489       15.702        0.056      336.470        7.792      872.364
11/26/2014  09:41:00       45.947       82.870       -0.033       30.357       32.383       31.126      921.518     1048.665      968.857        0.596        0.147       94.755       24.004        0.064      336.710        8.195      872.345
11/26/2014  09:42:00       47.419       39.106      -14.722       50.110       33.000       21.701     2510.981     1089.001      470.934        0.403        0.204       61.464       25.688        0.175      336.707        8.189      872.334
11/26/2014  09:43:00       38.001       43.516       52.708       56.248       35.981       32.047     3163.839     1294.602     1026.992        0.580        0.274       57.773       27.094        0.220      336.913        8.534      872.330
11/26/2014  09:44:00       77.741      101.961       70.722       43.197       28.047       32.115     1866.018      786.648     1031.376        1.256        0.184      128.217       21.961        0.029      336.593        7.999      872.324
11/26/2014  09:45:00       95.355       95.889       55.044       34.856       37.791       43.265     1214.923     1428.133     1871.879        1.292        0.226      135.230       36.453        0.073      336.570        7.961      872.303
11/26/2014  09:46:00       30.939       88.657       98.881       37.417       43.172       25.047     1400.063     1863.857      627.356        1.124        0.195       93.900       26.109        0.077      336.768        8.292      872.286
11/26/2014  09:47:00       35.839       99.759      100.636       47.716       47.565       37.417     2276.792     2262.450     1400.053        1.365        0.297      106.002       34.106        0.104      336.686        8.153      872.266
11/26/2014  09:48:00       37.955       57.642       64.525       30.380       27.739       12.303      922.945      769.476      151.366        0.538        0.092       69.016       15.158        0.048      336.590        7.994      872.271
11/26/2014  09:49:00       16.187       52.485       72.056       23.003       33.029       17.210      529.157     1090.931      296.190        0.506        0.096       54.924       16.812        0.094      336.781        8.312      872.264
11/26/2014  09:50:00       50.091       94.000       80.976       29.211       29.388       22.248      853.269      863.650      494.955        1.006        0.111      106.513       17.547        0.027      336.762        8.282      872.236
11/26/2014  09:51:00       18.477       65.592       89.988       38.889       50.907       24.787     1512.329     2591.489      614.400        0.873        0.236       68.145       27.522        0.163      337.068        8.793      872.245
11/26/2014  09:52:00        9.849       27.471       56.326       30.742       25.503       27.240      945.076      650.395      742.040        0.318        0.117       29.184       21.442        0.540      337.081        8.815      872.270
11/26/2014  09:53:00       55.733       63.902       33.092       28.522       17.464       31.856      813.491      304.976     1014.830        0.521        0.107       84.791       17.223        0.041      336.671        8.128      872.292
11/26/2014  09:54:00       62.565       59.916        3.992       32.005       18.293       17.560     1024.314      334.648      308.369        0.459        0.083       86.628       12.495        0.021      336.779        8.308      872.235
11/26/2014  09:55:00       73.729       62.236        0.497       39.650       29.176       27.683     1572.099      851.215      766.355        0.625        0.159       96.485       19.599        0.041      337.078        8.809      872.187
11/26/2014  09:56:00       95.333       43.338        6.715       38.548       40.307       29.450     1485.937     1624.650      867.330        0.749        0.199      104.722       19.545        0.035      336.963        8.617      872.181
11/26/2014  09:57:00       32.276       80.734        0.246       40.750       38.758       29.920     1660.582     1502.191      895.206        0.581        0.203       86.947       19.660        0.051      337.089        8.828      872.187
11/26/2014  09:58:00       55.950       38.322        9.540       54.360       26.639       29.976     2955.009      709.661      898.542        0.463        0.228       67.816       12.865        0.036      337.103        8.851      872.195
11/26/2014  09:59:00       39.007       51.938       25.318       47.579       50.252       37.229     2263.800     2525.262     1386.006        0.552        0.309       64.955       22.159        0.116      337.290        9.166      872.209
11/26/2014  10:00:00      119.637       83.716       32.951       46.620       36.745       41.192     2173.380     1350.162     1696.765        1.381        0.261      146.018       23.091        0.025      336.979        8.644      872.217
11/26/2014  10:01:00       79.591       78.720       44.378       41.440       43.158       46.627     1717.285     1862.573     2174.058        1.013        0.288      111.944       31.647        0.080      337.049        8.760      872.212
11/26/2014  10:02:00       31.762       46.861       40.993       51.141       45.040       39.951     2615.441     2028.573     1596.107        0.556        0.312       56.611       11.872        0.044      337.364        9.287      872.217
11/26/2014  10:03:00       31.787       78.301       66.628       58.227       51.975       55.618     3390.342     2701.410     3093.346        1.038        0.459       84.508       41.852        0.245      337.137        8.907      872.202
11/26/2014  10:04:00       45.604       65.375       52.453       27.814       28.492       32.793      773.600      811.804     1075.358        0.588        0.133       79.709       18.605        0.054      337.151        8.930      872.194
11/26/2014  10:05:00       63.031       36.622       13.281       31.120       31.206       25.294      968.432      973.789      639.766        0.404        0.129       72.897       13.403        0.034      336.973        8.634      872.167
11/26/2014  10:06:00      112.717       55.743       15.533       36.606       18.929       30.418     1339.976      358.305      925.247        0.934        0.131      125.748       16.505        0.017      337.005        8.687      872.153
11/26/2014  10:07:00       56.811       56.471        0.638       38.722       18.908       25.986     1499.411      357.528      675.270        0.447        0.127       80.103       17.454        0.047      337.055        8.769      872.131
11/26/2014  10:08:00        9.838       47.656        0.137       32.111       23.366       23.882     1031.129      545.992      570.362        0.226        0.107       48.661       12.547        0.066      337.329        9.230      872.147
11/26/2014  10:09:00       21.225       54.533       27.477       37.505       38.998       25.440     1406.607     1520.875      647.181        0.388        0.179       58.518       16.656        0.081      337.778        9.982      872.143
11/26/2014  10:10:00       13.808       41.777       59.871       32.059       37.602       23.511     1027.780     1413.947      552.752        0.426        0.150       44.000       23.744        0.291      337.749        9.934      872.139
11/26/2014  10:11:00       20.497       44.230       39.163       40.626       26.213       22.861     1650.469      687.141      522.618        0.338        0.143       48.749       14.528        0.089      337.752        9.938      872.121
11/26/2014  10:12:00       71.606       62.325       10.528       40.993       35.560       30.112     1680.432     1264.532      906.732        0.649        0.193       94.931       13.820        0.021      337.703        9.857      872.094
11/26/2014  10:13:00       64.171       58.829       13.688       28.130       34.003       33.445      791.279     1156.211     1118.601        0.542        0.153       87.056       14.609        0.028      337.691        9.836      872.078
11/26/2014  10:14:00       54.782       53.357       -0.409       26.489       31.400       24.214      701.667      985.957      586.295        0.406        0.114       76.472       12.854        0.028      337.698        9.847      872.068
11/26/2014  10:15:00       69.039       50.896       -1.765       31.603       32.256       26.522      998.722     1040.455      703.406        0.505        0.137       85.772       19.090        0.050      337.446        9.424      872.066
11/26/2014  10:16:00       83.386       67.274        8.028       23.639       17.869       23.337      558.815      319.303      544.627        0.648        0.071      107.141       13.658        0.016      337.336        9.243      872.085
11/26/2014  10:17:00       33.286       45.561        4.994       19.454       16.385       19.877      378.477      268.455      395.077        0.213        0.052       56.425       12.279        0.047      337.478        9.478      872.101
11/26/2014  10:18:00       52.008       38.764        5.840       15.314       10.361       17.528      234.519      107.354      307.228        0.245        0.032       64.865       10.550        0.026      337.488        9.495      872.102
11/26/2014  10:19:00       36.360       60.612        5.040       18.396       23.200       26.339      338.417      538.222      693.754        0.330        0.079       70.681       19.627        0.077      337.652        9.771      872.085
11/26/2014  10:20:00       14.253       20.945       22.220       21.167       23.595       24.726      448.042      556.724      611.393        0.138        0.081       25.334        8.996        0.126      338.135       10.582      872.066
11/26/2014  10:21:00       40.254       43.494       42.729       41.884       25.170       36.504     1754.280      633.531     1332.514        0.453        0.186       59.263       21.083        0.127      337.930       10.238      872.028
11/26/2014  10:22:00       48.174       65.716       31.097       35.895       26.975       36.863     1288.417      727.627     1358.897        0.549        0.169       81.482       23.421        0.083      337.998       10.350      872.000
11/26/2014  10:23:00        6.108       44.949       69.251       34.892       33.993       31.447     1217.473     1155.524      988.927        0.511        0.168       45.362       25.244        0.310      338.168       10.634      871.972
11/26/2014  10:24:00       11.262       25.234       42.108       34.034       37.167       23.380     1158.307     1381.398      546.603        0.281        0.154       27.633       19.248        0.485      338.138       10.586      871.978
11/26/2014  10:25:00       46.638       55.262       55.095       35.097       33.951       20.940     1231.795     1152.690      438.495        0.554        0.141       72.312       14.509        0.040      337.976       10.315      871.955
11/26/2014  10:26:00       73.288       81.739       66.732       25.861       20.894       27.199      668.780      436.555      739.763        0.917        0.092      109.784       19.625        0.032      337.820       10.053      871.933
11/26/2014  10:27:00       46.786       88.243       71.923       40.147       29.268       28.613     1611.805      856.614      818.730        0.922        0.164       99.878       22.528        0.051      337.910       10.204      871.922
11/26/2014  10:28:00       78.570       91.585       77.380       36.531       27.607       20.029     1334.514      762.152      401.170        1.152        0.125      120.669       15.437        0.016      337.866       10.130      871.931
11/26/2014  10:29:00       66.526       78.611       43.690       53.162       30.228       25.896     2826.187      913.745      670.609        0.846        0.221      102.982       24.408        0.056      337.982       10.324      871.923
11/26/2014  10:30:00       36.069       44.712        6.825       27.061       29.297       28.851      732.278      858.327      832.356        0.288        0.121       57.447       20.543        0.128      338.145       10.598      871.903
11/26/2014  10:31:00       37.656       46.101       -3.086       37.363       24.678       25.282     1396.028      609.028      639.191        0.310        0.132       59.526       19.163        0.104      338.131       10.574      871.873
11/26/2014  10:32:00        1.861       20.502       -3.160       30.428       14.086       17.093      925.860      198.417      292.181        0.092        0.071       20.586       12.087        0.345      338.334       10.915      871.875
11/26/2014  10:33:00       19.819       22.834       11.587       43.037       38.353       17.522     1852.146     1470.957      307.032        0.234        0.182       30.236       21.526        0.507      338.625       11.404      871.858
11/26/2014  10:34:00       13.388       33.359       52.024       41.339       39.173       39.751     1708.941     1534.485     1580.129        0.441        0.241       35.945       31.272        0.757      338.784       11.671      871.843
11/26/2014  10:35:00       74.121       74.172       25.364       25.591       27.974       36.934      654.884      782.572     1364.117        0.722        0.140      104.859       10.205        0.009      337.962       10.290      871.803
11/26/2014  10:36:00       53.903       34.766       14.990       45.947       52.582       33.099     2111.106     2764.850     1095.559        0.515        0.299       64.143       34.640        0.292      338.287       10.837      871.767
11/26/2014  10:37:00       41.601       54.132       30.102       46.986       37.378       36.790     2207.692     1397.108     1353.516        0.526        0.248       68.271       36.921        0.292      338.503       11.199      871.746
11/26/2014  10:38:00       44.227       37.787       36.514       49.806       26.643       37.729     2480.615      709.850     1423.501        0.466        0.231       58.171       35.648        0.376      338.507       11.206      871.731
11/26/2014  10:39:00       62.689       74.762       11.167       29.006       34.928       32.262      841.350     1219.980     1040.834        0.637        0.155       97.567       17.417        0.032      338.268       10.805      871.699
11/26/2014  10:40:00       77.070       86.543       14.213       43.943       33.419       32.003     1931.010     1116.835     1024.194        0.885        0.204      115.885       18.162        0.025      338.215       10.716      871.660
11/26/2014  10:41:00       48.204      -19.647       32.919       39.838       77.407       36.639     1587.088     5991.908     1342.415        0.636        0.446       52.054       40.522        0.606      338.567       11.306      871.655
11/26/2014  10:42:00       -1.962       85.484       99.366       23.514       42.455       33.947      552.923     1802.416     1152.400        1.035        0.175       85.507       26.180        0.094      338.762       11.634      871.663
11/26/2014  10:43:00      119.365       94.359       60.520       55.994       44.839       45.321     3135.325     2010.512     2054.006        1.701        0.360      152.156       33.216        0.048      338.260       10.791      871.666
11/26/2014  10:44:00      103.801       80.744       57.627       27.390       26.978       31.058      750.215      727.799      964.576        1.153        0.122      131.507       23.182        0.031      338.165       10.631      871.647
11/26/2014  10:45:00       94.189       43.301       49.552       38.295       56.153       35.097     1466.528     3153.211     1231.781        0.953        0.293      103.666       37.285        0.129      338.237       10.754      871.619
11/26/2014  10:46:00       46.971       81.301       16.649       36.991       54.429       29.884     1368.363     2962.530      893.048        0.716        0.261       93.894       32.129        0.117      338.528       11.241      871.568
11/26/2014  10:47:00       26.882       89.766       48.966       50.906       48.152       69.258     2591.411     2318.568     4796.734        1.044        0.485       93.704       47.843        0.261      338.650       11.445      871.547
11/26/2014  10:48:00      -11.394       75.141      108.404       22.633       46.048       25.450      512.231     2120.426      647.689        1.040        0.164       76.000       24.932        0.108      338.787       11.675      871.550
11/26/2014  10:49:00       35.478       88.795       80.251       46.878       47.508       38.339     2197.573     2256.996     1469.897        1.075        0.296       95.620       29.731        0.097      338.669       11.477      871.557
11/26/2014  10:50:00       87.764       74.360       24.406       54.620       39.670       39.550     2983.296     1573.706     1564.185        0.997        0.306      115.030       29.522        0.066      338.749       11.610      871.551
11/26/2014  10:51:00      116.309       85.015       27.259       45.516       36.333       39.721     2071.733     1320.110     1577.744        1.323        0.248      144.067       23.789        0.027      338.555       11.285      871.526
11/26/2014  10:52:00       48.636       38.817       30.239       55.360       61.372       43.119     3064.769     3766.476     1859.262        0.674        0.435       62.227       36.680        0.347      338.816       11.725      871.519
11/26/2014  10:53:00       28.988       74.529       78.458       33.121       38.825       19.694     1096.985     1507.371      387.848        0.777        0.150       79.968       15.441        0.037      338.835       11.757      871.510
11/26/2014  10:54:00       35.528       29.217       32.720       25.042       26.236       26.409      627.081      688.350      697.435        0.260        0.101       45.998       20.107        0.191      338.700       11.530      871.509
11/26/2014  10:55:00       33.295       29.750       19.799       25.820       16.889       25.579      666.678      285.249      654.278        0.200        0.080       44.650       17.274        0.150      338.668       11.475      871.465
11/26/2014  10:56:00       68.483       90.966       73.213       48.910       45.139       42.246     2392.235     2037.521     1784.747        1.227        0.311      113.863       26.907        0.056      338.818       11.728      871.429
11/26/2014  10:57:00       30.360       64.838       52.771       36.382       46.151       26.746     1323.668     2129.949      715.327        0.604        0.208       71.594       31.616        0.195      338.660       11.461      871.402
11/26/2014  10:58:00       16.404       -2.347       17.373       50.100       57.293       26.387     2510.045     3282.499      696.290        0.353        0.324       16.571       34.945        4.447      338.797       11.692      871.387
11/26/2014  10:59:00       98.534       73.757       14.411       42.778       33.737       37.057     1829.978     1138.157     1373.194        0.985        0.217      123.081       15.199        0.015      338.619       11.395      871.364
11/26/2014  11:00:00       78.543       53.546       14.744       36.373       27.598       32.385     1322.973      761.646     1048.796        0.619        0.157       95.059       20.156        0.045      338.728       11.577      871.315
11/26/2014  11:01:00       42.666       52.810       18.549       45.884       34.487       45.205     2105.367     1189.372     2043.492        0.514        0.267       67.892       33.266        0.240      339.004       12.041      871.294
11/26/2014  11:02:00       25.818       28.100       40.535       34.431       27.384       34.858     1185.488      749.879     1215.062        0.312        0.158       38.160       16.745        0.193      339.125       12.243      871.310
11/26/2014  11:03:00       61.075       36.940       11.350       22.152       23.431       23.643      490.714      549.002      558.987        0.341        0.080       71.377       11.125        0.024      338.723       11.568      871.328
11/26/2014  11:04:00       23.732       35.317        8.668       18.416       16.037       17.749      339.157      257.183      315.023        0.140        0.046       42.550       10.059        0.056      338.802       11.701      871.292
11/26/2014  11:05:00        0.945       26.656       -0.165       14.763       17.542       12.139      217.961      307.738      147.358        0.069        0.034       26.673        8.940        0.112      339.183       12.340      871.236
11/26/2014  11:06:00       30.230       42.346       26.877       42.662       26.211       28.114     1820.080      686.992      790.415        0.336        0.165       52.029       20.841        0.160      339.435       12.766      871.194
11/26/2014  11:07:00       47.173       55.180       28.045       53.407       45.012       37.446     2852.310     2026.068     1402.188        0.617        0.314       72.596       32.795        0.204      339.564       12.983      871.171
11/26/2014  11:08:00       67.661       88.365       -0.791       44.116       36.014       35.243     1946.180     1297.041     1242.091        0.844        0.224      111.294       23.913        0.046      339.147       12.280      871.167
11/26/2014  11:09:00      114.079      103.258       19.004       35.056       26.499       33.965     1228.957      702.177     1153.648        1.356        0.154      153.870       20.379        0.018      339.034       12.092      871.162
11/26/2014  11:10:00       38.493       60.838        3.693       36.600       27.155       27.070     1339.572      737.368      732.792        0.400        0.140       71.993       16.060        0.050      339.229       12.419      871.169
11/26/2014  11:11:00       31.221       31.449       12.528       23.647       21.082       16.666      559.183      444.431      277.763        0.170        0.064       44.314       10.513        0.056      339.092       12.188      871.156
11/26/2014  11:12:00      107.678       76.540        8.693       40.414       45.234       27.751     1633.271     2046.122      770.108        1.099        0.222      132.109       19.680        0.022      339.053       12.124      871.133
11/26/2014  11:13:00       59.317       50.194        1.540       50.481       30.523       25.080     2548.308      931.650      629.001        0.507        0.205       77.705       14.693        0.036      339.082       12.171      871.129
11/26/2014  11:14:00       86.619       47.981       22.539       62.219       40.755       38.646     3871.164     1660.975     1493.547        0.867        0.351       99.020       25.146        0.064      339.404       12.715      871.107
11/26/2014  11:15:00      139.973       85.409       21.492       37.444       35.328       41.681     1402.018     1248.059     1737.318        1.587        0.219      163.974       13.699        0.007      339.301       12.540      871.102
11/26/2014  11:16:00       92.829       91.009        5.730       54.394       27.885       24.044     2958.743      777.600      578.101        1.062        0.216      129.999       13.867        0.011      339.109       12.218      871.086
11/26/2014  11:17:00       99.927       72.534       -4.531       41.776       28.980       25.930     1745.195      839.826      672.369        0.926        0.163      123.477       18.507        0.022      339.174       12.327      871.074
11/26/2014  11:18:00       80.573       70.244       37.145       60.893       41.231       57.974     3707.957     1699.955     3360.945        1.079        0.438      106.894       30.544        0.082      339.510       12.892      871.049
11/26/2014  11:19:00        1.286       48.989       78.438       29.933       40.642       36.641      895.979     1651.785     1342.532        0.622        0.195       49.006       30.223        0.380      339.651       13.130      871.053
11/26/2014  11:20:00       41.659       55.006       47.569       30.853       33.142       24.747      951.881     1098.400      612.419        0.484        0.133       69.001       19.264        0.078      339.336       12.598      871.060
11/26/2014  11:21:00       66.335       79.557       50.487       61.598       32.545       38.609     3794.320     1059.163     1490.652        0.981        0.317      103.584       37.606        0.132      339.428       12.754      871.019
11/26/2014  11:22:00       63.192       91.053       80.400       39.036       49.589       30.198     1523.808     2459.097      911.913        1.182        0.245      110.833       29.651        0.072      339.470       12.825      870.977
11/26/2014  11:23:00       55.490       61.076       56.107       66.409       45.192       35.313     4410.195     2042.350     1247.039        0.883        0.385       82.519       22.449        0.074      339.491       12.861      870.910
11/26/2014  11:24:00       79.527       64.948       31.893       50.758       38.182       46.075     2576.345     1457.852     2122.897        0.886        0.308      102.677       34.328        0.112      339.618       13.075      870.907
11/26/2014  11:25:00       61.654       65.037       -1.928       52.086       36.685       23.604     2712.932     1345.766      557.138        0.632        0.231       89.616       20.064        0.050      339.319       12.572      870.956
11/26/2014  11:26:00      -20.935       52.580        2.216       26.125       31.203       25.761      682.540      973.626      663.634        0.276        0.116       56.595       16.969        0.090      339.650       13.128      870.974
11/26/2014  11:27:00       23.024       42.566        5.401       37.880       26.041       24.828     1434.879      678.157      616.427        0.255        0.136       48.394       18.745        0.150      339.770       13.331      870.932
11/26/2014  11:28:00       47.122       98.612       62.410       53.659       46.220       52.304     2879.236     2136.266     2735.687        1.179        0.388      109.293       24.365        0.050      339.839       13.448      870.848
11/26/2014  11:29:00       59.638       86.233       85.160       40.793       43.225       35.421     1664.033     1868.403     1254.649        1.152        0.239      104.847       32.299        0.095      339.640       13.111      870.810
11/26/2014  11:30:00       44.287       34.260        2.310       32.769       43.378       29.421     1073.830     1881.670      865.612        0.348        0.191       55.991       10.184        0.033      339.529       12.925      870.791
11/26/2014  11:31:00       29.968       23.970        9.698       31.542       34.132       26.844      994.924     1165.015      720.577        0.222        0.144       38.375       16.151        0.177      339.791       13.368      870.785
11/26/2014  11:32:00       54.220       35.009       26.928       32.300       25.898       27.752     1043.281      670.708      770.160        0.369        0.124       64.540       16.142        0.063      339.782       13.351      870.782
11/26/2014  11:33:00       15.383        2.903       48.649       33.600       60.940       39.457     1128.987     3713.625     1556.825        0.450        0.320       15.654       43.139        7.594      340.002       13.722      870.786
11/26/2014  11:34:00       38.445      -11.943       47.851       56.344       89.450       54.111     3174.634     8001.251     2928.000        0.900        0.705       40.257       65.259        2.628      339.772       13.334      870.774
11/26/2014  11:35:00       20.134        6.961       45.653       37.558       66.366       39.912     1410.626     4404.449     1592.949        0.497        0.370       21.303       39.379        3.417      339.997       13.713      870.706
11/26/2014  11:36:00      122.957       74.677       25.687       66.623       44.069       39.776     4438.594     1942.093     1582.163        1.466        0.398      143.857       30.275        0.044      340.038       13.781      870.637
11/26/2014  11:37:00       70.018       48.913       27.398       57.358       45.734       40.512     3289.950     2091.581     1641.217        0.753        0.351       85.411       31.913        0.140      339.986       13.696      870.609
11/26/2014  11:38:00       43.885       30.861       27.637       49.205       23.920       29.777     2421.098      572.179      886.687        0.376        0.194       53.650       25.396        0.224      339.935       13.610      870.659
11/26/2014  11:39:00       53.908        9.123       11.387       32.330       28.647       20.739     1045.234      820.663      430.094        0.271        0.115       54.675       17.839        0.106      339.671       13.164      870.722
11/26/2014  11:40:00       57.334       55.700       29.355       29.396       17.578       30.159      864.136      308.984      909.550        0.467        0.104       79.935       15.952        0.040      339.708       13.227      870.711
11/26/2014  11:41:00      134.576       94.853       44.397       24.554       32.896       27.596      602.877     1082.154      761.515        1.576        0.122      164.644       13.721        0.007      339.633       13.100      870.642
11/26/2014  11:42:00       62.127       39.659        2.814       41.538       36.354       30.830     1725.380     1321.648      950.484        0.472        0.200       73.707        9.596        0.017      339.846       13.461      870.583
11/26/2014  11:43:00       78.994       87.357       -7.608       57.572       44.584       44.263     3314.563     1987.752     1959.229        1.059        0.363      117.776       28.719        0.059      339.809       13.398      870.541
11/26/2014  11:44:00       92.470       65.915       24.533       64.774       59.942       39.568     4195.637     3593.054     1565.592        1.142        0.468      113.558       12.743        0.013      340.040       13.786      870.506
11/26/2014  11:45:00      123.869       81.170        7.606       41.512       36.865       29.992     1723.264     1359.029      899.520        1.299        0.199      148.095       20.907        0.020      339.794       13.370      870.507
11/26/2014  11:46:00       -5.623       27.650        7.277       29.104       22.677       26.563      847.040      514.238      705.597        0.146        0.103       28.216       17.255        0.374      340.143       13.961      870.521
11/26/2014  11:47:00        9.445       36.200       58.096       30.069       28.459       24.957      904.138      809.937      622.877        0.356        0.117       37.412       20.522        0.301      340.452       14.483      870.514
11/26/2014  11:48:00       41.087       88.741       88.927       45.820       37.587       22.816     2099.439     1412.818      520.580        1.075        0.202       97.791       18.416        0.035      340.154       13.979      870.477
11/26/2014  11:49:00       80.887       77.235       56.582       50.072       32.875       48.385     2507.178     1080.754     2341.135        1.082        0.296      111.840       39.913        0.127      340.016       13.746      870.409
11/26/2014  11:50:00       59.970       42.192       19.380       35.924       35.750       39.148     1290.550     1278.057     1532.588        0.493        0.205       73.325       34.109        0.216      340.044       13.795      870.392
11/26/2014  11:51:00      -17.665       -7.913      -11.373       17.660       11.386        7.279      311.888      129.649       52.979        0.050        0.025       19.356        6.432        0.110      340.078       13.850      870.395
11/26/2014  11:52:00       11.230      -24.638       10.293       26.837       52.229       33.095      720.247     2727.838     1095.256        0.269        0.227       27.077       26.201        0.936      340.317       14.254      870.422
11/26/2014  11:53:00       40.226       57.057       59.490       40.938       23.753       22.771     1675.952      564.227      518.498        0.559        0.138       69.812       14.739        0.045      340.269       14.173      870.392
11/26/2014  11:54:00       88.664       71.646       38.821       61.388       53.587       51.105     3768.462     2871.549     2611.769        1.187        0.463      113.993       43.850        0.148      340.317       14.253      870.287
11/26/2014  11:55:00       99.087       79.152       -0.509       49.419       41.739       33.152     2442.242     1742.127     1099.079        1.068        0.264      126.820       24.834        0.038      340.367       14.339      870.193
11/26/2014  11:56:00      155.125       98.588       53.130       67.185       55.818       61.211     4513.818     3115.601     3746.803        2.399        0.569      183.802       42.545        0.054      340.250       14.139      870.150
11/26/2014  11:57:00       35.980        2.670       17.656       62.516       42.789       37.114     3908.201     1830.908     1377.476        0.436        0.356       36.079       17.922        0.247      340.356       14.320      870.205
11/26/2014  11:58:00      -16.857      -23.434       -8.899       35.536       33.364       24.227     1262.773     1113.161      586.941        0.194        0.148       28.867       15.930        0.305      340.291       14.210      870.273
11/26/2014  11:59:00      -32.347      -14.248        6.172       27.218       35.853       17.639      740.794     1285.440      311.139        0.181        0.117       35.346       10.126        0.082      340.410       14.411      870.262
11/26/2014  12:00:00       78.840       32.742       42.685       63.708       52.404       44.690     4058.709     2746.187     1997.185        0.895        0.440       85.368       34.093        0.159      340.533       14.619      870.191
11/26/2014  12:01:00       87.418      113.120       97.362      100.579       53.028       56.186    10116.083     2811.953     3156.864        2.300        0.804      142.962       64.510        0.204      340.428       14.439      870.105
11/26/2014  12:02:00      135.339       72.799       11.298       65.378       36.450       34.415     4274.241     1328.580     1184.369        1.526        0.339      153.676       13.690        0.008      340.203       14.059      870.105
11/26/2014  12:03:00       34.222       32.461       -5.865       34.587       18.593       15.020     1196.287      345.698      225.613        0.201        0.088       47.168       10.721        0.052      340.333       14.281      870.131
11/26/2014  12:04:00       67.468      -23.380        4.527       40.784       33.870       24.580     1663.335     1147.169      604.186        0.427        0.171       71.404       18.680        0.068      340.461       14.497      870.123
11/26/2014  12:05:00        1.366       43.476       47.377       20.430       38.189       27.158      417.374     1458.421      737.563        0.337        0.131       43.498       15.315        0.124      340.975       15.367      870.089
11/26/2014  12:06:00       39.467       38.461       32.446       40.914       33.888       27.954     1673.934     1148.388      781.426        0.385        0.180       55.108       21.245        0.149      341.010       15.426      870.067
11/26/2014  12:07:00        8.924      -52.547       28.098       23.441       48.012       28.531      549.466     2305.195      814.002        0.365        0.183       53.299       20.929        0.154      341.030       15.460      870.057
11/26/2014  12:08:00       46.681     -100.158       -0.769       41.802       38.027       29.695     1747.408     1446.058      881.799        0.814        0.204      110.502       26.036        0.056      340.802       15.074      870.066
11/26/2014  12:09:00       37.925      -87.224      -15.722       27.155       31.420       22.800      737.396      987.196      519.832        0.577        0.112       95.112       13.524        0.020      340.830       15.122      870.062
11/26/2014  12:10:00       36.400       42.540       35.586       56.276       66.279       37.168     3166.968     4392.936     1381.460        0.667        0.447       55.988       33.187        0.351      341.089       15.561      870.024
11/26/2014  12:11:00      108.209      101.220       25.845       49.582       35.884       47.510     2458.331     1287.643     2257.233        1.431        0.300      148.172       34.364        0.054      340.655       14.826      869.958
11/26/2014  12:12:00       81.038       25.539        8.140       51.914       33.245       28.991     2695.085     1105.222      840.501        0.596        0.232       84.967       16.437        0.037      340.582       14.704      869.960
11/26/2014  12:13:00       14.712       29.020       44.042       37.321       27.964       22.489     1392.840      781.971      505.772        0.284        0.134       32.536       23.645        0.528      340.964       15.348      869.974
11/26/2014  12:14:00        0.160       33.623       41.148       12.981       19.242       31.004      168.517      370.272      961.276        0.216        0.075       33.623       14.223        0.179      340.772       15.024      869.993
11/26/2014  12:15:00       -2.462       -0.153       -1.153       22.331       18.923       13.369      498.694      358.082      178.723        0.052        0.052        2.467       12.208       24.490      340.808       15.083      869.976
11/26/2014  12:16:00        5.519       27.752       31.977       34.644       35.663       24.364     1200.222     1271.851      593.610        0.244        0.153       28.295       12.876        0.207      341.084       15.551      869.919
11/26/2014  12:17:00       -1.488       11.827       32.907       22.576       29.101       23.431      509.670      846.891      549.020        0.156        0.095       11.921       19.734        2.741      341.245       15.824      869.894
11/26/2014  12:18:00       -8.312       49.111       18.205       23.942       32.062       25.637      573.197     1028.000      657.273        0.253        0.113       49.809       20.670        0.172      341.171       15.699      869.912
11/26/2014  12:19:00       47.247       38.873       27.307       42.219       19.811       26.635     1782.428      392.495      709.434        0.369        0.144       61.183       20.135        0.108      341.019       15.444      869.917
11/26/2014  12:20:00       45.448       75.200       41.585       38.991       41.445       51.195     1520.331     1717.708     2620.897        0.765        0.293       87.867       34.698        0.156      340.909       15.254      869.895
11/26/2014  12:21:00       85.714       94.629       61.938       25.876       29.896       39.597      669.572      893.774     1567.936        1.163        0.157      127.677       27.014        0.045      340.915       15.265      869.854
11/26/2014  12:22:00      118.323       47.738       -1.471       43.176       35.561       32.754     1864.138     1264.561     1072.837        1.024        0.210      127.591       23.781        0.035      340.883       15.212      869.788
11/26/2014  12:23:00       73.745       39.958       11.454       70.698       47.232       33.078     4998.248     2230.889     1094.137        0.774        0.416       83.874       26.034        0.096      341.096       15.572      869.735
11/26/2014  12:24:00       30.100       43.375      -10.451       43.861       53.894       24.186     1923.828     2904.524      584.974        0.415        0.271       52.796       17.867        0.115      341.086       15.555      869.729
11/26/2014  12:25:00       47.285       28.740        1.282       42.543       32.634       21.781     1809.934     1064.985      474.432        0.321        0.167       55.334       20.081        0.132      340.835       15.130      869.732
11/26/2014  12:26:00       21.612       78.846       -4.401       25.563       75.385       28.437      653.464     5682.845      808.663        0.692        0.357       81.755       37.890        0.215      340.935       15.300      869.718
11/26/2014  12:27:00       21.783       87.982      -12.264       19.666       32.418       17.604      386.759     1050.910      309.916        0.506        0.087       90.638       12.158        0.018      340.882       15.207      869.711
11/26/2014  12:28:00       38.604       30.996       13.971       39.530       86.878       35.235     1562.625     7547.760     1241.472        0.650        0.518       49.508       16.736        0.114      340.968       15.355      869.689
11/26/2014  12:29:00       52.584       43.219       53.173       35.126       35.935       34.483     1233.829     1291.350     1189.079        0.559        0.186       68.066       24.327        0.128      341.039       15.475      869.663
11/26/2014  12:30:00       -2.206       21.770       20.565       15.122       25.024       25.887      228.679      626.203      670.128        0.121        0.076       21.882        6.733        0.095      341.362       16.022      869.642
11/26/2014  12:31:00        4.677       17.635       34.352       21.964       24.082       14.352      482.431      579.928      205.984        0.139        0.063       18.245       13.267        0.529      341.489       16.237      869.647
11/26/2014  12:32:00       10.939      -53.712       18.336       17.907       15.665       16.441      320.663      245.393      270.310        0.209        0.042       54.814        9.610        0.031      341.255       15.841      869.655
11/26/2014  12:33:00       12.376      -28.675        0.107       20.022       31.554       21.670      400.900      995.633      469.576        0.142        0.093       31.232       20.656        0.437      341.364       16.025      869.641
11/26/2014  12:34:00       92.267       94.707       51.892       88.556       44.732       39.172     7842.135     2000.965     1534.408        1.577        0.569      132.221       43.412        0.108      341.201       15.749      869.593
11/26/2014  12:35:00      149.473       69.343       11.712       50.126       29.811       34.262     2512.611      888.693     1173.857        1.593        0.229      164.774       29.304        0.032      340.942       15.311      869.561
11/26/2014  12:36:00       66.857       15.384       42.670       43.676       28.586       35.028     1907.567      817.155     1226.988        0.524        0.198       68.604       24.847        0.131      341.242       15.819      869.537
11/26/2014  12:37:00       50.463        8.500       20.959       49.838       36.985       26.547     2483.828     1367.902      704.757        0.381        0.228       51.174       22.603        0.195      341.306       15.928      869.552
11/26/2014  12:38:00       26.688       57.405       63.381       46.857       40.504       35.263     2195.573     1640.538     1243.476        0.655        0.254       63.306       31.345        0.245      341.349       16.002      869.562
11/26/2014  12:39:00       20.788       47.557       61.427       24.949       23.781       20.495      622.429      565.531      420.041        0.404        0.080       51.902       17.271        0.111      341.302       15.920      869.590
11/26/2014  12:40:00       67.929       14.303       27.661       32.376       25.864       30.073     1048.220      668.968      904.400        0.410        0.131       69.419       24.281        0.122      341.155       15.672      869.606
11/26/2014  12:41:00       44.089       32.635       21.675       42.348       27.860       30.370     1793.316      776.206      922.338        0.348        0.175       54.853       26.849        0.240      341.349       16.000      869.596
11/26/2014  12:42:00       62.460       65.403       52.734       49.103       33.730       42.020     2411.152     1137.717     1765.707        0.814        0.266       90.436       36.268        0.161      341.309       15.932      869.566
11/26/2014  12:43:00       28.976       46.722       -0.575       37.595       28.286       24.836     1413.400      800.100      616.819        0.293        0.142       54.978       27.041        0.242      341.240       15.816      869.535
11/26/2014  12:44:00       -4.800      -74.795      -10.559       29.446       33.499       17.982      867.085     1122.155      323.355        0.402        0.116       74.949        7.929        0.011      341.451       16.172      869.512
11/26/2014  12:45:00       23.856      -44.783        2.720       17.036       24.159       19.064      290.209      583.660      363.441        0.191        0.062       50.740       13.638        0.072      341.517       16.284      869.494
11/26/2014  12:46:00       15.725      -89.536       -6.791       32.210       31.132       27.858     1037.503      969.180      776.075        0.555        0.139       90.906       19.993        0.048      341.565       16.365      869.498
11/26/2014  12:47:00       66.418     -101.213      -20.639       47.579       51.446       33.585     2263.756     2646.658     1127.974        1.056        0.302      121.059       27.304        0.051      341.537       16.317      869.482
11/26/2014  12:48:00       31.276       -5.501       31.164       36.133       51.597       32.249     1305.624     2662.279     1040.015        0.349        0.250       31.756       39.078        1.514      341.579       16.390      869.443
11/26/2014  12:49:00       43.389       29.715       26.254       40.773       21.698       24.124     1662.403      470.796      581.945        0.308        0.136       52.589       24.290        0.213      341.630       16.475      869.392
11/26/2014  12:50:00       65.988       52.466       10.501       35.872       33.580       28.265     1286.831     1127.606      798.899        0.521        0.161       84.304       18.578        0.049      341.461       16.191      869.374
11/26/2014  12:51:00       61.246       58.919       16.564       40.532       31.546       20.890     1642.867      995.129      436.409        0.529        0.154       84.985       18.873        0.049      341.598       16.420      869.355
11/26/2014  12:52:00       30.321       32.584       26.092       60.291       39.771       32.583     3635.053     1581.742     1061.668        0.447        0.314       44.509       18.911        0.181      341.780       16.730      869.352
11/26/2014  12:53:00       19.531      -32.027        2.225       20.437       32.520       23.575      417.659     1057.544      555.799        0.172        0.102       37.512       23.498        0.392      341.772       16.717      869.379
11/26/2014  12:54:00      -31.355      -27.765       -4.222       30.108       35.597       14.502      906.514     1267.151      210.301        0.208        0.119       41.881       13.125        0.098      341.651       16.512      869.415
11/26/2014  12:55:00       14.146      -62.656        5.493       35.972       44.492       35.905     1293.987     1979.510     1289.175        0.436        0.228       64.233       19.026        0.088      341.720       16.628      869.421
11/26/2014  12:56:00        5.960       36.700       70.558       26.683       41.265       34.013      711.979     1702.788     1156.896        0.497        0.179       37.180       33.167        0.796      341.774       16.721      869.398
11/26/2014  12:57:00       23.501       60.748       64.601       29.195       27.017       22.727      852.347      729.892      516.501        0.526        0.105       65.136       20.901        0.103      341.615       16.451      869.375
11/26/2014  12:58:00       32.494       59.435       61.315       34.116       42.479       35.425     1163.915     1804.505     1254.925        0.628        0.211       67.738       32.640        0.232      341.722       16.632      869.348
11/26/2014  12:59:00       73.327       57.071       36.791       27.942       23.937       29.615      780.752      572.996      877.036        0.611        0.112       92.919       21.389        0.053      341.587       16.404      869.322
11/26/2014  13:00:00        8.561      -33.222        7.443       28.178       64.418       25.024      793.984     4149.683      626.203        0.340        0.278       34.307       30.508        0.791      341.696       16.588      869.321
11/26/2014  13:01:00       42.492      -81.172       -9.847       26.989       22.029       20.951      728.387      485.270      438.957        0.507        0.083       91.621       14.050        0.024      341.604       16.432      869.321
11/26/2014  13:02:00       40.180       -9.144       13.272       37.902       45.858       23.597     1436.598     2102.960      556.813        0.298        0.205       41.208       24.593        0.356      341.662       16.531      869.307
11/26/2014  13:03:00       47.745       -2.156       -2.982       15.817       23.216       14.969      250.176      538.990      224.068        0.165        0.051       47.794       11.516        0.058      341.530       16.306      869.298
11/26/2014  13:04:00       40.266       12.014        7.978       14.494       30.149       15.401      210.065      908.977      237.200        0.159        0.068       42.020       13.336        0.101      341.629       16.474      869.299
11/26/2014  13:05:00       35.376       14.099       24.948       21.833       54.689       28.898      476.682     2990.851      835.078        0.319        0.215       38.082       35.978        0.893      341.772       16.717      869.297
11/26/2014  13:06:00       53.756       53.515       40.390       33.017       23.292       32.613     1090.106      542.540     1063.576        0.504        0.135       75.852       14.095        0.035      341.777       16.725      869.287
11/26/2014  13:07:00       41.967       64.366       68.404       32.261       28.436       20.892     1040.744      808.615      436.494        0.643        0.114       76.839       13.983        0.033      341.937       16.997      869.272
11/26/2014  13:08:00       74.100       85.577       69.821       43.894       32.794       29.266     1926.639     1075.462      856.483        1.077        0.193      113.200       23.192        0.042      341.765       16.705      869.247
11/26/2014  13:09:00       13.685       42.468       61.214       28.699       47.685       30.519      823.614     2273.870      931.425        0.488        0.201       44.618       31.520        0.499      341.802       16.768      869.227
11/26/2014  13:10:00       94.616       75.224       18.921       46.049       24.520       40.320     2120.481      601.221     1625.709        0.966        0.217      120.875       34.398        0.081      341.669       16.543      869.216
11/26/2014  13:11:00       84.547       67.447       31.827       40.223       29.609       31.702     1617.854      876.673     1005.036        0.810        0.175      108.154       20.074        0.034      341.725       16.636      869.205
11/26/2014  13:12:00       79.645       68.244       14.444       31.974       36.804       33.412     1022.310     1354.526     1116.392        0.735        0.175      104.883       20.335        0.038      341.730       16.647      869.197
11/26/2014  13:13:00       48.292       31.686       10.281       30.686       38.224       23.433      941.609     1461.082      549.098        0.320        0.148       57.759       16.878        0.085      341.831       16.818      869.175
11/26/2014  13:14:00       17.952       39.688       -3.751       39.043       35.172       25.332     1524.360     1237.091      641.722        0.266        0.170       43.559       21.623        0.246      341.691       16.580      869.172
11/26/2014  13:15:00       29.377       40.481       -5.683       30.170       27.115       25.102      910.247      735.209      630.105        0.240        0.114       50.017       16.738        0.112      341.654       16.516      869.177
11/26/2014  13:16:00       51.352       52.535       13.988       28.245       27.310       25.709      797.783      745.836      660.928        0.390        0.110       73.464       20.410        0.077      341.727       16.641      869.164
11/26/2014  13:17:00       58.112       37.213       12.360       37.372       27.490       26.209     1396.686      755.727      686.930        0.388        0.142       69.006       14.920        0.047      341.842       16.836      869.131
11/26/2014  13:18:00       62.584       36.554       13.492       43.249       29.462       25.388     1870.460      867.994      644.529        0.441        0.169       72.478       16.522        0.052      341.772       16.717      869.117
11/26/2014  13:19:00       37.326       12.947        0.042       46.048       42.509       25.481     2120.446     1806.982      649.271        0.307        0.229       39.508       28.440        0.518      341.781       16.731      869.132
11/26/2014  13:20:00       45.020       14.149       15.981       28.351       25.986       19.290      803.791      675.294      372.086        0.217        0.093       47.191        7.302        0.024      341.876       16.895      869.143
11/26/2014  13:21:00       56.925       38.621       19.187       32.505       28.038       28.416     1056.563      786.124      807.462        0.387        0.133       68.790       23.066        0.112      341.766       16.708      869.139
11/26/2014  13:22:00       90.188       60.473       10.648       28.652       18.116       23.958      820.933      328.200      573.967        0.681        0.086      108.586       15.144        0.019      341.680       16.562      869.114
11/26/2014  13:23:00       74.112       37.203        4.012       34.364       22.711       22.945     1180.903      515.795      526.466        0.456        0.111       82.926        7.909        0.009      341.730       16.646      869.079
11/26/2014  13:24:00       40.534       14.977       16.675       32.869       35.414       19.120     1080.363     1254.180      365.577        0.242        0.135       43.212       12.484        0.083      341.871       16.884      869.058
11/26/2014  13:25:00       22.227      -22.544        8.624       34.206       37.266       16.482     1170.022     1388.791      271.643        0.195        0.142       31.659       19.945        0.397      341.910       16.951      869.050
11/26/2014  13:26:00        0.126       12.031        9.954       17.091       19.310       24.875      292.096      372.870      618.750        0.076        0.064       12.032       16.826        1.956      342.077       17.235      869.031
11/26/2014  13:27:00       -6.789       38.784       65.767       16.426       28.418       20.609      269.824      807.576      424.751        0.369        0.075       39.374       16.993        0.186      342.147       17.354      869.025
11/26/2014  13:28:00       58.928       46.749       17.074       38.021       25.738       29.910     1445.630      662.439      894.606        0.448        0.150       75.219       27.572        0.134      342.010       17.121      869.026
11/26/2014  13:29:00       48.483       62.992        1.868       32.430       37.218       27.858     1051.682     1385.165      776.085        0.477        0.161       79.490        8.943        0.013      342.050       17.188      869.007
11/26/2014  13:30:00       35.855       48.374       -3.818       28.838       26.615       25.346      831.654      708.365      642.430        0.291        0.109       60.214       16.736        0.077      341.895       16.924      868.980
11/26/2014  13:31:00       29.771       19.226       -1.150       23.434       38.803       24.726      549.158     1505.656      611.373        0.196        0.133       35.439       11.228        0.100      342.050       17.189      868.985
11/26/2014  13:32:00       28.044       -6.574       12.922       33.455       27.072       23.592     1119.265      732.888      556.563        0.170        0.120       28.804       16.283        0.320      342.071       17.225      868.990
11/26/2014  13:33:00       -6.707       34.211       53.243       25.626       22.419       19.142      656.669      502.627      366.401        0.279        0.076       34.863       16.026        0.211      342.260       17.545      868.979
11/26/2014  13:34:00        9.908       46.155       44.851       24.732       29.637       30.474      611.689      878.335      928.681        0.333        0.121       47.206       21.959        0.216      342.130       17.324      868.946
11/26/2014  13:35:00      117.658       44.928       14.174       52.247       25.744       30.491     2729.744      662.728      929.711        1.019        0.216      125.944       18.565        0.022      341.937       16.996      868.922
11/26/2014  13:36:00       90.469       25.819       18.863       49.083       30.789       34.101     2409.187      947.972     1162.898        0.686        0.226       94.081       24.925        0.070      342.094       17.264      868.916
11/26/2014  13:37:00       82.112       65.981       15.902       49.711       29.077       31.337     2471.180      845.486      981.993        0.782        0.215      105.337       14.566        0.019      342.098       17.269      868.892
11/26/2014  13:38:00      117.575       65.690       31.336       50.000       36.593       45.238     2500.034     1339.038     2046.451        1.250        0.294      134.681       32.583        0.059      342.081       17.242      868.862
11/26/2014  13:39:00       21.699       43.892       47.730       35.743       40.132       31.570     1277.577     1610.575      996.666        0.428        0.194       48.962       28.434        0.337      342.238       17.508      868.868
11/26/2014  13:40:00       22.790      -27.698       -3.603       22.880       15.327       17.784      523.499      234.931      316.280        0.119        0.054       35.869       13.143        0.134      342.151       17.360      868.878
11/26/2014  13:41:00       76.921      -39.393        6.058       60.519       36.735       23.350     3662.529     1349.465      545.221        0.653        0.278       86.422       28.843        0.111      342.102       17.277      868.854
11/26/2014  13:42:00       28.549       27.213       38.479       59.660       40.053       28.239     3559.322     1604.281      797.416        0.450        0.298       39.441       32.650        0.685      342.252       17.530      868.844
11/26/2014  13:43:00       34.194      -11.508       34.498       20.500       27.355       18.719      420.267      748.304      350.392        0.201        0.076       36.078       17.097        0.225      342.252       17.532      868.857
11/26/2014  13:44:00       44.750      -22.148       11.895       27.845       39.163       30.753      775.339     1533.721      945.752        0.294        0.163       49.931       29.844        0.357      342.242       17.513      868.838
11/26/2014  13:45:00       54.701       35.871       49.833       48.483       37.473       32.387     2350.630     1404.214     1048.918        0.578        0.240       65.413       24.994        0.146      342.295       17.605      868.789
11/26/2014  13:46:00       73.199       43.708       22.165       47.170       34.489       34.194     2224.987     1189.520     1169.260        0.617        0.229       85.255       17.737        0.043      342.240       17.511      868.768
11/26/2014  13:47:00       58.623       47.685       19.758       43.987       22.729       24.773     1934.813      516.589      613.684        0.458        0.153       75.568       22.621        0.090      342.192       17.430      868.776
11/26/2014  13:48:00       44.497       30.210       15.389       37.133       15.975       15.251     1378.890      255.200      232.600        0.250        0.093       53.783        9.084        0.029      342.267       17.556      868.780
11/26/2014  13:49:00       56.629       -2.145       23.907       34.226       52.194       26.176     1171.394     2724.242      685.169        0.418        0.229       56.670       31.460        0.308      342.318       17.644      868.789
11/26/2014  13:50:00       35.673       30.086       34.439       43.291       28.124       18.586     1874.106      790.966      345.447        0.319        0.151       46.667       11.386        0.060      342.503       17.956      868.785
11/26/2014  13:51:00       54.509       60.833       44.963       47.323       34.895       38.901     2239.441     1217.692     1513.314        0.683        0.249       81.681       32.005        0.154      342.313       17.635      868.749
11/26/2014  13:52:00       77.770       77.239       56.348       69.063       35.506       50.983     4769.745     1260.648     2599.262        1.191        0.431      109.608       48.582        0.196      342.236       17.504      868.720
11/26/2014  13:53:00       93.227       72.037       30.204       25.131       26.770       33.421      631.559      716.625     1116.950        0.863        0.123      117.816       16.055        0.019      342.185       17.418      868.713
11/26/2014  13:54:00      126.054       80.325       21.736       30.138       22.720       24.236      908.303      516.200      587.378        1.241        0.101      149.472       10.748        0.005      342.239       17.509      868.695
11/26/2014  13:55:00       87.893       50.780       60.721       43.736       45.708       38.042     1912.830     2089.222     1447.193        0.972        0.272      101.508       32.751        0.104      342.320       17.647      868.679
11/26/2014  13:56:00       52.998       32.815       28.777       48.191       27.125       25.139     2322.345      735.753      631.961        0.420        0.185       62.335       17.778        0.081      342.466       17.895      868.670
11/26/2014  13:57:00        5.915      -31.678        8.844       36.643       32.469       20.144     1342.677     1054.263      405.762        0.196        0.140       32.225       17.488        0.295      342.709       18.309      868.673
11/26/2014  13:58:00       53.106      -13.799       47.094       41.748       87.153       40.131     1742.890     7595.648     1610.467        0.809        0.547       54.869       54.471        0.986      342.498       17.949      868.678
11/26/2014  13:59:00       25.516        0.346       28.737       27.666       33.449       27.585      765.430     1118.809      760.916        0.206        0.132       25.519       14.049        0.303      342.606       18.134      868.651
11/26/2014  14:00:00       32.209       32.330       39.515       36.838       32.629       29.752     1357.070     1064.631      885.181        0.347        0.165       45.636       21.937        0.231      342.495       17.944      868.618
11/26/2014  14:01:00        9.827       29.305       43.334       33.422       25.894       24.003     1117.025      670.516      576.126        0.260        0.118       30.908       22.780        0.543      342.723       18.332      868.612
11/26/2014  14:02:00       95.350       58.602       15.178       52.339       28.831       30.156     2739.362      831.212      909.377        0.862        0.224      111.918       15.399        0.019      342.400       17.784      868.609
11/26/2014  14:03:00       52.982        5.297        5.764       40.879       35.171       21.844     1671.125     1236.998      477.153        0.313        0.169       53.246       14.775        0.077      342.439       17.849      868.602
11/26/2014  14:04:00       42.474       34.431       52.914       45.717       53.034       34.342     2090.033     2812.560     1179.356        0.593        0.304       54.677       33.544        0.376      342.574       18.080      868.607
11/26/2014  14:05:00      149.644       80.648       21.928       35.776       34.603       29.511     1279.953     1197.361      870.893        1.636        0.167      169.992        8.569        0.003      342.398       17.781      868.605
11/26/2014  14:06:00       96.068       57.791       11.020       41.580       39.366       28.331     1728.879     1549.644      802.645        0.838        0.204      112.111       17.393        0.024      342.419       17.817      868.600
11/26/2014  14:07:00       64.588       53.304       43.833       40.805       31.876       26.214     1665.052     1016.090      687.183        0.615        0.168       83.743       22.843        0.074      342.560       18.057      868.605
11/26/2014  14:08:00       65.447       90.618       83.334       60.703       53.878       43.036     3684.893     2902.807     1852.085        1.394        0.422      111.781       38.427        0.118      342.701       18.293      868.598
11/26/2014  14:09:00      117.393       68.588       40.120       34.899       43.822       39.223     1217.926     1920.378     1538.456        1.238        0.234      135.961       28.354        0.043      342.472       17.905      868.585
11/26/2014  14:10:00       62.018       67.424       32.427       50.417       26.784       29.543     2541.861      717.375      872.792        0.679        0.207       91.609       17.112        0.035      342.463       17.889      868.571
11/26/2014  14:11:00      -13.784       70.797       92.980       23.871       40.657       25.465      569.834     1653.014      648.488        0.836        0.144       72.126       15.643        0.047      342.658       18.221      868.559
11/26/2014  14:12:00       12.105       47.010       52.458       30.035       39.146       24.620      902.098     1532.443      606.127        0.407        0.152       48.544       15.140        0.097      342.746       18.371      868.526
11/26/2014  14:13:00       76.027       43.669       16.714       55.921       43.973       26.323     3127.140     1933.637      692.890        0.686        0.288       87.676       16.390        0.035      342.662       18.230      868.536
11/26/2014  14:14:00       44.447       14.255       30.908       37.478       25.048       25.668     1404.604      627.391      658.865        0.291        0.135       46.677       18.024        0.149      342.725       18.334      868.557
11/26/2014  14:15:00       70.686       20.249       41.672       57.159       51.292       43.751     3267.202     2630.854     1914.115        0.748        0.391       73.529       50.992        0.481      342.617       18.152      868.538
11/26/2014  14:16:00       39.280       98.134      103.447       58.646       47.839       30.332     3439.371     2288.582      920.049        1.426        0.332      105.703       30.726        0.084      342.809       18.477      868.528
11/26/2014  14:17:00       33.208       71.155       85.262       54.305       34.586       42.475     2949.073     1196.179     1804.159        0.969        0.297       78.522       42.312        0.290      342.697       18.288      868.541
11/26/2014  14:18:00       46.833       62.367       69.057       44.144       33.603       28.862     1948.716     1129.158      833.031        0.738        0.196       77.994       22.841        0.086      342.651       18.209      868.535
11/26/2014  14:19:00       52.410       42.271       60.645       52.134       58.654       43.622     2717.965     3440.334     1902.863        0.813        0.403       67.333       50.792        0.569      342.626       18.168      868.517
11/26/2014  14:20:00       50.733       52.285       34.210       36.519       42.648       44.912     1333.659     1818.830     2017.066        0.582        0.258       72.853       33.787        0.215      342.649       18.207      868.514
11/26/2014  14:21:00       30.444       32.189       -5.435       18.652       18.997       16.737      347.890      360.887      280.131        0.149        0.049       44.305        9.429        0.045      342.700       18.294      868.517
11/26/2014  14:22:00       14.895       31.793        7.940       18.945       18.004       16.891      358.923      324.130      285.315        0.113        0.048       35.109       11.812        0.113      342.808       18.476      868.521
11/26/2014  14:23:00       21.282       -9.889       20.839       18.570       25.558       11.582      344.830      653.214      134.146        0.106        0.057       23.468        7.649        0.106      342.919       18.666      868.539
11/26/2014  14:24:00       32.887        0.046       12.923       18.344       27.662       15.528      336.496      765.198      241.108        0.130        0.067       32.887       15.028        0.209      342.867       18.578      868.533
11/26/2014  14:25:00       40.213      -12.905        7.765       33.600       23.035       21.799     1128.928      530.633      475.181        0.199        0.107       42.233       17.309        0.168      342.918       18.664      868.526
11/26/2014  14:26:00       -9.318       23.550       44.008       14.466       25.057       22.577      209.276      627.832      509.705        0.196        0.067       25.326       20.499        0.655      343.241       19.215      868.522
11/26/2014  14:27:00       -1.396       40.592       51.853       16.831       24.320       18.224      283.298      591.459      332.111        0.277        0.060       40.617       11.497        0.080      343.195       19.134      868.523
11/26/2014  14:28:00       33.573       59.691       59.254       33.772       30.341       26.603     1140.570      920.550      707.717        0.548        0.138       68.485       19.272        0.079      342.939       18.699      868.529
11/26/2014  14:29:00       24.606       -6.764       27.387       40.253       48.273       31.212     1620.292     2330.240      974.180        0.316        0.246       25.519       38.943        2.329      343.081       18.941      868.543
11/26/2014  14:30:00       66.400      -24.562       26.400       38.804       44.316       32.196     1505.759     1963.950     1036.602        0.511        0.225       70.797       34.028        0.231      342.932       18.688      868.538
11/26/2014  14:31:00       44.418      -64.245        4.865       44.606       49.134       28.698     1989.725     2414.101      823.592        0.567        0.261       78.105       30.707        0.155      343.003       18.808      868.520
11/26/2014  14:32:00       21.402        1.435       45.208       42.748       77.472       37.867     1827.351     6001.951     1433.909        0.588        0.463       21.450       48.741        5.163      342.984       18.777      868.503
11/26/2014  14:33:00       34.743      -36.199       17.158       36.823       53.022       31.504     1355.964     2811.365      992.475        0.398        0.258       50.174       30.439        0.368      343.046       18.882      868.499
11/26/2014  14:34:00       26.240      -33.294        6.057       24.599       31.621       22.463      605.120      999.913      504.598        0.197        0.105       42.391       19.369        0.209      343.100       18.974      868.495
11/26/2014  14:35:00        3.102        1.372       -0.122       15.353       21.481       12.941      235.702      461.444      167.482        0.044        0.043        3.392       11.476       11.446      343.151       19.060      868.481
11/26/2014  14:36:00       46.514      -11.661        6.029       16.621       31.651       23.326      276.246     1001.797      544.099        0.208        0.091       47.954       23.700        0.244      343.010       18.821      868.449
11/26/2014  14:37:00       88.872       44.366       29.261       35.978       36.326       33.071     1294.439     1319.573     1093.674        0.721        0.185       99.331       22.904        0.053      342.937       18.697      868.401
11/26/2014  14:38:00       39.857       16.637       30.462       48.933       32.263       29.303     2394.393     1040.880      858.692        0.354        0.215       43.190       24.604        0.325      343.035       18.863      868.399
11/26/2014  14:39:00      -32.080       -5.033        1.173       27.493       21.805       15.658      755.842      475.446      245.187        0.127        0.074       32.473       14.992        0.213      343.124       19.015      868.440
11/26/2014  14:40:00       43.541       33.417       23.092       24.716       22.535       16.851      610.896      507.836      283.958        0.247        0.070       54.886       14.200        0.067      343.069       18.922      868.406
11/26/2014  14:41:00        5.282       36.798       37.807       17.343       23.608       18.253      300.788      557.339      333.155        0.200        0.060       37.175       11.670        0.099      343.157       19.072      868.407
11/26/2014  14:42:00       -1.518       -8.260       11.970        9.657       17.251       14.832       93.263      297.593      219.999        0.041        0.031        8.398        9.717        1.339      343.324       19.354      868.430
11/26/2014  14:43:00       -1.604        6.993       13.120        8.637       12.295        8.723       74.592      151.156       76.085        0.026        0.015        7.175        7.998        1.243      343.268       19.261      868.452
11/26/2014  14:44:00      -16.381       27.393        0.119       14.633       13.818       11.109      214.129      190.925      123.399        0.077        0.026       31.917        9.190        0.083      343.303       19.321      868.457
11/26/2014  14:45:00       60.569       52.409        7.758       36.008       17.035       14.357     1296.605      290.194      206.110        0.413        0.090       80.095       14.284        0.032      343.134       19.033      868.449
11/26/2014  14:46:00       49.095       43.031       38.577       43.799       36.360       36.993     1918.364     1322.021     1368.492        0.518        0.230       65.284       28.081        0.185      343.189       19.126      868.428
11/26/2014  14:47:00       -8.193       20.919       47.588       12.355       29.797       20.787      152.644      887.867      432.085        0.212        0.074       22.466       21.681        0.931      343.405       19.492      868.433
11/26/2014  14:48:00       40.428       51.027       50.875       43.692       30.231       24.825     1909.012      913.913      616.276        0.513        0.172       65.101       24.009        0.136      343.153       19.064      868.435
11/26/2014  14:49:00       80.258       43.395       16.111       36.711       25.057       22.607     1347.704      627.837      511.086        0.553        0.124       91.238        6.408        0.005      343.051       18.890      868.447
11/26/2014  14:50:00       23.347       13.517       12.570       23.184       22.787       13.307      537.503      519.234      177.074        0.106        0.062       26.978       13.743        0.259      343.144       19.049      868.449
11/26/2014  14:51:00       14.914       26.257       -9.571       20.144       12.036       13.189      405.789      144.869      173.941        0.086        0.036       30.197       11.171        0.137      343.203       19.149      868.460
11/26/2014  14:52:00       30.706       23.312        9.620       15.334       14.427       12.782      235.128      208.145      163.373        0.109        0.030       38.553        3.838        0.010      343.140       19.041      868.441
11/26/2014  14:53:00       37.990       23.038        5.397       21.801       19.043       15.770      475.274      362.622      248.695        0.154        0.054       44.429       13.371        0.091      343.092       18.961      868.443
11/26/2014  14:54:00       41.142       33.171        3.146       24.450       21.308       12.459      597.799      454.031      155.217        0.200        0.060       52.849       10.892        0.042      343.109       18.991      868.452
11/26/2014  14:55:00       31.433       21.960        2.833       30.867       23.561       19.215      952.766      555.110      369.232        0.168        0.094       38.344       11.450        0.089      343.118       19.006      868.450
11/26/2014  14:56:00       56.081       25.756        7.888       24.537       17.084       12.442      602.047      291.860      154.799        0.246        0.052       61.713        6.324        0.011      343.118       19.007      868.449
11/26/2014  14:57:00       30.782       18.711        1.477       35.941       26.934       18.746     1291.752      725.466      351.398        0.183        0.118       36.022       18.344        0.259      343.146       19.053      868.439
11/26/2014  14:58:00       31.760       17.297       -0.168       24.181       19.214       14.759      584.731      369.172      217.830        0.124        0.059       36.165        8.944        0.061      343.156       19.070      868.433
11/26/2014  14:59:00       46.416       37.681        8.501       44.459       24.796       15.176     1976.627      614.826      230.297        0.323        0.141       59.786       17.017        0.081      343.116       19.002      868.415
11/26/2014  15:00:00       69.812       53.124        2.270       28.872       19.371       17.445      833.619      375.217      304.344        0.461        0.076       87.726       13.596        0.024      343.086       18.950      868.413
11/26/2014  15:01:00       17.621       10.367        8.296       18.210       12.029       11.756      331.612      144.696      138.202        0.055        0.031       20.444        4.777        0.055      343.167       19.089      868.415
11/26/2014  15:02:00       30.204        9.663        6.159       13.315        9.852        8.266      177.299       97.071       68.327        0.069        0.017       31.712        8.380        0.070      343.133       19.029      868.408
11/26/2014  15:03:00       81.148       45.759        4.906       32.181       22.394       16.770     1035.595      501.506      281.233        0.526        0.091       93.161        7.243        0.006      343.099       18.973      868.392
11/26/2014  15:04:00       69.937       47.492        4.465       27.924       30.528       19.739      779.759      931.952      389.643        0.463        0.105       84.538       19.725        0.054      343.100       18.975      868.373
11/26/2014  15:05:00       69.899       36.037       -2.804       25.790       30.376       21.727      665.133      922.705      472.071        0.413        0.103       78.642       15.222        0.037      343.125       19.018      868.380
11/26/2014  15:06:00       28.342      -26.061        8.591       25.705       28.136       16.442      660.747      791.642      270.330        0.164        0.086       38.502       14.289        0.138      343.197       19.140      868.394
11/26/2014  15:07:00       63.164       24.636       32.276       36.438       30.289       29.118     1327.742      917.447      847.834        0.437        0.155       67.799       19.582        0.083      343.127       19.020      868.394
11/26/2014  15:08:00       51.796       33.949       20.691       47.585       37.969       29.299     2264.287     1441.669      858.429        0.441        0.228       61.930       23.481        0.144      343.116       19.002      868.388
11/26/2014  15:09:00       73.521       31.283       22.874       46.433       32.127       27.029     2155.986     1032.139      730.549        0.541        0.196       79.900       24.066        0.091      343.146       19.053      868.390
11/26/2014  15:10:00       69.634       69.831       52.871       60.673       33.188       37.380     3681.267     1101.425     1397.256        0.935        0.309       98.617       31.425        0.102      343.204       19.153      868.379
11/26/2014  15:11:00       53.955       47.051       39.856       40.814       38.667       34.266     1665.801     1495.133     1174.163        0.552        0.217       71.589       27.714        0.150      343.220       19.179      868.376
11/26/2014  15:12:00       29.333       53.173       60.842       34.963       30.860       21.857     1222.388      952.332      477.720        0.502        0.133       60.727       16.854        0.077      343.280       19.280      868.369
11/26/2014  15:13:00       19.671      -16.378       27.697       21.284       29.233       18.353      453.006      854.565      336.837        0.153        0.082       25.597       19.383        0.573      343.309       19.330      868.382
11/26/2014  15:14:00       50.078       32.271       41.484       26.840       22.590       18.571      720.411      510.286      344.877        0.342        0.079       59.576       14.890        0.062      343.230       19.195      868.364
11/26/2014  15:15:00       38.620       47.434       52.308       28.880       26.748       21.601      834.051      715.449      466.590        0.425        0.101       61.168       19.685        0.104      343.323       19.354      868.340
11/26/2014  15:16:00       30.399       12.733       19.655       28.437       33.761       32.389      808.642     1139.838     1049.067        0.223        0.150       32.958       21.899        0.441      343.293       19.304      868.322
11/26/2014  15:17:00       25.814       38.696       -4.207       28.828       24.437       18.385      831.053      597.159      337.997        0.197        0.088       46.516       16.616        0.128      343.299       19.312      868.302
11/26/2014  15:18:00       56.608       55.114       -2.858       38.725       30.911       20.369     1499.661      955.483      414.911        0.456        0.144       79.007       19.706        0.062      343.249       19.228      868.297
11/26/2014  15:19:00       56.224       47.175      -10.703       23.991       28.448       15.300      575.591      809.305      234.084        0.356        0.081       73.394       10.857        0.022      343.218       19.175      868.278
11/26/2014  15:20:00       69.231       76.163        0.466       35.517       44.052       30.918     1261.482     1940.607      955.899        0.738        0.208      102.926       19.540        0.036      343.206       19.154      868.276
11/26/2014  15:21:00      103.554       36.104        7.576       31.333       27.824       27.932      981.738      774.173      780.190        0.731        0.127      109.667       15.183        0.019      343.174       19.100      868.256
11/26/2014  15:22:00       48.974       37.198        4.119       51.040       23.039       18.245     2605.043      530.817      332.892        0.363        0.173       61.499       15.551        0.064      343.282       19.284      868.265
11/26/2014  15:23:00       52.942       34.585       16.358       26.193       22.794       22.884      686.083      519.588      523.664        0.300        0.086       63.237       17.119        0.073      343.222       19.183      868.272
11/26/2014  15:24:00       34.899       12.049       -0.143       18.788       15.970       14.238      352.974      255.045      202.719        0.109        0.041       36.920       11.912        0.104      343.262       19.249      868.277
11/26/2014  15:25:00       17.304       21.795        4.303       17.735       16.506       15.681      314.539      272.439      245.880        0.081        0.042       27.829        8.750        0.099      343.332       19.367      868.276
11/26/2014  15:26:00      -13.382      -23.758        1.145       23.614       26.627       17.825      557.610      709.006      317.746        0.116        0.079       27.268       18.665        0.469      343.351       19.401      868.279
11/26/2014  15:27:00       23.504       -1.007       15.250       42.534       39.652       23.463     1809.103     1572.303      550.526        0.236        0.197       23.526       23.918        1.034      343.299       19.313      868.270
11/26/2014  15:28:00       19.506       22.199       23.451       35.518       13.037       10.684     1261.512      169.960      114.149        0.148        0.077       29.552       10.801        0.134      343.312       19.335      868.245
11/26/2014  15:29:00       13.618       25.618        5.985       15.793        9.475       11.651      249.409       89.767      135.742        0.068        0.024       29.013        3.782        0.017      343.281       19.283      868.243
11/26/2014  15:30:00       22.033        8.480       11.002       12.570        8.539        9.225      157.995       72.906       85.092        0.050        0.016       23.609        6.831        0.084      343.412       19.504      868.246
11/26/2014  15:31:00       -5.531       18.191        6.986       19.900       19.114       17.493      396.021      365.328      306.004        0.074        0.053       19.013       15.191        0.638      343.460       19.588      868.243
11/26/2014  15:32:00       -7.120       18.505        3.928       18.587       16.096       18.623      345.485      259.088      346.821        0.068        0.048       19.827       14.358        0.524      343.423       19.523      868.248
11/26/2014  15:33:00      -25.520        8.473       -3.044       14.346       11.376        6.979      205.813      129.424       48.711        0.056        0.019       26.890        7.362        0.075      343.498       19.654      868.257
11/26/2014  15:34:00       33.489       31.442       19.166       12.318       19.924       14.137      151.742      396.968      199.842        0.161        0.037       45.936       12.900        0.079      343.412       19.505      868.237
11/26/2014  15:35:00       31.358      -14.718      -10.879       23.268       14.973        8.289      541.398      224.189       68.710        0.108        0.042       34.640        9.601        0.077      343.392       19.471      868.254
11/26/2014  15:36:00        6.244       -2.427        3.325       21.583       24.748       25.151      465.819      612.457      632.570        0.088        0.086        6.699       20.912        9.744      343.398       19.478      868.270
11/26/2014  15:37:00     -130.940       17.293        2.204       95.820       74.725       45.244     9181.454     5583.876     2047.062        1.713        0.841      132.077       46.886        0.126      343.832       20.221      868.256
11/26/2014  15:38:00     -279.662     -135.173        8.955      193.367      146.886       74.925    37390.775    21575.575     5613.684        8.056        3.229      310.617       94.101        0.092      344.470       21.309      868.234
11/26/2014  15:39:00     -166.174     -168.895       -3.933      126.976       95.033       54.948    16122.827     9031.317     3019.276        4.216        1.409      236.938       59.435        0.063      344.498       21.357      868.249
11/26/2014  15:40:00     -184.389     -145.317       -0.440      104.878       61.308       49.671    10999.321     3758.688     2467.249        3.617        0.861      234.769       50.386        0.046      344.500       21.360      868.257
11/26/2014  15:41:00     -226.257     -141.411       -0.479      142.213       97.145       61.397    20224.628     9437.245     3769.548        5.230        1.672      266.813       58.831        0.049      344.638       21.595      868.258
11/26/2014  15:42:00     -205.429     -142.595      -10.910      118.776      100.954       59.142    14107.699    10191.793     3497.769        4.522        1.390      250.069       56.647        0.051      344.603       21.537      868.239
11/26/2014  15:43:00     -321.058     -175.065       -9.639      194.334      127.689       71.858    37765.705    16304.369     5163.584        9.651        2.962      365.686       95.636        0.068      344.833       21.929      868.236
11/26/2014  15:44:00     -271.525     -209.862       -7.274      165.608      106.111       74.590    27426.153    11259.551     5563.603        8.103        2.212      343.173       74.044        0.047      344.809       21.887      868.258
11/26/2014  15:45:00     -276.903     -178.592      -13.653      159.043      122.802       78.708    25294.559    15080.344     6194.900        7.765        2.328      329.500       88.036        0.071      344.773       21.825      868.263
11/26/2014  15:46:00     -268.964     -154.157       -1.900      164.662      146.941       70.383    27113.670    21591.599     4953.732        7.487        2.683      310.010       76.087        0.060      344.731       21.755      868.268
11/26/2014  15:47:00     -349.431     -200.894      -11.205      240.678      138.264       89.309    57925.949    19116.825     7976.058       12.379        4.251      403.064      111.529        0.077      344.831       21.925      868.259
11/26/2014  15:48:00     -373.425     -242.829      -16.824      171.608      166.489       72.568    29449.168    27718.692     5266.156       13.055        3.122      445.435       81.982        0.034      344.861       21.977      868.262
11/26/2014  15:49:00     -356.394     -253.320       -8.423      190.329      146.242       90.354    36225.134    21386.603     8163.859       12.850        3.289      437.250       96.327        0.049      344.815       21.897      868.267
11/26/2014  15:50:00     -255.791     -210.640        2.722      170.199      140.749       81.208    28967.706    19810.375     6594.805        8.258        2.769      331.358       87.651        0.070      344.818       21.905      868.250
11/26/2014  15:51:00     -259.444     -149.679       -1.704      132.556      107.023       58.633    17571.026    11453.872     3437.812        6.108        1.623      299.525       58.967        0.039      344.793       21.860      868.276
11/26/2014  15:52:00     -210.308     -128.817        3.603      130.323      102.995       65.061    16984.124    10607.932     4232.978        4.632        1.591      246.624       67.294        0.074      344.747       21.783      868.285
11/26/2014  15:53:00     -362.425     -141.039      -17.367      127.406      122.754       63.843    16232.172    15068.650     4075.893        9.345        1.769      388.901       61.677        0.025      344.831       21.927      868.297
11/26/2014  15:54:00     -368.453     -225.118      -31.129      117.521      126.556       60.972    13811.104    16016.486     3717.643       11.047        1.677      431.782       56.284        0.017      344.830       21.924      868.294
11/26/2014  15:55:00     -334.220     -207.117      -10.824      167.374      125.181       98.758    28014.190    15670.310     9753.146       10.407        2.672      393.193       95.830        0.059      344.788       21.850      868.282
11/26/2014  15:56:00     -169.361      -57.776       -0.337      144.537       95.315       58.821    20890.823     9084.973     3459.883        3.272        1.672      178.945       68.091        0.145      344.603       21.537      868.283
11/26/2014  15:57:00     -254.375     -113.987      -23.542      160.256      111.991       64.961    25682.130    12542.045     4219.899        6.034        2.122      278.746       71.597        0.066      344.712       21.721      868.287
11/26/2014  15:58:00     -194.627     -151.130        8.996      132.226      101.572       74.967    17483.839    10316.921     5620.117        4.710        1.671      246.414       77.157        0.098      344.691       21.685      868.292
11/26/2014  15:59:00     -136.805      -51.989       10.558      121.819       70.450       50.447    14839.778     4963.261     2544.855        2.193        1.117      146.351       51.693        0.125      344.640       21.598      868.313
11/26/2014  16:00:00     -201.987     -133.131       -5.939      133.290       73.150       47.799    17766.306     5350.880     2284.707        4.197        1.270      241.914       59.894        0.061      344.652       21.621      868.324
11/26/2014  16:01:00     -202.637      -43.073       -1.840       89.063       72.364       41.418     7932.307     5236.547     1715.492        2.890        0.744      207.164       43.415        0.044      344.624       21.572      868.318
11/26/2014  16:02:00     -163.776     -112.605      -10.858       84.849       72.017       48.783     7199.377     5186.409     2379.770        2.719        0.738      198.753       47.272        0.057      344.588       21.511      868.318
11/26/2014  16:03:00     -190.071      -99.916       -7.371       99.291       66.653       46.476     9858.708     4442.626     2160.015        3.131        0.823      214.733       46.704        0.047      344.652       21.620      868.296
11/26/2014  16:04:00     -152.705     -110.834        3.381       96.838       76.962       61.774     9377.630     5923.203     3815.995        2.736        0.956      188.687       55.451        0.086      344.614       21.555      868.294
11/26/2014  16:05:00     -102.775      -77.207       -1.403       83.218       71.022       45.309     6925.303     5044.065     2052.946        1.527        0.701      128.544       45.910        0.128      344.571       21.483      868.294
11/26/2014  16:06:00     -193.318     -135.350      -15.415      108.565       83.720       44.638    11786.438     7008.972     1992.595        3.835        1.039      235.991       45.281        0.037      344.705       21.709      868.293
11/26/2014  16:07:00     -125.620     -100.808       -8.537       71.914       56.467       36.271     5171.606     3188.518     1315.564        1.784        0.484      161.067       38.259        0.056      344.562       21.468      868.296
11/26/2014  16:08:00     -167.140      -98.044      -13.855      108.920       64.901       40.306    11863.658     4212.119     1624.561        2.772        0.885      193.774       46.611        0.058      344.611       21.550      868.288
11/26/2014  16:09:00     -154.010      -82.567        0.104       97.642       78.668       40.373     9533.900     6188.592     1629.990        2.394        0.868      174.747       40.037        0.052      344.611       21.550      868.299
11/26/2014  16:10:00     -146.730       -5.852       -9.180       77.610       50.801       32.792     6023.254     2580.746     1075.316        1.566        0.484      146.847       22.724        0.024      344.623       21.573      868.295
11/26/2014  16:11:00     -162.528      -71.834       -3.635       65.548       40.594       30.888     4296.481     1647.912      954.061        1.924        0.345      177.695       27.008        0.023      344.539       21.428      868.301
11/26/2014  16:12:00     -128.798      -58.827        5.960       86.684       49.728       41.057     7514.137     2472.875     1685.680        1.588        0.584      141.596       49.599        0.123      344.516       21.389      868.305
11/26/2014  16:13:00     -178.625      -54.897       -5.699       63.862       46.189       30.569     4078.410     2133.382      934.481        2.105        0.357      186.870       27.257        0.021      344.528       21.409      868.306
11/26/2014  16:14:00     -110.897      -21.929       -3.387       54.548       45.889       25.423     2975.465     2105.809      646.323        0.926        0.286      113.045       26.928        0.057      344.405       21.202      868.299
11/26/2014  16:15:00      -97.180      -75.108        3.524       70.488       58.019       35.783     4968.512     3366.234     1280.449        1.235        0.481      122.821       40.346        0.108      344.366       21.134      868.308
11/26/2014  16:16:00     -120.817      -48.809       -4.974       66.601       40.824       26.048     4435.721     1666.640      678.473        1.189        0.339      130.304       31.740        0.059      344.387       21.170      868.291
11/26/2014  16:17:00      -87.306      -45.213        2.584       35.262       23.070       16.167     1243.400      532.242      261.372        0.585        0.102       98.319       15.080        0.024      344.335       21.081      868.288
11/26/2014  16:18:00     -110.998      -65.588       -2.988       61.068       36.474       24.889     3729.281     1330.384      619.471        1.115        0.284      128.928       23.203        0.032      344.388       21.172      868.284
11/26/2014  16:19:00     -145.872      -44.796        2.877       60.470       47.258       28.439     3656.575     2233.347      808.767        1.499        0.335      152.596       29.478        0.037      344.382       21.161      868.283
11/26/2014  16:20:00     -105.763      -64.052       -2.952       64.775       37.310       24.049     4195.826     1392.015      578.359        1.073        0.308      123.646       28.887        0.055      344.337       21.083      868.287
11/26/2014  16:21:00     -142.761      -36.305        1.174       47.804       44.395       22.325     2285.189     1970.909      498.411        1.323        0.238      147.305       24.518        0.028      344.390       21.176      868.309
11/26/2014  16:22:00     -147.389      -72.813        0.060       57.518       37.329       23.305     3308.274     1393.418      543.136        1.613        0.262      164.393       20.061        0.015      344.299       21.019      868.328
11/26/2014  16:23:00     -135.517      -40.090        3.575       50.940       33.028       26.029     2594.899     1090.856      677.527        1.217        0.218      141.323       24.691        0.031      344.310       21.038      868.340
11/26/2014  16:24:00     -130.263      -59.505        2.467       56.394       33.514       23.286     3180.255     1123.217      542.227        1.268        0.242      143.210       25.341        0.031      344.314       21.044      868.347
11/26/2014  16:25:00      -97.857      -70.297       -0.330       51.337       40.825       19.814     2635.447     1666.718      392.597        0.961        0.235      120.489       16.754        0.019      344.268       20.965      868.350
11/26/2014  16:26:00      -75.987      -41.117        0.319       50.147       39.283       18.646     2514.692     1543.143      347.673        0.593        0.220       86.398       22.006        0.065      344.187       20.828      868.363
11/26/2014  16:27:00      -63.575      -37.713       12.522       56.458       56.961       31.525     3187.550     3244.536      993.806        0.652        0.371       73.919       34.069        0.212      344.287       20.999      868.368
11/26/2014  16:28:00       -4.600     -103.147        0.269       42.212       32.284       27.096     1781.860     1042.265      734.181        0.711        0.178      103.250       23.823        0.053      344.196       20.846      868.382
11/26/2014  16:29:00       43.180      -14.520       13.945       35.046       38.862       18.517     1228.252     1510.280      342.877        0.267        0.154       45.556       24.854        0.298      343.138       19.038      868.377
11/26/2014  16:30:00      110.210      -69.479      -13.176       55.989       68.518       28.801     3134.808     4694.653      829.480        1.290        0.433      130.283       35.803        0.076      343.121       19.008      868.370
11/26/2014  16:31:00       50.436      -49.273       11.320       40.428       55.471       43.889     1634.406     3077.008     1926.276        0.587        0.332       70.510       44.008        0.390      343.004       18.811      868.363
11/26/2014  16:32:00       45.421      -29.163       10.205       28.877       28.749       26.417      833.889      826.533      697.851        0.269        0.118       53.977       20.766        0.148      342.903       18.638      868.353
11/26/2014  16:33:00       83.907      -65.924        7.118       43.813       56.023       26.731     1919.535     3138.591      714.554        0.860        0.289      106.707       34.362        0.104      343.024       18.845      868.338
11/26/2014  16:34:00       13.522      -58.835       -7.074       62.525       31.766       24.643     3909.394     1009.085      607.277        0.461        0.276       60.369       26.878        0.198      343.057       18.901      868.366
11/26/2014  16:35:00       -1.445      -17.345       -4.049       24.586       30.131       14.203      604.450      907.900      201.739        0.102        0.086       17.405        8.611        0.245      343.060       18.907      868.389
11/26/2014  16:36:00      -10.169       17.879       28.645       18.769       36.250       31.031      352.260     1314.057      962.947        0.194        0.131       20.568       26.553        1.667      342.983       18.774      868.387
11/26/2014  16:37:00      -22.843       11.372       11.605       18.408       17.436       18.218      338.863      304.013      331.883        0.088        0.049       25.517       16.311        0.409      342.957       18.731      868.396
11/26/2014  16:38:00      -13.859        6.522       -8.006       25.808       12.152        7.505      666.060      147.683       56.324        0.058        0.044       15.317       10.272        0.450      343.012       18.825      868.413
11/26/2014  16:39:00      -22.457      -13.954       -4.605       26.786       18.589       10.743      717.501      345.562      115.402        0.095        0.059       26.440       16.907        0.409      343.070       18.922      868.428
11/26/2014  16:40:00      -59.198      -27.758       -8.963       10.788       16.078       11.341      116.385      258.511      128.612        0.243        0.025       65.382        8.779        0.018      343.156       19.071      868.441
11/26/2014  16:41:00      -54.860      -12.689       -5.135        9.974       12.779        9.022       99.476      163.314       81.391        0.177        0.017       56.308        6.466        0.013      343.027       18.849      868.453
11/26/2014  16:42:00      -65.384        2.701       -2.503       13.350        8.200        6.992      178.223       67.237       48.890        0.229        0.015       65.439        7.588        0.013      343.114       19.000      868.458
11/26/2014  16:43:00      -54.945      -17.540       -6.780       15.324        8.194        5.037      234.818       67.143       25.369        0.185        0.016       57.676        7.039        0.015      343.028       18.850      868.471
11/26/2014  16:44:00      -57.817      -28.812       -5.028        8.535       11.303        5.499       72.849      127.747       30.234        0.221        0.012       64.598        3.696        0.003      343.279       19.280      868.485
11/26/2014  16:45:00      -74.673      -26.647       -7.606       11.391       14.030        5.430      129.746      196.855       29.485        0.335        0.018       79.285        5.339        0.005      343.122       19.014      868.506
11/26/2014  16:46:00      -79.909      -10.802       -9.132        8.451       11.112        4.887       71.413      123.485       23.886        0.340        0.011       80.636        2.118        0.001      342.928       18.682      868.528
11/26/2014  16:47:00      -73.609       -9.524       -8.258       23.439       11.939        8.006      549.384      142.544       64.091        0.317        0.038       74.223        9.858        0.018      342.778       18.426      868.554
11/26/2014  16:48:00      -58.737       -1.460       -2.329       22.180       12.173       10.753      491.972      148.192      115.635        0.211        0.038       58.755       11.947        0.041      342.770       18.411      868.558
11/26/2014  16:49:00      -50.273       -7.809       -3.115       18.860       14.867        9.304      355.699      221.016       86.566        0.163        0.033       50.876        7.980        0.025      342.563       18.061      868.574
11/26/2014  16:50:00      -51.116      -10.234        0.604       26.407       15.205       11.062      697.323      231.193      122.378        0.188        0.053       52.130       12.030        0.053      342.628       18.171      868.587
11/26/2014  16:51:00      -37.236       -4.563        3.650       24.343       19.702       12.474      592.590      388.166      155.593        0.128        0.057       37.515       10.161        0.073      342.894       18.623      868.587
11/26/2014  16:52:00      -44.419       -4.685       -4.971       41.648       20.061       12.879     1734.546      402.430      165.877        0.216        0.115       44.665       15.927        0.127      343.147       19.055      868.580
11/26/2014  16:53:00      -34.850      -11.837       -5.459       28.112       23.129       16.549      790.262      534.957      273.879        0.149        0.080       36.805       16.705        0.206      343.284       19.287      868.585
11/26/2014  16:54:00      -44.955      -21.713        3.459       23.342       25.175       14.029      544.868      633.789      196.807        0.194        0.069       49.924       12.826        0.066      342.888       18.611      868.587
11/26/2014  16:55:00     -105.889      -29.008      -12.665       38.758       35.894       23.256     1502.197     1288.407      540.826        0.777        0.167      109.791       18.796        0.029      343.115       19.002      868.601
11/26/2014  16:56:00      -56.826       -6.023       -5.390       32.892       17.773       14.971     1081.910      315.891      224.139        0.246        0.081       57.145        9.985        0.031      342.798       18.460      868.607
11/26/2014  16:57:00      -20.547       -8.286       -2.197       33.591       36.215       11.164     1128.377     1311.514      124.635        0.153        0.128       22.154       16.162        0.532      342.821       18.499      868.610
11/26/2014  16:58:00      -42.897      -12.053       -9.920       30.541       29.681       12.908      932.752      880.942      166.611        0.203        0.099       44.558       15.572        0.122      342.861       18.569      868.611
11/26/2014  16:59:00      -97.076      -22.477       -1.787       34.124       35.467       19.470     1164.419     1257.939      379.068        0.637        0.140       99.644       16.451        0.027      342.934       18.692      868.613
11/26/2014  17:00:00     -108.382      -18.923       -1.833       33.033       22.148       16.306     1091.203      490.539      265.875        0.698        0.092      110.021       14.436        0.017      342.889       18.615      868.621
11/26/2014  17:01:00      -82.454      -25.061       -1.453       22.952       29.365       10.702      526.779      862.289      114.534        0.447        0.075       86.179        9.782        0.013      343.006       18.815      868.635
11/26/2014  17:02:00      -82.394      -33.900       -3.667       23.832       18.697       11.192      567.951      349.584      125.270        0.450        0.052       89.095        9.137        0.011      342.956       18.728      868.632
11/26/2014  17:03:00      -84.406      -11.245       -1.596       31.637       28.460       18.565     1000.913      809.996      344.662        0.470        0.108       85.152       21.045        0.061      343.009       18.820      868.623
11/26/2014  17:04:00      -83.298      -25.543       -2.017       34.049       27.820       18.831     1159.328      773.941      354.625        0.494        0.114       87.126       18.206        0.044      342.954       18.726      868.630
11/26/2014  17:05:00      -63.752      -25.321       -1.914       31.541       21.372       13.188      994.841      456.782      173.922        0.317        0.081       68.596       11.918        0.030      342.785       18.437      868.641
11/26/2014  17:06:00      -78.265      -23.064       -4.391       31.524       20.033       15.165      993.733      401.336      229.966        0.415        0.081       81.593       14.837        0.033      342.741       18.362      868.635
11/26/2014  17:07:00      -57.299      -17.261        4.861       40.042       30.423       17.785     1603.395      925.547      316.320        0.322        0.142       59.843       18.776        0.098      342.644       18.198      868.633
11/26/2014  17:08:00      -78.428      -21.147        0.104       31.563       25.102       17.960      996.222      630.117      322.552        0.427        0.097       81.229       19.269        0.056      342.645       18.199      868.633
11/26/2014  17:09:00      -92.348      -10.336       -7.278       41.392       26.769       17.522     1713.322      716.589      307.012        0.571        0.137       92.925       17.848        0.037      342.866       18.576      868.630
11/26/2014  17:10:00      -53.482      -40.463       -1.359       35.625       22.666       15.411     1269.112      513.746      237.512        0.326        0.101       67.064       17.416        0.067      342.840       18.531      868.631
11/26/2014  17:11:00      -40.268      -29.815        2.977       33.393       25.751       14.863     1115.093      663.089      220.915        0.226        0.100       50.105       21.277        0.180      342.735       18.353      868.641
11/26/2014  17:12:00      -33.181      -17.944        1.740       41.360       26.046       16.453     1710.686      678.399      270.687        0.204        0.133       37.722       14.873        0.155      342.835       18.521      868.639
11/26/2014  17:13:00      -63.252      -26.094       -5.366       24.724       16.737       11.584      611.266      280.132      134.186        0.287        0.051       68.423       14.168        0.043      342.719       18.326      868.636
11/26/2014  17:14:00      -67.564      -17.371       -7.152       25.203       22.046       21.274      635.202      486.013      452.596        0.325        0.079       69.761       18.535        0.071      342.911       18.650      868.635
11/26/2014  17:15:00      -77.178      -36.801      -10.566       25.934       18.446       16.420      672.589      340.270      269.608        0.435        0.064       85.504       15.749        0.034      342.751       18.381      868.638
11/26/2014  17:16:00      -74.827      -65.975        4.274       45.960       44.592       24.991     2112.323     1988.464      624.537        0.735        0.236       99.759       25.998        0.068      342.841       18.533      868.640
11/26/2014  17:17:00      -26.529      -43.406       -1.175       21.904       26.814       15.920      479.785      718.975      253.461        0.202        0.073       50.871        7.883        0.024      342.873       18.586      868.646
11/26/2014  17:18:00        8.391       -5.892        3.398       17.095       24.783       13.450      292.256      614.177      180.902        0.060        0.054       10.254        7.069        0.475      342.814       18.487      868.644
11/26/2014  17:19:00      -29.371       -9.273        2.558       34.756       25.665       10.993     1207.948      658.685      120.846        0.147        0.099       30.800       15.478        0.253      342.829       18.511      868.643
11/26/2014  17:20:00      -43.517      -12.124        2.902       24.035       17.151        9.502      577.677      294.153       90.284        0.151        0.048       45.174        9.349        0.043      342.730       18.344      868.641
11/26/2014  17:21:00      -13.935      -18.649       10.701       19.998       17.050       10.883      399.915      290.709      118.438        0.073        0.040       23.280       10.543        0.205      342.653       18.211      868.644
11/26/2014  17:22:00       23.813       -7.360        3.661       30.279       28.709       19.778      916.839      824.180      391.187        0.138        0.107       24.924       10.575        0.180      342.493       17.943      868.633
11/26/2014  17:23:00      -28.058        2.019        8.112       34.284       45.858       17.356     1175.415     2103.000      301.223        0.222        0.179       28.131       19.374        0.474      342.464       17.893      868.621
11/26/2014  17:24:00      -41.458      -49.061       -2.123       31.106       30.157       25.085      967.602      909.427      629.269        0.332        0.125       64.232       17.968        0.078      342.616       18.150      868.642
11/26/2014  17:25:00      -24.354      -14.274        5.009       15.537       23.769        7.332      241.391      564.948       53.757        0.084        0.043       28.229        6.003        0.045      342.644       18.197      868.644
11/26/2014  17:26:00      -24.387      -13.428       -4.172       21.052       16.607        9.923      443.169      275.793       98.462        0.080        0.041       27.840       10.201        0.134      342.687       18.271      868.651
11/26/2014  17:27:00       36.831      -38.501        6.128       20.895       19.967       13.152      436.621      398.680      172.971        0.194        0.050       53.281       10.230        0.037      342.641       18.193      868.648
11/26/2014  17:28:00       36.994      -20.579       11.095       20.562       30.986       25.163      422.804      960.146      633.182        0.197        0.101       42.332       21.319        0.254      342.326       17.656      868.642
11/26/2014  17:29:00       24.165       18.143       18.165       27.278       28.821       33.036      744.093      830.677     1091.353        0.195        0.133       30.218       21.029        0.484      342.407       17.794      868.635
11/26/2014  17:30:00       26.672       36.872       55.876       48.179       24.505       26.101     2321.227      600.497      681.251        0.440        0.180       45.507       24.695        0.294      342.268       17.560      868.645
11/26/2014  17:31:00       44.807       14.083        9.593       34.080       37.765       29.083     1161.423     1426.204      845.798        0.287        0.172       46.968       13.007        0.077      342.383       17.754      868.672
11/26/2014  17:32:00       34.466        0.914       -2.941       18.415       20.680       16.185      339.127      427.669      261.965        0.111        0.051       34.478        9.870        0.082      342.402       17.787      868.674
11/26/2014  17:33:00       23.008       21.285       10.061       20.363       18.213       15.993      414.648      331.726      255.776        0.104        0.050       31.343        9.985        0.101      342.293       17.600      868.658
11/26/2014  17:34:00       79.307       54.604        1.355       34.823       28.476       19.156     1212.617      810.867      366.936        0.583        0.120       96.287        6.016        0.004      342.451       17.869      868.646
11/26/2014  17:35:00       76.616       16.867        6.993       28.700       19.703       15.277      823.712      388.212      233.399        0.382        0.072       78.450       13.472        0.029      342.370       17.731      868.641
11/26/2014  17:36:00       70.749       48.526        7.951       28.022       22.476       19.336      785.217      505.193      373.887        0.454        0.083       85.792       11.120        0.017      342.369       17.730      868.635
11/26/2014  17:37:00       63.294       32.489        8.776       25.942       20.415       20.608      673.013      416.781      424.694        0.333        0.076       71.145       13.894        0.038      342.256       17.538      868.632
11/26/2014  17:38:00        0.423       -1.854       -3.002       15.687       10.804        8.768      246.089      116.723       76.873        0.023        0.022        1.901        6.343       11.128      342.031       17.156      868.630
11/26/2014  17:39:00       15.737       44.829       -6.265       18.257       21.996        8.426      333.315      483.844       71.001        0.159        0.044       47.511        6.150        0.017      342.318       17.644      868.612
11/26/2014  17:40:00       54.812       52.417       -3.925       16.905       14.021       15.154      285.763      196.578      229.640        0.324        0.036       75.841       12.786        0.028      342.284       17.586      868.597
11/26/2014  17:41:00       35.842       17.490        2.815       15.842       11.313       11.427      250.966      127.983      130.581        0.105        0.025       39.882        8.374        0.044      342.232       17.498      868.584
11/26/2014  17:42:00        9.284      -10.233        1.075       21.010       12.918       12.542      441.419      166.874      157.296        0.048        0.038       13.817       12.549        0.825      341.896       16.927      868.580
11/26/2014  17:43:00       17.727      -11.434       -2.629       10.746       12.440        8.987      115.486      154.749       80.769        0.040        0.018       21.095        9.781        0.215      341.800       16.765      868.597
11/26/2014  17:44:00       22.482      -12.105        5.278       12.487       13.799       12.282      155.913      190.414      150.840        0.059        0.025       25.534        7.701        0.091      341.572       16.379      868.619
11/26/2014  17:45:00       50.656      -53.964       -3.539       20.195       21.990        9.701      407.838      483.578       94.118        0.324        0.049       74.014        5.268        0.005      342.031       17.158      868.641
11/26/2014  17:46:00       45.103      -16.130       -1.555       17.597       21.244       10.777      309.657      451.303      116.137        0.159        0.044       47.901       11.886        0.062      341.883       16.904      868.650
11/26/2014  17:47:00       48.862        8.297        3.668       13.458       14.623       11.078      181.106      213.839      122.714        0.149        0.026       49.562        5.121        0.011      342.078       17.235      868.661
11/26/2014  17:48:00       76.497       15.630       24.968       32.523       25.989       22.497     1057.754      675.442      506.104        0.448        0.112       78.078       24.200        0.096      342.029       17.153      868.664
11/26/2014  17:49:00       84.070       49.668       43.502       49.548       32.975       32.320     2455.013     1087.344     1044.561        0.801        0.229       97.646       27.889        0.082      342.036       17.165      868.654
11/26/2014  17:50:00      112.845      121.098       45.743       36.817       38.026       40.269     1355.511     1445.976     1621.605        1.696        0.221      165.526       28.885        0.030      341.953       17.024      868.626
11/26/2014  17:51:00       41.159      113.823       98.643       42.461       42.078       29.732     1802.942     1770.542      884.016        1.442        0.223      121.037       25.226        0.043      341.984       17.076      868.630
11/26/2014  17:52:00        0.326       38.256       54.073       15.636       27.398       18.492      244.486      750.675      341.936        0.286        0.067       38.258       17.835        0.217      341.875       16.891      868.674
11/26/2014  17:53:00      -61.010      -17.018       -4.911       25.261       23.593       17.181      638.136      556.635      295.199        0.276        0.074       63.339       13.356        0.044      341.630       16.477      868.693
11/26/2014  17:54:00       -8.710      -66.449       -5.797       39.023       31.095       25.483     1522.789      966.913      649.368        0.383        0.157       67.018       13.684        0.042      341.985       17.078      868.685
11/26/2014  17:55:00       44.126      -78.213       10.232       49.590       84.297       45.529     2459.213     7105.978     2072.894        0.990        0.582       89.802       48.451        0.291      342.371       17.733      868.640
11/26/2014  17:56:00      121.503      -51.390       11.688       88.297      102.956       66.629     7796.343    10599.920     4439.409        2.018        1.142      131.923       71.371        0.293      342.251       17.528      868.618
11/26/2014  17:57:00       55.853       11.306       85.763       62.223       74.943       60.498     3871.641     5616.504     3660.044        1.187        0.657       56.986       48.386        0.721      342.130       17.326      868.616
11/26/2014  17:58:00       62.353      -99.151       -2.095       53.968       89.911       46.332     2912.523     8083.923     2146.648        1.343        0.657      117.128       50.881        0.189      342.905       18.642      868.634
11/26/2014  17:59:00       81.340       72.917       80.833       53.035       66.059       44.942     2812.681     4363.848     2019.825        1.383        0.460      109.239       32.212        0.087      342.717       18.323      868.621
11/26/2014  18:00:00      -12.914       15.854       71.768       34.565       70.375       46.855     1194.717     4952.632     2195.437        0.695        0.417       20.448       46.256        5.117      342.241       17.513      868.640
11/26/2014  18:01:00     -103.396      -15.380       -1.523      102.256       40.819       29.829    10456.270     1666.213      889.753        1.197        0.651      104.533       40.600        0.151      341.481       16.223      868.687
11/26/2014  18:02:00     -181.338        7.738      -11.745       93.378       61.714       45.584     8719.377     3808.663     2077.880        2.384        0.730      181.503       48.154        0.070      341.911       16.950      868.703
11/26/2014  18:03:00      -18.042        5.159        7.498       73.843       33.096       30.455     5452.828     1095.325      927.523        0.394        0.374       18.765       38.326        4.171      341.905       16.942      868.683
11/26/2014  18:04:00       86.508       60.900       22.080       58.730       39.599       22.372     3449.270     1568.063      500.495        0.860        0.276      105.794       26.759        0.064      341.974       17.061      868.678
11/26/2014  18:05:00       46.855      -39.773       -3.827       38.027       55.763       24.206     1446.082     3109.493      585.936        0.447        0.257       61.460       32.689        0.283      342.441       17.854      868.691
11/26/2014  18:06:00       -4.622      -46.596       -2.962       57.511       43.718       20.185     3307.460     1911.288      407.442        0.391        0.281       46.825       10.845        0.054      342.658       18.221      868.694
11/26/2014  18:07:00       40.837        0.433        5.295       47.063       17.010       20.779     2214.917      289.333      431.771        0.232        0.147       40.839       14.050        0.118      342.366       17.726      868.651
11/26/2014  18:08:00       38.318        3.378       13.741       52.775       22.026       20.790     2785.232      485.140      432.222        0.268        0.185       38.467       21.188        0.303      342.137       17.337      868.637
11/26/2014  18:09:00       46.445      -52.444       -1.241       51.485       55.769       31.783     2650.718     3110.155     1010.178        0.584        0.339       70.054       19.469        0.077      342.533       18.009      868.644
11/26/2014  18:10:00      -18.114      -55.221        6.929       37.365       58.593       27.615     1396.107     3433.095      762.574        0.451        0.280       58.116       31.058        0.286      342.534       18.012      868.666
11/26/2014  18:11:00      -55.971     -144.751       -7.980       36.159       42.523       30.487     1307.497     1808.207      929.427        1.410        0.202      155.195       13.939        0.008      342.963       18.740      868.678
11/26/2014  18:12:00      -92.478      -81.833      -16.010       30.706       26.104       22.590      942.847      681.445      510.306        0.882        0.107      123.486       14.133        0.013      342.827       18.509      868.670
11/26/2014  18:13:00     -106.269      -13.119      -14.640       60.917       38.835       28.349     3710.872     1508.151      803.650        0.885        0.301      107.075       20.229        0.036      342.933       18.689      868.662
11/26/2014  18:14:00      -35.960      -34.174        7.037       24.176       22.138       14.798      584.483      490.084      218.974        0.190        0.065       49.609       10.673        0.046      342.962       18.737      868.636
11/26/2014  18:15:00      -68.364        6.153       -2.928       45.314       37.487       21.452     2053.339     1405.240      460.207        0.432        0.196       68.640       14.341        0.044      342.817       18.491      868.603
11/26/2014  18:16:00      -35.470       -3.232       -4.889       28.854       20.830       15.249      832.528      433.905      232.518        0.140        0.075       35.617        9.031        0.064      343.167       19.090      868.602
11/26/2014  18:17:00       26.098        2.932       -8.481       12.366       24.498       10.960      152.920      600.128      120.120        0.082        0.044       26.262       12.278        0.219      343.152       19.064      868.601
11/26/2014  18:18:00       35.634      -38.285       -9.861       12.214       21.387        7.011      149.194      457.408       49.153        0.174        0.033       52.302        6.536        0.016      342.404       17.790      868.617
11/26/2014  18:19:00       45.447       34.006       23.181       14.783       11.071       12.627      218.530      122.570      159.448        0.213        0.025       56.761        8.801        0.024      342.088       17.253      868.604
11/26/2014  18:20:00       51.725       36.853       18.218       20.827       11.453       11.461      433.777      131.180      131.359        0.253        0.035       63.511       12.279        0.037      342.425       17.826      868.586
11/26/2014  18:21:00       19.375        9.325        5.930       14.033       11.084        7.258      196.922      122.848       52.683        0.043        0.019       21.503        6.002        0.078      342.487       17.931      868.578
11/26/2014  18:22:00      -22.645        9.514        3.869       14.154       14.748        8.414      200.349      217.499       70.791        0.055        0.024       24.562        5.055        0.042      342.536       18.014      868.572
11/26/2014  18:23:00      -55.737      -18.742      -13.977       24.940       23.082        9.575      622.008      532.788       91.683        0.245        0.062       58.803        6.735        0.013      342.123       17.312      868.581
11/26/2014  18:24:00      -88.622      -40.432       -8.942       18.654        9.081        7.350      347.953       82.468       54.021        0.503        0.024       97.409        3.772        0.001      341.799       16.764      868.588
11/26/2014  18:25:00     -135.356      -41.027       -6.897       28.317       30.248       16.328      801.837      914.914      266.596        1.102        0.099      141.437       14.685        0.011      341.535       16.316      868.599
11/26/2014  18:26:00      -57.108      -19.336       -0.997       52.216       21.270       18.381     2726.460      452.428      337.859        0.358        0.176       60.293       17.548        0.085      341.708       16.609      868.606
11/26/2014  18:27:00      -27.346        4.528        4.241       40.552       22.387       16.113     1644.426      501.164      259.623        0.160        0.120       27.718       16.517        0.355      341.863       16.871      868.585
11/26/2014  18:28:00       -1.589       -1.645       -5.327       10.162       12.285       11.479      103.258      150.923      131.770        0.021        0.019        2.287        9.160       16.037      342.267       17.557      868.566
11/26/2014  18:29:00      -73.050       -1.124       -9.577       33.890       26.346       15.323     1148.531      694.091      234.785        0.375        0.104       73.059       14.224        0.038      342.535       18.013      868.565
11/26/2014  18:30:00      -69.114      -41.551       -6.584       25.959       15.072       12.958      673.875      227.156      167.902        0.381        0.053       80.642       11.787        0.021      341.716       16.621      868.585
11/26/2014  18:31:00      -45.755      -65.815       -5.973       17.533       25.764       16.014      307.410      663.781      256.433        0.384        0.061       80.157       11.705        0.021      341.745       16.672      868.621
11/26/2014  18:32:00      -11.188      -66.744        4.093       34.598       34.488       18.211     1197.035     1189.444      331.649        0.366        0.136       67.675       17.557        0.067      342.479       17.917      868.603
11/26/2014  18:33:00       56.063      -15.876        8.620       31.139       33.168       18.743      969.620     1100.144      351.313        0.294        0.121       58.268       19.008        0.106      342.462       17.892      868.546
11/26/2014  18:34:00       43.505       35.852       24.854       16.356       16.257       18.376      267.523      264.291      337.687        0.233        0.043       56.375       11.449        0.041      342.766       18.406      868.509
11/26/2014  18:35:00      -21.556      -24.496       -2.021       42.336       17.279       12.170     1792.345      298.551      148.105        0.165        0.112       32.630       21.293        0.426      342.640       18.190      868.533
11/26/2014  18:36:00      -62.400      -46.357        0.090       30.729       38.835       20.458      944.247     1508.134      418.510        0.446        0.144       77.735       26.432        0.116      342.241       17.513      868.578
11/26/2014  18:37:00      -85.914      -18.903       -8.131       20.530       19.169       10.802      421.499      367.443      116.686        0.435        0.045       87.969       11.389        0.017      341.639       16.492      868.596
11/26/2014  18:38:00     -138.645      -11.085      -14.546       37.750       23.503       21.017     1425.046      552.406      441.719        1.099        0.121      139.087       22.448        0.026      341.508       16.270      868.600
11/26/2014  18:39:00      -81.308      -36.348       -6.647       31.462       18.934       13.652      989.826      358.492      186.387        0.476        0.077       89.063       13.913        0.024      341.574       16.379      868.596
11/26/2014  18:40:00      -44.016      -64.818        2.680       31.272       21.651       14.473      977.961      468.773      209.464        0.390        0.083       78.350       14.343        0.034      341.822       16.801      868.554
11/26/2014  18:41:00       18.229      -43.215        9.303       22.816       23.004       10.754      520.573      529.186      115.643        0.173        0.058       46.902        8.131        0.030      342.214       17.469      868.525
11/26/2014  18:42:00        2.563      -93.579       -3.000       48.470       43.321       17.154     2349.348     1876.668      294.243        0.665        0.226       93.614       24.057        0.066      342.132       17.329      868.579
11/26/2014  18:43:00     -120.169     -102.729      -12.763       44.155       59.182       20.858     1949.638     3502.561      435.068        1.552        0.294      158.095       16.486        0.011      341.479       16.221      868.627
11/26/2014  18:44:00     -166.965      -73.309      -11.087       62.107       58.449       31.394     3857.261     3416.294      985.556        2.082        0.413      182.350       31.309        0.029      341.360       16.018      868.641
11/26/2014  18:45:00     -141.677     -112.215       -1.409       67.361       57.334       47.085     4537.522     3287.134     2216.965        2.135        0.502      180.734       47.677        0.070      341.674       16.551      868.637
11/26/2014  18:46:00     -105.852     -121.182       -9.186       47.588       37.876       19.927     2264.578     1434.586      397.086        1.503        0.205      160.902       21.815        0.018      341.744       16.669      868.635
11/26/2014  18:47:00     -101.335     -144.201       -6.517       38.402       75.451       36.377     1474.686     5692.847     1323.312        1.980        0.425      176.246       28.346        0.026      341.734       16.651      868.661
11/26/2014  18:48:00     -120.984      -72.330      -12.070       58.732       36.144       27.060     3449.477     1306.357      732.248        1.275        0.274      140.957       32.699        0.054      341.711       16.613      868.647
11/26/2014  18:49:00     -120.986      -26.177       -2.903       24.664       30.509       17.488      608.306      930.824      305.820        0.859        0.092      123.785       12.091        0.010      341.769       16.712      868.611
11/26/2014  18:50:00      -97.848      -41.762       -8.637       26.335       26.788       20.777      693.520      717.578      431.663        0.662        0.092      106.387       15.917        0.022      341.704       16.603      868.589
11/26/2014  18:51:00     -138.087      -63.768        1.025       43.188       35.416       22.932     1865.173     1254.316      525.871        1.339        0.182      152.100       21.732        0.020      341.648       16.507      868.621
11/26/2014  18:52:00      -89.168      -48.745        3.487       57.449       35.377       21.550     3300.367     1251.541      464.416        0.768        0.251      101.622       22.197        0.048      341.534       16.312      868.672
11/26/2014  18:53:00     -131.562      -14.631       -9.445       33.968       25.247       22.560     1153.797      637.393      508.960        0.996        0.115      132.373       18.217        0.019      341.527       16.300      868.670
11/26/2014  18:54:00      -96.200        2.198      -13.180       29.424       28.450       19.324      865.754      809.395      373.420        0.574        0.102       96.225       13.775        0.020      341.705       16.604      868.625
11/26/2014  18:55:00      -68.216      -20.512       -8.695       18.783       25.765       14.325      352.816      663.836      205.201        0.319        0.061       71.234        7.626        0.011      341.644       16.501      868.572
11/26/2014  18:56:00      -46.813      -35.037        3.819       50.951       21.197       18.817     2595.983      449.314      354.079        0.342        0.170       58.473       27.201        0.216      341.492       16.242      868.563
11/26/2014  18:57:00     -112.418      -76.551        3.608       49.527       34.535       23.690     2452.889     1192.690      561.217        1.136        0.210      136.007       24.694        0.033      341.340       15.986      868.596
11/26/2014  18:58:00     -108.332      -92.887        0.663       49.270       37.357       23.870     2427.502     1395.525      569.765        1.238        0.220      142.702       22.554        0.025      341.294       15.908      868.600
11/26/2014  18:59:00     -146.445      -35.906      -12.276       27.996       27.955       18.643      783.778      781.475      347.551        1.240        0.096      150.783       14.382        0.009      341.175       15.705      868.566
11/26/2014  19:00:00     -134.829      -11.894      -11.746       46.065       33.220       21.243     2121.967     1103.574      451.256        1.107        0.184      135.353       23.983        0.031      341.019       15.442      868.549
11/26/2014  19:01:00     -142.932      -60.021       -5.641       49.442       42.265       25.406     2444.536     1786.347      645.484        1.447        0.244      155.023       23.260        0.023      340.926       15.284      868.592
11/26/2014  19:02:00     -103.263      -96.698        2.356       34.736       48.068       19.763     1206.590     2310.530      390.571        1.196        0.195      141.470       18.920        0.018      341.076       15.537      868.646
11/26/2014  19:03:00      -90.984     -147.744       -2.878       34.916       35.488       23.334     1219.124     1259.423      544.490        1.657        0.151      173.512       20.764        0.014      341.919       16.965      868.643
11/26/2014  19:04:00      -83.764      -87.181       -0.681       60.283       64.841       30.902     3634.008     4204.398      954.944        1.170        0.440      120.900       38.345        0.101      341.754       16.686      868.636
11/26/2014  19:05:00      -95.417      -36.249        2.670       35.116       29.369       21.386     1233.150      862.553      457.379        0.649        0.128      102.070       17.069        0.028      341.214       15.772      868.636
11/26/2014  19:06:00      -88.024       -1.364       -8.341       43.300       16.115       16.661     1874.886      259.685      277.591        0.512        0.121       88.034       20.697        0.055      341.376       16.046      868.600
11/26/2014  19:07:00      -29.890        8.348       -1.138       18.027       21.666       14.637      324.984      469.408      214.235        0.099        0.050       31.034        9.303        0.090      341.474       16.211      868.558
11/26/2014  19:08:00      -85.549      -31.722      -16.852       23.218       11.642        9.727      539.068      135.542       94.623        0.469        0.038       91.241        7.171        0.006      341.579       16.388      868.574
11/26/2014  19:09:00     -106.465      -72.748       -9.518       32.956       25.056       19.286     1086.101      627.808      371.954        0.940        0.104      128.946       11.641        0.008      340.657       14.829      868.630
11/26/2014  19:10:00     -134.722      -92.865        0.660       37.660       28.364       20.722     1418.242      804.537      429.404        1.471        0.133      163.627       21.556        0.017      340.800       15.070      868.659
11/26/2014  19:11:00     -116.078      -69.044       -4.356       39.169       36.921       22.126     1534.232     1363.125      489.579        1.082        0.169      135.061       19.496        0.021      341.080       15.545      868.651
11/26/2014  19:12:00     -148.740      -28.163      -11.648       24.697       23.426       15.779      609.959      548.764      248.985        1.223        0.070      151.383       10.662        0.005      341.011       15.427      868.633
11/26/2014  19:13:00     -123.348      -76.322       -5.623       25.739       31.900       17.969      662.489     1017.625      322.880        1.154        0.100      145.051       15.894        0.012      340.877       15.200      868.645
11/26/2014  19:14:00     -103.768      -87.500       -1.645       42.268       32.942       26.287     1786.570     1085.152      690.987        1.099        0.178      135.735       25.635        0.036      340.910       15.257      868.664
11/26/2014  19:15:00     -114.059      -85.967       -7.744       27.280       30.300       17.100      744.207      918.076      292.426        1.121        0.098      142.828       13.234        0.009      341.304       15.924      868.627
11/26/2014  19:16:00      -97.110      -15.104      -10.230       27.560       28.659       16.909      759.581      821.328      285.921        0.581        0.093       98.277       13.244        0.018      341.603       16.430      868.538
11/26/2014  19:17:00      -72.035       55.479       -7.244       20.774       30.845       15.764      431.571      951.388      248.517        0.498        0.082       90.922       10.462        0.013      341.705       16.603      868.455
11/26/2014  19:18:00      -89.887       22.405       -5.077       29.383       37.784       21.157      863.337     1427.600      447.633        0.567        0.137       92.638       19.247        0.043      341.290       15.900      868.448
11/26/2014  19:19:00     -105.420      -81.853       -4.940       81.964       51.786       32.990     6718.107     2681.799     1088.311        1.416        0.524      133.466       38.483        0.083      340.320       14.258      868.546
11/26/2014  19:20:00      -82.899      -52.170       10.402       78.919       52.555       37.176     6228.199     2762.036     1382.031        1.004        0.519       97.949       39.598        0.163      340.583       14.703      868.637
11/26/2014  19:21:00      -81.847      -36.476       -2.375       50.615       36.657       23.642     2561.854     1343.738      558.944        0.625        0.223       89.607       24.812        0.077      340.856       15.166      868.604
11/26/2014  19:22:00      -30.295      -36.109       -7.034       18.507       17.018        9.177      342.497      289.607       84.209        0.149        0.036       47.135        7.924        0.028      340.968       15.355      868.532
11/26/2014  19:23:00      -82.931      -12.479      -11.910       11.231       20.352       15.018      126.134      414.188      225.548        0.397        0.038       83.865        9.926        0.014      341.331       15.969      868.495
11/26/2014  19:24:00      -49.500       22.500        0.413       27.914       24.667       13.803      779.214      608.479      190.536        0.227        0.079       54.373        7.719        0.020      341.591       16.410      868.462
11/26/2014  19:25:00     -117.718       -4.866       -8.352       40.039       24.548       16.587     1603.104      602.616      275.126        0.822        0.124      117.819       21.356        0.033      341.098       15.574      868.489
11/26/2014  19:26:00     -151.712      -74.767       -1.445       38.210       28.218       21.306     1460.039      796.241      453.952        1.566        0.136      169.135       18.387        0.012      340.218       14.087      868.564
11/26/2014  19:27:00     -173.596      -49.732       -8.907       37.064       32.532       18.046     1373.706     1058.362      325.672        1.772        0.138      180.579       17.665        0.010      340.484       14.538      868.599
11/26/2014  19:28:00     -123.959      -26.332      -10.538       37.703       32.359       19.410     1421.548     1047.131      376.738        0.951        0.142      126.725       17.579        0.019      340.830       15.123      868.575
11/26/2014  19:29:00      -60.833       15.884       -5.476       35.407       27.834       19.439     1253.671      774.730      377.874        0.319        0.120       62.872       15.927        0.064      341.019       15.440      868.535
11/26/2014  19:30:00      -78.403      -22.349      -10.013       34.737       28.594       14.626     1206.679      817.605      213.912        0.449        0.112       81.526       16.358        0.040      340.998       15.406      868.547
11/26/2014  19:31:00     -152.349      -64.955      -14.821       26.376       27.810       18.364      695.691      773.369      337.227        1.473        0.090      165.618       12.614        0.006      340.036       13.780      868.601
11/26/2014  19:32:00     -162.161      -72.589       -6.431       27.611       28.115       17.577      762.359      790.471      308.940        1.673        0.093      177.667       14.743        0.007      339.930       13.601      868.626
11/26/2014  19:33:00     -119.103      -17.713       -5.852       37.232       32.839       22.753     1386.256     1078.414      517.702        0.876        0.149      120.413       22.509        0.035      340.073       13.842      868.613
11/26/2014  19:34:00     -110.518        6.524      -13.427       34.176       27.169       21.854     1168.026      738.157      477.596        0.741        0.119      110.711       17.350        0.025      340.949       15.322      868.572
11/26/2014  19:35:00      -85.800        1.409       -6.845       41.200       37.029       22.219     1697.450     1371.143      493.668        0.549        0.178       85.812       23.704        0.076      340.864       15.180      868.545
11/26/2014  19:36:00     -111.885      -59.032        0.196       52.131       43.715       22.732     2717.656     1911.002      516.739        1.057        0.257      126.503       26.398        0.044      340.271       14.176      868.576
11/26/2014  19:37:00     -129.545      -55.825       -8.786       59.100       41.802       33.997     3492.861     1747.407     1155.779        1.318        0.320      141.062       23.167        0.027      340.069       13.834      868.636
11/26/2014  19:38:00     -145.328      -71.305      -13.567       39.088       33.830       23.759     1527.867     1144.495      564.505        1.481        0.162      161.878       19.147        0.014      339.937       13.612      868.672
11/26/2014  19:39:00      -61.065      -34.770        3.965       43.780       42.164       22.334     1916.705     1777.763      498.807        0.457        0.210       70.270       23.108        0.108      340.391       14.379      868.650
11/26/2014  19:40:00      -81.873       34.627       -5.960       36.407       35.154       21.669     1325.448     1235.816      469.562        0.548        0.152       88.894       23.366        0.069      340.822       15.109      868.578
11/26/2014  19:41:00     -123.227       47.609       -5.400       29.828       30.357       23.890      889.731      921.556      570.716        0.993        0.119      132.105       17.429        0.017      341.107       15.589      868.530
11/26/2014  19:42:00     -108.038       34.089       -3.116       35.521       35.816       23.849     1261.737     1282.759      568.753        0.798        0.156      113.288       13.193        0.014      341.222       15.785      868.516
11/26/2014  19:43:00      -45.414      -24.739        4.016       36.450       31.900       17.947     1328.616     1017.622      322.086        0.268        0.133       51.715       14.956        0.084      340.820       15.105      868.518
11/26/2014  19:44:00      -74.589      -53.573        5.506       82.043       57.750       22.946     6731.091     3335.037      526.508        0.953        0.530       91.834       34.360        0.140      340.156       13.981      868.541
11/26/2014  19:45:00     -159.445      -82.542       -0.281       89.999       48.039       28.736     8099.880     2307.732      825.772        2.173        0.562      179.544       33.518        0.035      340.357       14.320      868.584
11/26/2014  19:46:00      -66.905      -93.939        9.432       38.929       45.028       29.302     1515.447     2027.509      858.632        0.889        0.220      115.330       25.984        0.051      340.472       14.517      868.607
11/26/2014  19:47:00      -66.643      -94.741        5.989       30.762       41.232       27.107      946.328     1700.066      734.806        0.842        0.169      115.832       16.103        0.019      340.933       15.296      868.602
11/26/2014  19:48:00     -112.653      -85.630      -16.560       38.063       44.420       21.854     1448.810     1973.138      477.576        1.210        0.195      141.503       18.191        0.017      341.145       15.655      868.564
11/26/2014  19:49:00     -141.417      -22.004       -8.808       34.858       22.109       18.822     1215.112      488.799      354.251        1.131        0.103      143.118       16.922        0.014      340.815       15.096      868.531
11/26/2014  19:50:00     -118.192      -12.157       -0.233       38.184       35.853       27.192     1457.999     1285.460      739.414        0.880        0.174      118.816       25.439        0.046      340.663       14.839      868.526
11/26/2014  19:51:00     -125.990      -61.570        0.608       40.286       27.056       20.700     1622.961      732.050      428.503        1.122        0.139      140.230       19.986        0.020      340.307       14.235      868.534
11/26/2014  19:52:00     -131.656      -23.868       -7.730       29.550       29.503       22.550      873.188      870.411      508.483        1.011        0.113      133.802       23.157        0.030      340.393       14.383      868.522
11/26/2014  19:53:00     -127.412      -27.441      -15.460       31.633       23.811       18.134     1000.673      566.975      328.842        0.956        0.095      130.334       16.436        0.016      340.492       14.551      868.511
11/26/2014  19:54:00      -86.699       -7.970      -10.003       35.528       24.634       18.445     1262.218      606.830      340.214        0.494        0.110       87.065       16.331        0.035      340.342       14.297      868.505
11/26/2014  19:55:00      -98.653      -27.603       -8.644       27.321       15.213       13.696      746.424      231.447      187.576        0.587        0.058      102.442       10.202        0.010      340.374       14.351      868.503
11/26/2014  19:56:00      -70.805      -22.353       -7.271       13.843       15.721       10.559      191.626      247.157      111.489        0.306        0.028       74.250        3.970        0.003      340.556       14.659      868.483
11/26/2014  19:57:00      -99.041       -3.849       -9.839       25.713       28.594       18.178      661.142      817.596      330.441        0.586        0.090       99.116        9.171        0.009      340.915       15.265      868.452
11/26/2014  19:58:00      -87.890      -26.857       -5.078       41.100       36.640       26.893     1689.234     1342.461      723.208        0.611        0.188       91.902       21.050        0.052      340.189       14.038      868.439
11/26/2014  19:59:00     -121.771      -79.192       -6.549       37.606       28.390       20.665     1414.189      805.980      427.049        1.189        0.132      145.257       20.718        0.020      339.730       13.264      868.474
11/26/2014  20:00:00     -105.218      -25.325       -4.852       52.426       33.283       24.456     2748.526     1107.753      598.075        0.809        0.223      108.223       24.765        0.052      340.160       13.990      868.504
11/26/2014  20:01:00      -66.332      -48.169        4.127       50.094       24.752       20.667     2509.387      612.644      427.106        0.514        0.177       81.977       25.120        0.094      340.095       13.881      868.531
11/26/2014  20:02:00     -104.052      -73.760       -5.562       22.488       24.378       14.476      505.724      594.277      209.564        0.880        0.065      127.544       10.545        0.007      340.353       14.315      868.551
11/26/2014  20:03:00      -33.552       19.220        0.740       24.830       28.876       18.612      616.543      833.805      346.398        0.165        0.090       38.667       16.710        0.187      340.332       14.281      868.529
11/26/2014  20:04:00      -38.392      -25.116       -6.923       22.633       37.945       13.962      512.250     1439.803      194.937        0.215        0.107       45.878       13.888        0.092      340.544       14.638      868.496
11/26/2014  20:05:00     -101.685      -54.157       -0.200       72.031       59.041       29.346     5188.503     3485.851      861.185        1.140        0.477      115.208       30.233        0.069      340.804       15.078      868.495
11/26/2014  20:06:00     -126.016       -8.704      -11.842       28.353       26.240       20.991      803.920      688.552      440.632        0.901        0.097      126.316       17.176        0.018      340.229       14.105      868.513
11/26/2014  20:07:00      -50.746       -7.553       -0.441       30.769       23.276       16.656      946.704      541.786      277.425        0.220        0.088       51.305       15.437        0.091      340.498       14.562      868.502
11/26/2014  20:08:00      -26.159      -18.364        3.508       16.618       11.256       10.954      276.174      126.707      119.987        0.078        0.026       31.962       10.214        0.102      340.734       14.959      868.465
11/26/2014  20:09:00      -72.606      -42.580       -5.187       20.414       11.794       12.000      416.744      139.092      144.008        0.391        0.035       84.171        7.848        0.009      340.712       14.922      868.460
11/26/2014  20:10:00      -53.233      -61.699        4.772       44.794       31.205       26.349     2006.473      973.734      694.292        0.517        0.184       81.489       28.964        0.126      340.169       14.003      868.519
11/26/2014  20:11:00     -112.457      -93.528       -7.041       32.255       32.373       22.179     1040.388     1047.997      491.890        1.201        0.129      146.267       18.423        0.016      340.469       14.512      868.545
11/26/2014  20:12:00      -27.279      -44.376        9.873       22.598       29.631       18.160      510.683      877.990      329.786        0.226        0.086       52.090       11.747        0.051      340.475       14.521      868.492
11/26/2014  20:13:00       47.319       -8.391       11.443       45.359       54.495       21.640     2057.475     2969.676      468.285        0.397        0.275       48.058       13.545        0.079      340.481       14.532      868.387
11/26/2014  20:14:00       27.804       42.526       -3.119       43.405       21.178       14.309     1883.989      448.495      204.753        0.256        0.127       50.809       14.851        0.085      340.453       14.483      868.332
11/26/2014  20:15:00      -75.862      -20.352      -12.554       35.259       42.506       15.595     1243.182     1806.761      243.211        0.481        0.165       78.544        9.315        0.014      340.522       14.601      868.374
11/26/2014  20:16:00      -99.400      -77.977        6.009       53.994       42.368       34.755     2915.314     1795.009     1207.924        1.096        0.296      126.336       35.147        0.077      339.808       13.396      868.474
11/26/2014  20:17:00      -75.739      -63.696        3.000       58.269       34.091       25.170     3395.285     1162.175      633.551        0.750        0.260       98.962       24.407        0.061      340.034       13.776      868.528
11/26/2014  20:18:00      -47.063      -76.423       10.460       36.889       51.742       26.217     1360.780     2677.277      687.314        0.644        0.236       89.752       26.448        0.087      340.247       14.135      868.526
11/26/2014  20:19:00      -81.285      -88.192       -1.398       45.770       43.301       23.932     2094.906     1874.958      572.754        0.946        0.227      119.937        9.346        0.006      340.435       14.454      868.467
11/26/2014  20:20:00       11.565       12.378      -11.380       31.261       32.430       12.550      977.240     1051.686      157.510        0.130        0.109       16.940       11.797        0.485      340.382       14.365      868.413
11/26/2014  20:21:00        1.319       18.998      -22.013       29.168       18.241        9.250      850.795      332.745       85.561        0.106        0.063       19.044        7.408        0.151      340.436       14.454      868.395
11/26/2014  20:22:00      -85.470      -64.307       -5.194       34.801       21.874       19.652     1211.087      478.493      386.186        0.677        0.104      106.960       13.114        0.015      340.133       13.944      868.447
11/26/2014  20:23:00      -71.865      -60.678        5.099       47.797       38.317       20.922     2284.577     1468.229      437.716        0.653        0.210       94.055       21.814        0.054      339.863       13.488      868.512
11/26/2014  20:24:00      -57.791      -69.307        4.996       33.682       31.848       17.102     1134.491     1014.264      292.472        0.530        0.122       90.240       16.957        0.035      339.985       13.695      868.554
11/26/2014  20:25:00      -45.836      -92.350        4.543       36.428       45.060       19.151     1327.024     2030.433      366.759        0.719        0.186      103.100       23.216        0.051      340.433       14.449      868.541
11/26/2014  20:26:00      -39.309      -29.191       -0.523       35.706       27.843       18.403     1274.897      775.212      338.657        0.239        0.119       48.962       21.253        0.188      340.294       14.215      868.534
11/26/2014  20:27:00      -79.338      -49.691       -6.032       35.151       34.808       22.615     1235.563     1211.595      511.424        0.588        0.148       93.615       14.473        0.024      340.342       14.295      868.514
11/26/2014  20:28:00      -67.754      -34.104        0.589       27.968       28.004       13.909      782.195      784.211      193.466        0.376        0.088       75.853       11.279        0.022      340.257       14.152      868.513
11/26/2014  20:29:00      -86.202      -26.949      -13.205       20.791       15.111       15.042      432.263      228.347      226.265        0.461        0.044       90.316       11.153        0.015      340.338       14.289      868.529
11/26/2014  20:30:00      -80.010      -32.564      -13.985       19.899        8.966        8.804      395.990       80.394       77.514        0.411        0.028       86.383        4.815        0.003      340.237       14.119      868.533
11/26/2014  20:31:00      -53.097      -55.469       -7.759       15.820       20.444       10.755      250.267      417.960      115.671        0.337        0.039       76.786        9.585        0.016      340.289       14.207      868.539
11/26/2014  20:32:00      -77.333      -99.995       -4.950       21.941       25.204       12.282      481.397      635.264      150.853        0.864        0.063      126.410        8.031        0.004      340.486       14.541      868.551
11/26/2014  20:33:00       13.323      -28.454       10.272       28.253       26.273       20.991      798.241      690.271      440.617        0.151        0.096       31.419        7.966        0.064      340.292       14.211      868.549
11/26/2014  20:34:00      -42.919        2.068       -2.307       35.415       13.327       12.002     1254.214      177.596      144.042        0.171        0.079       42.969       13.000        0.092      340.377       14.355      868.528
11/26/2014  20:35:00      -31.434        7.209       -2.446       21.559       24.891       15.296      464.798      619.578      233.962        0.118        0.066       32.250       12.107        0.141      340.543       14.637      868.505
11/26/2014  20:36:00     -128.609      -51.581      -16.853       26.135       28.076       13.004      683.049      788.264      169.099        1.056        0.082      138.567        9.402        0.005      339.578       13.008      868.542
11/26/2014  20:37:00      -61.283      -51.903       -2.683       23.420       12.388       12.421      548.515      153.467      154.277        0.366        0.043       80.309        9.432        0.014      339.530       12.927      868.579
11/26/2014  20:38:00      -46.586      -71.653        3.074       14.097       29.349       11.171      198.717      861.381      124.802        0.425        0.059       85.466        6.585        0.006      340.447       14.474      868.562
11/26/2014  20:39:00       -8.181      -61.679       12.050       52.912       44.736       21.632     2799.676     2001.344      467.930        0.464        0.263       62.219       16.068        0.067      340.707       14.913      868.516
11/26/2014  20:40:00       -4.533      -21.407        2.974       16.928       19.937       15.846      286.553      397.481      251.097        0.071        0.047       21.881       10.857        0.246      340.020       13.753      868.520
11/26/2014  20:41:00      -48.310      -34.168       -4.810       28.853       18.179       14.567      832.483      330.467      212.204        0.245        0.069       59.172       10.785        0.033      340.163       13.995      868.553
11/26/2014  20:42:00      -58.509      -36.572        4.398       30.950       16.579       11.887      957.918      274.873      141.301        0.308        0.069       68.999        7.645        0.012      340.038       13.783      868.582
11/26/2014  20:43:00      -56.943      -17.205       -4.245       21.381       15.611       11.667      457.152      243.702      136.125        0.220        0.042       59.486        7.928        0.018      339.955       13.644      868.598
11/26/2014  20:44:00        3.964       -3.274       13.304       41.119       14.786       12.382     1690.765      218.611      153.307        0.113        0.103        5.141       13.959        7.371      339.869       13.499      868.594
11/26/2014  20:45:00       49.289       27.669        6.377        8.734        7.811       11.461       76.279       61.013      131.348        0.175        0.013       56.524        4.187        0.005      340.253       14.146      868.540
11/26/2014  20:46:00       45.433       22.443       11.660       11.121       11.747        9.048      123.680      137.986       81.869        0.152        0.017       50.674        8.841        0.030      340.340       14.293      868.486
11/26/2014  20:47:00        2.818      -18.464       -5.503       24.405       21.071        7.544      595.611      443.967       56.905        0.074        0.055       18.677       12.083        0.419      340.576       14.692      868.458
11/26/2014  20:48:00      -65.855      -44.581      -13.336       21.094       12.857        7.937      444.949      165.308       62.999        0.359        0.034       79.526        4.231        0.003      339.931       13.603      868.468
11/26/2014  20:49:00      -99.432      -55.128       -8.829       21.992       15.109       12.393      483.655      228.268      153.575        0.693        0.043      113.692        5.622        0.002      339.577       13.006      868.506
11/26/2014  20:50:00     -112.852      -68.425       -8.536       23.914       26.036       15.430      571.863      677.865      238.081        0.949        0.074      131.975        9.480        0.005      339.756       13.306      868.529
11/26/2014  20:51:00      -38.088      -39.276       -2.454       35.389       39.097       19.578     1252.405     1528.543      383.308        0.308        0.158       54.711        7.640        0.019      340.280       14.191      868.495
11/26/2014  20:52:00       14.410       17.516        0.559       33.648       19.026       11.473     1132.182      361.982      131.633        0.107        0.081       22.682       15.733        0.481      340.694       14.894      868.426
11/26/2014  20:53:00       62.962       38.951       -4.323       16.077       14.702       13.884      258.461      216.149      192.764        0.308        0.033       74.037       11.305        0.023      340.650       14.817      868.358
11/26/2014  20:54:00       23.114        9.744       -6.677       21.781       13.515        9.313      474.416      182.668       86.727        0.071        0.037       25.084       10.546        0.177      340.640       14.800      868.368
11/26/2014  20:55:00      -64.455      -54.851      -10.260       34.554       17.715        8.826     1193.972      313.810       77.893        0.443        0.079       84.635        5.951        0.005      339.750       13.298      868.456
11/26/2014  20:56:00      -77.179      -62.292       -6.415       32.987       26.153       16.304     1088.135      683.962      265.816        0.596        0.102       99.181       11.852        0.014      339.741       13.283      868.536
11/26/2014  20:57:00      -87.832     -130.567       -6.572       42.201       42.998       23.627     1780.922     1848.833      558.213        1.450        0.209      157.360       17.685        0.013      340.348       14.306      868.570
11/26/2014  20:58:00      -87.658      -76.720       -3.265       29.460       26.991       18.043      867.890      728.501      325.550        0.775        0.096      116.490       14.240        0.015      340.466       14.506      868.554
11/26/2014  20:59:00      -53.470      -51.596        0.577       24.662       37.379       15.381      608.197     1397.171      236.566        0.388        0.112       74.305       12.054        0.026      340.479       14.527      868.524
11/26/2014  21:00:00      -87.863      -66.783       -5.273       22.437       32.222       16.035      503.426     1038.227      257.105        0.700        0.090      110.363       12.410        0.013      340.560       14.664      868.509
11/26/2014  21:01:00      -74.750      -30.730       -0.711       21.341       26.013       13.244      455.434      676.693      175.403        0.392        0.065       80.821        9.358        0.013      340.132       13.940      868.489
11/26/2014  21:02:00      -69.491      -35.658        0.753       24.681       26.686       16.818      609.172      712.129      282.855        0.385        0.080       78.105        7.436        0.009      340.364       14.335      868.471
11/26/2014  21:03:00        8.378       -6.757        8.949       25.938       20.196       20.108      672.754      407.887      404.318        0.084        0.074       10.763       19.015        3.121      340.146       13.967      868.468
11/26/2014  21:04:00      -13.806       -9.237       -2.735       33.004       19.992        8.064     1089.294      399.687       65.036        0.092        0.078       16.611        6.795        0.167      340.114       13.909      868.463
11/26/2014  21:05:00      -75.610       -4.891      -11.441       31.823       24.069       14.982     1012.695      579.327      224.467        0.384        0.091       75.768       15.205        0.040      339.994       13.707      868.501
11/26/2014  21:06:00     -126.721      -28.981      -23.115       22.361       24.093       15.177      499.993      580.465      230.349        0.937        0.066      129.993       13.661        0.011      339.562       12.981      868.561
11/26/2014  21:07:00     -139.857      -56.846      -14.224       44.057       29.593       21.429     1941.026      875.768      459.191        1.313        0.164      150.968       18.131        0.014      338.873       11.820      868.620
11/26/2014  21:08:00     -129.810      -28.671      -10.354       36.942       29.580       19.287     1364.744      874.996      371.996        1.020        0.131      132.939       19.253        0.021      338.970       11.984      868.653
11/26/2014  21:09:00      -85.262       41.727      -12.755       37.220       32.655       20.884     1385.315     1066.333      436.127        0.603        0.144       94.925       21.267        0.050      339.565       12.986      868.628
11/26/2014  21:10:00      -52.183       71.289       -0.113       24.843       28.683       19.893      617.158      822.737      395.737        0.482        0.092       88.347       15.297        0.030      339.460       12.808      868.566
11/26/2014  21:11:00      -49.552       94.826        0.676       24.364       25.871       24.631      593.611      669.334      606.691        0.666        0.093      106.993       17.807        0.028      339.564       12.983      868.478
11/26/2014  21:12:00      -51.197       65.094        2.798       27.800       26.611       22.122      772.815      708.131      489.397        0.442        0.099       82.816       18.936        0.052      339.689       13.196      868.410
11/26/2014  21:13:00      -75.757      -31.358      -11.375       22.731       46.953       17.743      516.708     2204.601      314.817        0.494        0.152       81.991       11.758        0.021      339.307       12.551      868.412
11/26/2014  21:14:00     -121.763      -56.853      -10.573       21.457       21.455       13.165      460.401      460.336      173.313        0.963        0.055      134.382        8.184        0.004      338.789       11.679      868.441
11/26/2014  21:15:00     -114.958      -21.374      -18.381       64.652       45.886       25.375     4179.908     2105.549      643.906        1.047        0.346      116.928       24.977        0.046      338.979       11.999      868.464
11/26/2014  21:16:00     -116.273       24.278      -14.679       54.226       46.836       27.300     2940.499     2193.641      745.277        1.010        0.294      118.780       22.607        0.036      339.133       12.258      868.470
11/26/2014  21:17:00     -114.295       -9.243       -3.259       51.765       45.271       25.427     2679.593     2049.446      646.554        0.927        0.269      114.668       26.162        0.052      339.354       12.630      868.486
11/26/2014  21:18:00     -125.529      -41.479      -11.885       30.571       28.785       14.570      934.595      828.565      212.286        0.980        0.099      132.204        7.746        0.003      339.035       12.094      868.499
11/26/2014  21:19:00     -152.251      -44.745      -12.468       28.383       24.794       18.351      805.592      614.767      336.769        1.355        0.088      158.690       13.329        0.007      339.084       12.175      868.484
11/26/2014  21:20:00     -121.921      -12.892      -11.557       41.115       39.523       26.694     1690.415     1562.103      712.552        0.956        0.198      122.600       20.674        0.028      339.430       12.757      868.443
11/26/2014  21:21:00      -89.705      -45.407        4.745       39.646       45.016       24.820     1571.767     2026.460      616.017        0.717        0.211      100.543       19.777        0.039      339.142       12.273      868.430
11/26/2014  21:22:00     -142.553      -18.375       -0.168       76.242       53.099       34.161     5812.806     2819.510     1167.005        1.523        0.490      143.733       40.911        0.081      339.057       12.129      868.438
11/26/2014  21:23:00     -173.379      -21.513       -8.443       71.953       42.221       36.847     5177.215     1782.577     1357.733        1.945        0.416      174.708       43.223        0.061      339.095       12.193      868.439
11/26/2014  21:24:00      -62.985       -3.332       10.663       81.101       41.898       33.701     6577.305     1755.429     1135.754        0.678        0.473       63.073       38.989        0.382      339.160       12.304      868.416
11/26/2014  21:25:00      -70.143       31.698       -4.007       75.885       48.917       34.187     5758.460     2392.902     1168.750        0.763        0.466       76.972       40.768        0.281      339.377       12.668      868.411
11/26/2014  21:26:00      -79.710       -7.246       -1.710       56.838       51.993       32.127     3230.562     2703.317     1032.124        0.669        0.348       80.039       27.559        0.119      339.378       12.671      868.428
11/26/2014  21:27:00     -138.983      -32.278      -19.624       44.850       33.919       25.608     2011.557     1150.479      655.765        1.228        0.191      142.682       20.875        0.021      339.083       12.173      868.431
11/26/2014  21:28:00     -138.313      -44.235      -12.941       37.581       39.826       22.041     1412.317     1586.122      485.786        1.237        0.174      145.214       20.624        0.020      339.009       12.049      868.396
11/26/2014  21:29:00     -169.035      -55.645      -21.554       19.282       19.275       13.147      371.793      371.525      172.847        1.652        0.046      177.958        6.029        0.001      338.792       11.684      868.373
11/26/2014  21:30:00     -159.776      -59.364      -14.754       65.280       42.639       28.374     4261.485     1818.103      805.076        1.808        0.344      170.448       23.415        0.019      338.681       11.498      868.375
11/26/2014  21:31:00     -114.366        7.594        5.860       79.590       50.720       41.200     6334.599     2572.554     1697.448        1.189        0.530      114.618       44.810        0.153      339.224       12.410      868.407
11/26/2014  21:32:00     -162.220        9.144       -6.708       48.069       48.205       31.734     2310.640     2323.705     1007.054        1.604        0.282      162.478       19.576        0.015      339.453       12.797      868.449
11/26/2014  21:33:00     -143.204      -36.016      -12.746       50.027       37.661       31.658     2502.695     1418.340     1002.239        1.344        0.246      147.664       30.814        0.044      339.089       12.183      868.467
11/26/2014  21:34:00     -159.671      -15.124      -17.609       33.113       24.266       21.010     1096.444      588.861      441.418        1.408        0.106      160.386       19.283        0.014      339.208       12.385      868.468
11/26/2014  21:35:00     -135.846      -33.065      -11.304       25.997       27.651       22.683      675.851      764.575      514.502        1.081        0.098      139.812       17.484        0.016      339.207       12.381      868.465
11/26/2014  21:36:00     -124.562      -40.288      -12.603       22.011       25.816       13.712      484.469      666.460      188.021        0.932        0.067      130.915       13.328        0.010      339.125       12.244      868.470
11/26/2014  21:37:00     -175.071      -60.899      -17.660       19.044       23.645       12.144      362.655      559.107      147.471        1.787        0.053      185.361        4.823        0.001      339.123       12.241      868.475
11/26/2014  21:38:00     -139.810      -70.266       -5.120       34.998       38.664       20.731     1224.875     1494.869      429.777        1.383        0.157      156.474       15.471        0.010      338.984       12.006      868.476
11/26/2014  21:39:00      -58.634        7.486        0.096       49.356       42.704       32.677     2436.034     1823.599     1067.792        0.441        0.266       59.110       25.120        0.181      339.199       12.368      868.470
11/26/2014  21:40:00      -51.711       -1.540       -3.525       44.237       45.221       26.179     1956.891     2044.949      685.328        0.369        0.234       51.734       17.871        0.119      339.456       12.802      868.444
11/26/2014  21:41:00      -68.244       -4.248        8.790       66.880       44.361       29.500     4472.913     1967.859      870.236        0.603        0.366       68.376       32.952        0.232      339.402       12.711      868.451
11/26/2014  21:42:00      -73.598      -19.551        5.197       40.761       23.857       19.041     1661.453      569.145      362.565        0.421        0.130       76.151       17.770        0.054      339.050       12.115      868.478
11/26/2014  21:43:00      -52.399       45.654       -2.671       37.318       38.710       23.226     1392.669     1498.461      539.467        0.413        0.172       69.498       23.815        0.117      339.063       12.139      868.479
11/26/2014  21:44:00       -3.535       95.358      -19.322       40.290       15.219       11.066     1623.254      231.623      122.449        0.573        0.099       95.423        4.129        0.002      339.137       12.263      868.428
11/26/2014  21:45:00       -3.158      130.912      -29.271       18.166       16.624        7.965      329.992      276.356       63.441        0.934        0.033      130.950        8.339        0.004      339.134       12.260      868.362
11/26/2014  21:46:00       10.198      108.360      -23.220       27.152       38.700       16.640      737.254     1497.723      276.891        0.745        0.126      108.839       21.220        0.038      339.043       12.107      868.324
11/26/2014  21:47:00       32.208       28.033       -2.961       28.275       22.899       16.910      799.452      524.379      285.944        0.172        0.080       42.699       14.593        0.117      338.955       11.956      868.320
11/26/2014  21:48:00        8.512       -7.598       -8.395        7.943       23.722        8.057       63.089      562.735       64.920        0.045        0.035       11.410        9.798        0.737      339.053       12.122      868.350
11/26/2014  21:49:00       15.925      -14.187        6.779       21.146       10.562        8.327      447.173      111.552       69.342        0.056        0.031       21.328        8.943        0.176      339.130       12.253      868.398
11/26/2014  21:50:00       -4.936      -36.405      -10.530       19.024       13.472       10.828      361.931      181.508      117.247        0.106        0.033       36.738        8.631        0.055      339.128       12.249      868.415
11/26/2014  21:51:00      -91.635      -18.702      -14.924       30.830       25.921       15.595      950.519      671.891      243.211        0.542        0.093       93.524       16.371        0.031      338.924       11.906      868.390
11/26/2014  21:52:00     -165.921        8.586      -19.056       47.022       26.402       25.914     2211.051      697.090      671.515        1.577        0.179      166.143       23.698        0.020      339.266       12.482      868.346
11/26/2014  21:53:00     -134.593       -8.877       -8.730       70.868       49.777       36.988     5022.250     2477.755     1368.143        1.357        0.443      134.886       35.674        0.070      339.254       12.461      868.357
11/26/2014  21:54:00     -203.226       19.808      -26.049       83.818       54.070       33.088     7025.429     2923.592     1094.805        2.671        0.552      204.189       35.458        0.030      339.165       12.309      868.398
11/26/2014  21:55:00     -204.028       12.835      -26.086       61.286       55.789       33.947     3756.014     3112.459     1152.423        2.525        0.401      204.431       32.907        0.026      339.025       12.075      868.398
11/26/2014  21:56:00     -115.351       11.297       -9.805       70.966       50.271       30.327     5036.170     2527.159      919.756        1.100        0.424      115.902       29.175        0.063      338.987       12.011      868.385
11/26/2014  21:57:00     -165.982      -25.945      -20.316       34.530       33.540       23.837     1192.351     1124.939      568.182        1.576        0.144      167.997       22.910        0.019      338.715       11.554      868.406
11/26/2014  21:58:00     -172.825      -21.530      -19.593       35.306       35.457       25.564     1246.541     1257.234      653.504        1.694        0.158      174.161       20.693        0.014      338.743       11.601      868.413
11/26/2014  21:59:00     -131.712      -11.532       -5.592       65.737       35.103       27.228     4321.348     1232.210      741.362        1.190        0.315      132.215       28.732        0.047      338.955       11.959      868.390
11/26/2014  22:00:00     -155.196       18.110      -11.726       55.933       38.532       30.630     3128.461     1484.696      938.177        1.505        0.278      156.249       25.867        0.027      339.375       12.665      868.365
11/26/2014  22:01:00     -145.986       22.027       -9.702       73.735       47.278       32.932     5436.805     2235.174     1084.491        1.532        0.438      147.638       31.794        0.046      339.230       12.421      868.378
11/26/2014  22:02:00     -145.400        4.862      -18.070       57.830       50.451       28.503     3344.282     2545.317      812.419        1.410        0.335      145.481       23.296        0.026      339.074       12.159      868.391
11/26/2014  22:03:00     -162.968       61.897      -11.120       52.770       53.290       35.232     2784.720     2839.842     1241.325        1.869        0.343      174.326       32.912        0.036      339.218       12.400      868.345
11/26/2014  22:04:00      -89.958       -5.911      -16.067       59.913       37.601       27.588     3589.613     1413.840      761.088        0.707        0.288       90.152       27.276        0.092      339.240       12.437      868.289
11/26/2014  22:05:00     -183.337      -53.115      -20.502       48.957       34.745       30.453     2396.803     1207.187      927.361        2.069        0.227      190.876       22.961        0.014      338.853       11.785      868.300
11/26/2014  22:06:00     -148.360      -27.545      -10.354       84.200       53.124       35.907     7089.696     2822.182     1289.300        1.704        0.560      150.895       30.817        0.042      338.895       11.856      868.329
11/26/2014  22:07:00     -119.684        5.373      -14.916       73.562       42.032       36.493     5411.439     1766.726     1331.725        1.154        0.425      119.804       41.543        0.120      339.420       12.740      868.308
11/26/2014  22:08:00      -75.216      -17.197       -5.459       41.447       38.081       25.941     1717.822     1450.146      672.927        0.491        0.192       77.157       18.536        0.058      339.287       12.517      868.269
11/26/2014  22:09:00      -38.728      -48.360       16.031       49.357       30.725       24.403     2436.064      944.020      595.488        0.403        0.199       61.956       23.723        0.147      338.753       11.618      868.258
11/26/2014  22:10:00      -46.036      -31.120        0.752       68.093       27.912       25.055     4636.592      779.093      627.742        0.456        0.302       55.568       36.326        0.427      338.670       11.479      868.284
11/26/2014  22:11:00      -75.009      -31.903      -17.791       49.089       34.777       26.676     2409.715     1209.460      711.629        0.564        0.217       81.511       27.366        0.113      338.601       11.364      868.299
11/26/2014  22:12:00     -100.431      -40.034       -3.252       76.278       58.639       35.817     5818.370     3438.549     1282.890        1.112        0.527      108.116       38.708        0.128      338.642       11.433      868.294
11/26/2014  22:13:00     -215.751       67.275      -23.929       93.040       51.352       37.512     8656.439     2637.031     1407.169        3.217        0.635      225.996       33.856        0.022      339.238       12.431      868.279
11/26/2014  22:14:00     -197.994       46.426      -20.719       76.114       53.901       36.295     5793.313     2905.278     1317.354        2.590        0.501      203.364       27.771        0.019      339.290       12.520      868.241
11/26/2014  22:15:00     -161.094       -8.842      -15.751       91.135       74.786       35.297     8305.639     5592.973     1245.906        2.071        0.757      161.336       37.846        0.055      339.238       12.433      868.230
11/26/2014  22:16:00     -166.614      -60.477      -12.900       59.004       56.336       32.128     3481.430     3173.740     1032.223        1.963        0.384      177.250       24.644        0.019      338.776       11.658      868.292
11/26/2014  22:17:00     -162.933      -36.873      -13.848       50.976       50.740       29.131     2598.526     2574.501      848.641        1.706        0.301      167.053       27.694        0.027      338.892       11.852      868.337
11/26/2014  22:18:00      -97.296       44.707      -14.415       69.768       56.102       38.007     4867.631     3147.449     1444.524        1.056        0.473      107.076       25.216        0.055      339.227       12.417      868.299
11/26/2014  22:19:00      -67.303       68.843       -4.207       56.426       52.586       39.278     3183.850     2765.278     1542.764        0.839        0.375       96.276       38.541        0.160      339.333       12.595      868.238
11/26/2014  22:20:00      -90.339      -37.815      -24.979       48.898       36.363       19.932     2390.971     1322.275      397.294        0.716        0.206       97.934       22.936        0.055      339.098       12.200      868.221
11/26/2014  22:21:00     -198.890      -69.619      -18.354       44.384       50.355       28.734     1969.920     2535.668      825.667        2.504        0.267      210.723       12.901        0.004      338.613       11.381      868.293
11/26/2014  22:22:00     -198.379      -18.576      -25.503       61.597       47.966       31.831     3794.204     2300.766     1013.236        2.373        0.355      199.247       30.295        0.023      338.945       11.940      868.380
11/26/2014  22:23:00     -136.671       78.479       -4.049       66.236       51.187       44.451     4387.271     2620.115     1975.914        1.692        0.449      157.601       43.898        0.078      339.670       13.163      868.373
11/26/2014  22:24:00     -106.965       26.532      -17.735       43.242       64.721       23.345     1869.844     4188.862      544.986        0.953        0.330      110.207       25.679        0.054      339.856       13.477      868.351
11/26/2014  22:25:00     -127.455      -62.293      -15.103       31.443       24.693       18.082      988.645      609.758      326.942        1.114        0.096      141.863        6.298        0.002      338.705       11.536      868.344
11/26/2014  22:26:00     -122.144      -37.300      -19.871       52.823       48.147       23.999     2790.278     2318.140      575.973        1.119        0.284      127.712       16.374        0.016      338.788       11.678      868.344
11/26/2014  22:27:00      -87.253       -8.628      -21.614       52.496       45.511       28.861     2755.880     2071.266      832.986        0.691        0.283       87.679       18.009        0.042      339.355       12.633      868.352
11/26/2014  22:28:00      -80.738       22.360      -14.792       47.089       53.305       30.086     2217.337     2841.388      905.188        0.660        0.298       83.777       27.375        0.107      339.497       12.872      868.352
11/26/2014  22:29:00     -107.159        1.117      -16.327       71.914       46.647       36.476     5171.583     2175.933     1330.478        1.021        0.434      107.165       36.934        0.119      339.474       12.832      868.344
11/26/2014  22:30:00      -54.726        7.242       -7.869       63.168       48.989       27.816     3990.238     2399.945      773.722        0.514        0.358       55.203       27.791        0.253      339.400       12.707      868.347
11/26/2014  22:31:00      -89.738      -42.659       -4.515       41.331       35.537       27.959     1708.263     1262.856      781.715        0.682        0.188       99.361       26.025        0.069      338.706       11.542      868.357
11/26/2014  22:32:00      -82.087      -49.245      -13.848       38.021       39.335       27.841     1445.613     1547.256      775.133        0.656        0.188       95.725       18.118        0.036      338.563       11.300      868.356
11/26/2014  22:33:00      -71.268      -57.601       -7.780       28.362       31.572       23.768      804.379      996.784      564.919        0.541        0.118       91.635       16.917        0.034      338.578       11.325      868.329
11/26/2014  22:34:00      -55.252       -8.946      -10.967       52.981       49.219       21.045     2806.947     2422.466      442.889        0.446        0.284       55.971       17.581        0.099      339.037       12.096      868.301
11/26/2014  22:35:00      -76.357        5.309      -25.649       36.226       40.144       21.795     1312.353     1611.578      475.013        0.496        0.170       76.541       14.444        0.036      339.536       12.936      868.291
11/26/2014  22:36:00     -150.822      -28.673      -20.432       44.768       38.504       24.245     2004.205     1482.549      587.809        1.403        0.204      153.524       21.818        0.020      338.955       11.958      868.310
11/26/2014  22:37:00     -155.013      -44.772      -23.960       46.561       37.635       25.012     2167.920     1416.422      625.613        1.541        0.210      161.349       18.415        0.013      338.526       11.236      868.327
11/26/2014  22:38:00     -178.352        3.880       -9.653       70.820       57.027       39.830     5015.407     3252.101     1586.457        2.088        0.493      178.394       36.116        0.041      338.926       11.907      868.343
11/26/2014  22:39:00     -146.080       23.468      -13.608       78.360       56.150       37.104     6140.366     3152.862     1376.742        1.637        0.533      147.953       27.280        0.034      339.020       12.066      868.318
11/26/2014  22:40:00      -77.971        9.741        3.570       48.307       57.372       33.092     2333.571     3291.597     1095.089        0.645        0.336       78.577       26.286        0.112      339.323       12.577      868.282
11/26/2014  22:41:00     -100.208      -25.130       -6.270       39.564       51.451       36.589     1565.322     2647.183     1338.760        0.813        0.278      103.311       23.967        0.054      339.119       12.235      868.276
11/26/2014  22:42:00      -85.471      -35.433      -12.764       54.821       34.162       37.289     3005.337     1167.047     1390.506        0.714        0.278       92.525       34.193        0.137      338.589       11.343      868.309
11/26/2014  22:43:00      -93.988      -61.213      -16.127       63.532       36.107       21.337     4036.287     1303.682      455.277        0.932        0.290      112.163       18.400        0.027      338.500       11.193      868.340
11/26/2014  22:44:00      -74.409      -47.148       -1.728       65.044       34.999       29.215     4230.777     1224.920      853.513        0.703        0.315       88.089       27.700        0.099      338.481       11.161      868.343
11/26/2014  22:45:00      -90.513      -40.462       -3.761       41.799       23.844       20.405     1747.161      568.551      416.344        0.629        0.137       99.145       15.326        0.024      338.553       11.281      868.306
11/26/2014  22:46:00      -79.460      -59.717      -13.857       19.190       14.573       13.491      368.273      212.377      182.006        0.542        0.038       99.398        7.869        0.006      338.749       11.612      868.273
11/26/2014  22:47:00     -122.549      -42.782      -19.470       25.448       20.234       18.584      647.597      409.396      345.373        0.931        0.070      129.802       14.501        0.012      338.908       11.879      868.262
11/26/2014  22:48:00     -175.472      -71.562      -10.149       54.525       39.340       28.022     2973.012     1547.613      785.242        2.066        0.265      189.504       27.241        0.021      338.533       11.248      868.309
11/26/2014  22:49:00     -195.476     -114.464       -2.812       98.146       55.931       43.393     9632.724     3128.280     1882.979        3.298        0.732      226.523       37.931        0.028      338.533       11.247      868.390
11/26/2014  22:50:00     -181.574      -50.920      -16.196       81.276       56.395       27.239     6605.769     3180.396      741.950        2.317        0.526      188.579       33.783        0.032      338.829       11.743      868.418
11/26/2014  22:51:00     -136.884       -0.190      -18.197       48.816       43.196       25.031     2383.040     1865.876      626.552        1.197        0.244      136.884       24.967        0.033      339.283       12.511      868.375
11/26/2014  22:52:00     -186.087      -48.057      -16.669       30.119       31.371       19.104      907.167      984.115      364.950        1.974        0.113      192.193       13.142        0.005      338.815       11.723      868.348
11/26/2014  22:53:00     -144.098      -12.292       -9.897       96.692       39.203       32.406     9349.331     1536.876     1050.175        1.647        0.597      144.621       38.047        0.069      339.167       12.314      868.336
11/26/2014  22:54:00     -108.319      -22.541        3.924       69.776       48.425       45.494     4868.715     2345.012     2069.675        1.077        0.464      110.640       49.283        0.198      339.171       12.321      868.338
11/26/2014  22:55:00      -99.339      -62.562        7.009       74.641       42.639       28.626     5571.223     1818.049      819.434        1.102        0.410      117.398       33.869        0.083      338.698       11.527      868.355
11/26/2014  22:56:00     -123.973      -61.529      -10.049       32.479       31.881       20.450     1054.910     1016.416      418.216        1.087        0.124      138.402       14.387        0.011      338.679       11.494      868.355
11/26/2014  22:57:00     -108.305      -46.564      -11.541       42.423       28.980       22.528     1799.679      839.841      507.510        0.859        0.157      117.891       18.150        0.024      338.730       11.580      868.317
11/26/2014  22:58:00     -162.929      -95.232      -19.120       35.395       28.302       24.224     1252.811      801.005      586.811        1.931        0.132      188.720       13.632        0.005      338.569       11.310      868.302
11/26/2014  22:59:00     -214.732      -82.126      -16.623       50.194       31.794       23.456     2519.449     1010.880      550.204        2.860        0.204      229.901       24.461        0.011      338.536       11.250      868.314
11/26/2014  23:00:00     -185.955      -37.037      -15.781       44.739       32.810       21.756     2001.602     1076.529      473.302        1.988        0.178      189.608       20.761        0.012      338.539       11.257      868.357
11/26/2014  23:01:00     -174.079      -37.956      -13.757       50.643       42.924       30.047     2564.756     1842.498      902.794        1.862        0.266      178.169       26.862        0.023      338.533       11.250      868.392
11/26/2014  23:02:00      -94.824      -60.338        5.993       66.955       60.706       37.461     4482.937     3685.192     1403.306        1.112        0.479      112.393       41.214        0.134      338.379       10.990      868.403
11/26/2014  23:03:00      -98.373      -40.761       -4.964       40.127       29.216       24.639     1610.158      853.593      607.074        0.722        0.154      106.483       17.936        0.028      338.423       11.065      868.377
11/26/2014  23:04:00     -104.228      -46.250      -16.556       57.048       22.537       20.524     3254.499      507.929      421.243        0.873        0.209      114.029       21.461        0.035      338.435       11.085      868.342
11/26/2014  23:05:00     -147.940      -63.634      -28.144       29.610       25.582       16.185      876.733      654.457      261.959        1.426        0.090      161.045       10.841        0.005      338.412       11.046      868.319
11/26/2014  23:06:00     -233.105     -107.825      -11.462       54.774       41.500       33.918     3000.212     1722.288     1150.409        3.598        0.294      256.835       21.726        0.007      338.366       10.964      868.350
11/26/2014  23:07:00     -122.619     -101.724       -1.559       73.853       52.435       41.291     5454.252     2749.448     1704.943        1.765        0.495      159.321       38.415        0.058      338.421       11.059      868.404
11/26/2014  23:08:00     -187.857      -53.108      -22.560       22.266       50.531       20.129      495.795     2553.360      405.189        2.104        0.173      195.220       12.458        0.004      338.762       11.633      868.378
11/26/2014  23:09:00     -155.725       16.909      -25.836       57.273       58.579       32.367     3280.162     3431.512     1047.624        1.648        0.388      156.640       27.461        0.031      339.104       12.208      868.274
11/26/2014  23:10:00      -53.744      -39.550        2.582       76.932       35.857       30.320     5918.463     1285.756      919.314        0.629        0.406       66.728       33.598        0.254      338.478       11.156      868.292
11/26/2014  23:11:00      -85.725      -67.354        5.114       64.190       39.243       22.867     4120.293     1540.022      522.913        0.905        0.309      109.020       19.947        0.033      338.388       11.005      868.306
11/26/2014  23:12:00     -214.865      -88.661      -17.251       32.610       31.242       22.138     1063.429      976.043      490.108        2.843        0.126      232.438       18.491        0.006      338.368       10.968      868.290
11/26/2014  23:13:00     -137.461      -84.237       -1.309       88.400       57.155       32.014     7814.646     3266.722     1024.879        1.905        0.605      161.219       35.979        0.050      338.290       10.838      868.308
11/26/2014  23:14:00     -151.639      -76.821       -5.915       35.369       43.129       25.375     1250.932     1860.098      643.909        1.634        0.188      169.988       21.031        0.015      338.342       10.929      868.304
11/26/2014  23:15:00      -81.222      -23.420      -12.081       37.169       24.879       17.784     1381.520      618.952      316.275        0.480        0.116       84.531       18.429        0.048      338.492       11.181      868.270
11/26/2014  23:16:00     -136.096      -55.887      -20.522       23.321       34.966       16.767      543.864     1222.612      281.137        1.206        0.102      147.124       11.477        0.006      338.544       11.267      868.256
11/26/2014  23:17:00     -147.782      -96.916      -11.766       53.554       32.175       26.130     2868.047     1035.226      682.763        1.798        0.229      176.727       21.002        0.014      338.334       10.915      868.279
11/26/2014  23:18:00     -124.348      -71.209      -15.349       40.394       30.081       24.225     1631.648      904.878      586.870        1.195        0.156      143.294       19.964        0.019      338.371       10.976      868.296
11/26/2014  23:19:00     -161.740      -85.944      -18.062       31.659       27.783       19.803     1002.321      771.871      392.176        1.802        0.108      183.156       13.179        0.005      338.338       10.921      868.308
11/26/2014  23:20:00     -192.425      -84.474       -5.045       46.384       42.758       34.732     2151.432     1828.266     1206.337        2.469        0.259      210.150       30.279        0.021      338.171       10.639      868.329
11/26/2014  23:21:00      -97.408       -8.827       -5.345       68.358       33.180       29.468     4672.821     1100.886      868.341        0.812        0.332       97.807       34.373        0.124      338.297       10.854      868.301
11/26/2014  23:22:00     -108.684      -52.934       -0.139       56.642       32.403       24.168     3208.355     1049.951      584.108        0.973        0.242      120.890       27.613        0.052      338.194       10.680      868.324
11/26/2014  23:23:00     -143.656      -64.616      -17.348       33.410       24.336       17.705     1116.209      592.228      313.455        1.357        0.101      157.519       17.272        0.012      338.083       10.493      868.332
11/26/2014  23:24:00     -147.203       45.488      -26.901       31.430       45.380       21.509      987.863     2059.304      462.633        1.399        0.175      154.071       15.926        0.011      338.503       11.198      868.271
11/26/2014  23:25:00      -74.038       30.317       -6.286       55.606       55.869       34.009     3091.974     3121.318     1156.633        0.690        0.368       80.004       31.050        0.151      338.837       11.760      868.197
11/26/2014  23:26:00      -97.035      -92.074       -5.474       72.953       44.283       35.529     5322.113     1960.965     1262.342        1.323        0.427      133.766       37.244        0.078      338.150       10.605      868.250
11/26/2014  23:27:00     -206.491      -89.947      -17.483       53.507       56.455       29.270     2863.006     3187.184      856.711        2.897        0.345      225.231       18.284        0.007      338.149       10.599      868.304
11/26/2014  23:28:00     -150.311       77.663      -23.302       44.014       37.927       26.749     1937.252     1438.467      715.501        1.663        0.205      169.190       21.132        0.016      338.687       11.508      868.243
11/26/2014  23:29:00     -191.809      -70.637      -21.335       85.975       59.495       19.498     7391.724     3539.690      380.177        2.677        0.566      204.403       13.803        0.005      338.405       11.030      868.287
11/26/2014  23:30:00     -148.732      -35.292        1.620      123.669       78.008       37.877    15293.985     6085.248     1434.656        2.309        1.141      152.862       41.880        0.075      338.187       10.668      868.321
11/26/2014  23:31:00     -122.371       52.760       -2.998       59.849       50.886       36.719     3581.909     2589.433     1348.303        1.264        0.376      133.260       26.022        0.038      338.780       11.663      868.289
11/26/2014  23:32:00     -182.712      -17.386      -12.081       89.258       51.412       41.341     7966.904     2643.178     1709.115        2.307        0.616      183.537       42.365        0.053      338.605       11.369      868.314
11/26/2014  23:33:00      -96.836       22.509        1.450       57.111       50.908       38.678     3261.636     2591.592     1495.960        0.862        0.367       99.417       35.532        0.128      338.703       11.533      868.346
11/26/2014  23:34:00     -130.200      -51.927      -13.392       49.928       34.906       28.179     2492.846     1218.424      794.067        1.217        0.225      140.173       28.335        0.041      338.400       11.027      868.340
11/26/2014  23:35:00      -27.938       15.724        7.951       83.368       31.911       28.670     6950.268     1018.341      821.993        0.494        0.440       32.059       38.863        1.470      338.389       11.007      868.335
11/26/2014  23:36:00      -14.888      -25.294        1.005       31.867       26.829       19.158     1015.537      719.791      367.013        0.148        0.105       29.350       15.210        0.269      338.560       11.292      868.348
11/26/2014  23:37:00      -27.581      -15.994        0.725       26.555       20.018       15.641      705.190      400.706      244.625        0.118        0.068       31.883        9.877        0.096      338.378       10.989      868.339
11/26/2014  23:38:00       22.569       -8.526       12.532       30.421       22.183       21.985      925.430      492.072      483.346        0.132        0.095       24.126       20.226        0.703      338.372       10.978      868.355
11/26/2014  23:39:00      -11.773       -3.075        9.559       24.150       17.304       15.168      583.204      299.427      230.077        0.068        0.056       12.168       12.883        1.121      338.381       10.993      868.345
11/26/2014  23:40:00      -86.895       55.714      -19.609       28.756       43.071       17.653      826.918     1855.086      311.644        0.702        0.150      103.222       18.164        0.031      338.525       11.235      868.319
11/26/2014  23:41:00      -40.143       34.887       -6.050       16.835       28.479       17.062      283.431      811.030      291.095        0.213        0.069       53.185       11.188        0.044      338.376       10.986      868.319
11/26/2014  23:42:00       14.072       29.432        8.761       22.846       14.478       13.364      521.954      209.615      178.599        0.103        0.046       32.623       13.740        0.177      338.559       11.293      868.321
11/26/2014  23:43:00       -4.205       25.108        4.576       16.918       12.838       17.992      286.221      164.823      323.711        0.072        0.039       25.458       11.807        0.215      338.577       11.323      868.316
11/26/2014  23:44:00       12.802       55.672       -6.856       34.618       22.957       21.217     1198.437      527.021      450.167        0.274        0.109       57.125       21.111        0.137      339.053       12.123      868.272
11/26/2014  23:45:00      -81.228      -11.248      -18.778       51.994       32.021       16.487     2703.408     1025.330      271.827        0.554        0.200       82.003       19.682        0.058      338.526       11.238      868.261
11/26/2014  23:46:00     -121.378       -5.863      -18.711       61.806       37.120       21.059     3820.016     1377.867      443.501        1.038        0.282      121.519       15.954        0.017      337.989       10.337      868.266
11/26/2014  23:47:00      -56.072       -4.381       -7.462       20.616       37.439       15.435      425.018     1401.712      238.247        0.264        0.103       56.242        9.297        0.027      338.872       11.817      868.299
11/26/2014  23:48:00      -59.309      -61.020      -15.453       23.141       18.283       12.855      535.505      334.286      165.258        0.426        0.052       85.094        9.145        0.012      337.984       10.328      868.386
11/26/2014  23:49:00      -61.464      -47.080       -7.890       26.778       13.192        9.606      717.050      174.022       92.275        0.352        0.049       77.424        9.688        0.016      338.475       11.153      868.392
11/26/2014  23:50:00     -123.398      -44.042      -14.974       21.288       18.902       11.908      453.168      357.294      141.795        0.917        0.048      131.022        4.653        0.001      338.253       10.779      868.325
11/26/2014  23:51:00      -77.288      -14.058      -13.480       24.397       21.650       15.197      595.226      468.719      230.935        0.382        0.065       78.556        8.177        0.011      338.462       11.130      868.256
11/26/2014  23:52:00      -70.625      -14.328       -2.616       41.750       35.147       25.160     1743.076     1235.310      633.001        0.441        0.181       72.064       16.033        0.049      338.474       11.150      868.242
11/26/2014  23:53:00     -107.342      -30.486      -17.761       38.439       27.898       26.463     1477.551      778.280      700.283        0.786        0.148      111.587       26.051        0.055      338.253       10.778      868.255
11/26/2014  23:54:00      -45.941       -0.286      -19.226       20.222       25.073       14.939      408.931      628.645      223.163        0.187        0.063       45.942        7.178        0.024      338.627       11.408      868.256
11/26/2014  23:55:00     -103.774      -73.200      -20.937       44.498       32.218       16.404     1980.098     1037.977      269.094        0.993        0.164      126.993        7.136        0.003      338.053       10.444      868.289
11/26/2014  23:56:00     -105.212      -66.277       -8.963       37.081       41.981       26.445     1375.007     1762.369      699.347        0.969        0.192      124.347       23.990        0.037      337.941       10.255      868.388
11/26/2014  23:57:00     -123.369      -17.467      -14.889       44.994       23.655       18.793     2024.450      559.548      353.178        0.934        0.147      124.600       15.866        0.016      338.240       10.756      868.370
11/26/2014  23:58:00      -90.643      -15.433      -14.396       29.240       30.409       18.125      854.984      924.707      328.507        0.538        0.105       91.948       13.761        0.022      338.122       10.557      868.300
11/26/2014  23:59:00      -24.983       52.130       -8.243       15.543       22.697       10.233      241.588      515.159      104.712        0.214        0.043       57.808       12.078        0.044      339.182       12.340      868.163
